<?xml version="1.0" encoding="UTF-8" standalone="no" ?>
<gpx xmlns="http://www.topografix.com/GPX/1/1" xmlns:xsi="http://www.w3.org/2001/XMLSchema-instance" xsi:schemaLocation="http://www.topografix.com/GPX/1/1 http://www.topografix.com/GPX/1/1/gpx.xsd" version="1.1" creator="VisuGPX - https://www.visugpx.com">
  <metadata>
    <name>ST_RAD-CAMBOULAS_29km_ 1000m</name>
    <desc><![CDATA[29km  -1000m]]></desc>
  </metadata>
  <trk>
    <name><![CDATA[st RA-CAM 29km ]]></name>
    <trkseg>
      <trkpt lat="44.33569" lon="2.62933">
        <ele>650.949707</ele>
        <time>2014-03-29T05:40:24Z</time>
      </trkpt>
      <trkpt lat="44.33568" lon="2.62935">
        <ele>650.949707</ele>
        <time>2014-03-29T05:40:25Z</time>
      </trkpt>
      <trkpt lat="44.33566" lon="2.62954">
        <ele>649.9885254</ele>
        <time>2014-03-29T05:40:30Z</time>
      </trkpt>
      <trkpt lat="44.33569" lon="2.62969">
        <ele>650.949707</ele>
        <time>2014-03-29T05:40:34Z</time>
      </trkpt>
      <trkpt lat="44.33571" lon="2.62979">
        <ele>650.949707</ele>
        <time>2014-03-29T05:40:37Z</time>
      </trkpt>
      <trkpt lat="44.33573" lon="2.63">
        <ele>651.4304199</ele>
        <time>2014-03-29T05:40:43Z</time>
      </trkpt>
      <trkpt lat="44.33572" lon="2.63013">
        <ele>650.4692383</ele>
        <time>2014-03-29T05:40:47Z</time>
      </trkpt>
      <trkpt lat="44.33573" lon="2.63019">
        <ele>649.0270996</ele>
        <time>2014-03-29T05:40:49Z</time>
      </trkpt>
      <trkpt lat="44.33573" lon="2.63035">
        <ele>647.1044922</ele>
        <time>2014-03-29T05:40:54Z</time>
      </trkpt>
      <trkpt lat="44.33564" lon="2.63048">
        <ele>644.7011719</ele>
        <time>2014-03-29T05:40:59Z</time>
      </trkpt>
      <trkpt lat="44.33564" lon="2.63055">
        <ele>643.2592773</ele>
        <time>2014-03-29T05:41:01Z</time>
      </trkpt>
      <trkpt lat="44.33561" lon="2.63075">
        <ele>640.855957</ele>
        <time>2014-03-29T05:41:06Z</time>
      </trkpt>
      <trkpt lat="44.33559" lon="2.6309">
        <ele>639.4140625</ele>
        <time>2014-03-29T05:41:10Z</time>
      </trkpt>
      <trkpt lat="44.33555" lon="2.63103">
        <ele>637.972168</ele>
        <time>2014-03-29T05:41:15Z</time>
      </trkpt>
      <trkpt lat="44.33551" lon="2.63111">
        <ele>637.972168</ele>
        <time>2014-03-29T05:41:18Z</time>
      </trkpt>
      <trkpt lat="44.33547" lon="2.63119">
        <ele>639.8947754</ele>
        <time>2014-03-29T05:41:21Z</time>
      </trkpt>
      <trkpt lat="44.33538" lon="2.63139">
        <ele>643.2592773</ele>
        <time>2014-03-29T05:41:26Z</time>
      </trkpt>
      <trkpt lat="44.33533" lon="2.63152">
        <ele>645.6625977</ele>
        <time>2014-03-29T05:41:30Z</time>
      </trkpt>
      <trkpt lat="44.33528" lon="2.6317">
        <ele>647.1044922</ele>
        <time>2014-03-29T05:41:35Z</time>
      </trkpt>
      <trkpt lat="44.33526" lon="2.63182">
        <ele>646.6240234</ele>
        <time>2014-03-29T05:41:38Z</time>
      </trkpt>
      <trkpt lat="44.33523" lon="2.63195">
        <ele>645.6625977</ele>
        <time>2014-03-29T05:41:42Z</time>
      </trkpt>
      <trkpt lat="44.33519" lon="2.63209">
        <ele>645.1818848</ele>
        <time>2014-03-29T05:41:46Z</time>
      </trkpt>
      <trkpt lat="44.33516" lon="2.63226">
        <ele>644.7011719</ele>
        <time>2014-03-29T05:41:51Z</time>
      </trkpt>
      <trkpt lat="44.33512" lon="2.6324">
        <ele>643.7399902</ele>
        <time>2014-03-29T05:41:55Z</time>
      </trkpt>
      <trkpt lat="44.33506" lon="2.63261">
        <ele>641.8173828</ele>
        <time>2014-03-29T05:42:01Z</time>
      </trkpt>
      <trkpt lat="44.33503" lon="2.63275">
        <ele>640.855957</ele>
        <time>2014-03-29T05:42:05Z</time>
      </trkpt>
      <trkpt lat="44.33498" lon="2.6329">
        <ele>638.9335938</ele>
        <time>2014-03-29T05:42:10Z</time>
      </trkpt>
      <trkpt lat="44.33495" lon="2.63305">
        <ele>637.0107422</ele>
        <time>2014-03-29T05:42:15Z</time>
      </trkpt>
      <trkpt lat="44.33491" lon="2.63321">
        <ele>635.0881348</ele>
        <time>2014-03-29T05:42:19Z</time>
      </trkpt>
      <trkpt lat="44.33487" lon="2.6334">
        <ele>633.1652832</ele>
        <time>2014-03-29T05:42:24Z</time>
      </trkpt>
      <trkpt lat="44.33485" lon="2.63354">
        <ele>631.7233887</ele>
        <time>2014-03-29T05:42:28Z</time>
      </trkpt>
      <trkpt lat="44.33483" lon="2.63371">
        <ele>630.2814941</ele>
        <time>2014-03-29T05:42:33Z</time>
      </trkpt>
      <trkpt lat="44.3348" lon="2.63389">
        <ele>629.8007813</ele>
        <time>2014-03-29T05:42:38Z</time>
      </trkpt>
      <trkpt lat="44.33479" lon="2.63401">
        <ele>628.8395996</ele>
        <time>2014-03-29T05:42:42Z</time>
      </trkpt>
      <trkpt lat="44.33478" lon="2.63415">
        <ele>628.3588867</ele>
        <time>2014-03-29T05:42:46Z</time>
      </trkpt>
      <trkpt lat="44.33475" lon="2.63434">
        <ele>628.8395996</ele>
        <time>2014-03-29T05:42:51Z</time>
      </trkpt>
      <trkpt lat="44.33472" lon="2.63446">
        <ele>627.3977051</ele>
        <time>2014-03-29T05:42:54Z</time>
      </trkpt>
      <trkpt lat="44.33468" lon="2.63463">
        <ele>625.4748535</ele>
        <time>2014-03-29T05:42:59Z</time>
      </trkpt>
      <trkpt lat="44.33462" lon="2.63482">
        <ele>624.032959</ele>
        <time>2014-03-29T05:43:05Z</time>
      </trkpt>
      <trkpt lat="44.33457" lon="2.63494">
        <ele>623.5524902</ele>
        <time>2014-03-29T05:43:09Z</time>
      </trkpt>
      <trkpt lat="44.33453" lon="2.63502">
        <ele>623.0717773</ele>
        <time>2014-03-29T05:43:12Z</time>
      </trkpt>
      <trkpt lat="44.33448" lon="2.6352">
        <ele>622.5910645</ele>
        <time>2014-03-29T05:43:17Z</time>
      </trkpt>
      <trkpt lat="44.33448" lon="2.63524">
        <ele>622.1103516</ele>
        <time>2014-03-29T05:43:18Z</time>
      </trkpt>
      <trkpt lat="44.33446" lon="2.63546">
        <ele>621.1491699</ele>
        <time>2014-03-29T05:43:24Z</time>
      </trkpt>
      <trkpt lat="44.33443" lon="2.63564">
        <ele>620.1877441</ele>
        <time>2014-03-29T05:43:29Z</time>
      </trkpt>
      <trkpt lat="44.3344" lon="2.63573">
        <ele>619.2263184</ele>
        <time>2014-03-29T05:43:32Z</time>
      </trkpt>
      <trkpt lat="44.33431" lon="2.63584">
        <ele>618.7456055</ele>
        <time>2014-03-29T05:43:37Z</time>
      </trkpt>
      <trkpt lat="44.33422" lon="2.63596">
        <ele>620.1877441</ele>
        <time>2014-03-29T05:43:42Z</time>
      </trkpt>
      <trkpt lat="44.33411" lon="2.6361">
        <ele>623.5524902</ele>
        <time>2014-03-29T05:43:49Z</time>
      </trkpt>
      <trkpt lat="44.33401" lon="2.63624">
        <ele>628.3588867</ele>
        <time>2014-03-29T05:43:56Z</time>
      </trkpt>
      <trkpt lat="44.33395" lon="2.63634">
        <ele>630.762207</ele>
        <time>2014-03-29T05:44:01Z</time>
      </trkpt>
      <trkpt lat="44.33394" lon="2.63635">
        <ele>631.2429199</ele>
        <time>2014-03-29T05:44:02Z</time>
      </trkpt>
      <trkpt lat="44.33388" lon="2.63647">
        <ele>634.126709</ele>
        <time>2014-03-29T05:44:08Z</time>
      </trkpt>
      <trkpt lat="44.3338" lon="2.63661">
        <ele>637.0107422</ele>
        <time>2014-03-29T05:44:15Z</time>
      </trkpt>
      <trkpt lat="44.33372" lon="2.63675">
        <ele>638.9335938</ele>
        <time>2014-03-29T05:44:22Z</time>
      </trkpt>
      <trkpt lat="44.33368" lon="2.63681">
        <ele>639.4140625</ele>
        <time>2014-03-29T05:44:25Z</time>
      </trkpt>
      <trkpt lat="44.33362" lon="2.63698">
        <ele>642.2980957</ele>
        <time>2014-03-29T05:44:31Z</time>
      </trkpt>
      <trkpt lat="44.33359" lon="2.63707">
        <ele>644.7011719</ele>
        <time>2014-03-29T05:44:35Z</time>
      </trkpt>
      <trkpt lat="44.33356" lon="2.63715">
        <ele>645.6625977</ele>
        <time>2014-03-29T05:44:39Z</time>
      </trkpt>
      <trkpt lat="44.33353" lon="2.63727">
        <ele>646.6240234</ele>
        <time>2014-03-29T05:44:44Z</time>
      </trkpt>
      <trkpt lat="44.3335" lon="2.63742">
        <ele>647.5852051</ele>
        <time>2014-03-29T05:44:50Z</time>
      </trkpt>
      <trkpt lat="44.33346" lon="2.63757">
        <ele>649.9885254</ele>
        <time>2014-03-29T05:44:56Z</time>
      </trkpt>
      <trkpt lat="44.33342" lon="2.63769">
        <ele>651.4304199</ele>
        <time>2014-03-29T05:45:01Z</time>
      </trkpt>
      <trkpt lat="44.33337" lon="2.63785">
        <ele>652.8725586</ele>
        <time>2014-03-29T05:45:08Z</time>
      </trkpt>
      <trkpt lat="44.33333" lon="2.63799">
        <ele>654.3146973</ele>
        <time>2014-03-29T05:45:14Z</time>
      </trkpt>
      <trkpt lat="44.33329" lon="2.63812">
        <ele>655.7565918</ele>
        <time>2014-03-29T05:45:19Z</time>
      </trkpt>
      <trkpt lat="44.33325" lon="2.63827">
        <ele>655.2758789</ele>
        <time>2014-03-29T05:45:25Z</time>
      </trkpt>
      <trkpt lat="44.33321" lon="2.63843">
        <ele>656.7177734</ele>
        <time>2014-03-29T05:45:30Z</time>
      </trkpt>
      <trkpt lat="44.33318" lon="2.63858">
        <ele>657.6791992</ele>
        <time>2014-03-29T05:45:36Z</time>
      </trkpt>
      <trkpt lat="44.33316" lon="2.63871">
        <ele>657.6791992</ele>
        <time>2014-03-29T05:45:41Z</time>
      </trkpt>
      <trkpt lat="44.33312" lon="2.63889">
        <ele>658.1599121</ele>
        <time>2014-03-29T05:45:48Z</time>
      </trkpt>
      <trkpt lat="44.33308" lon="2.63904">
        <ele>658.6403809</ele>
        <time>2014-03-29T05:45:54Z</time>
      </trkpt>
      <trkpt lat="44.33304" lon="2.63921">
        <ele>659.1210938</ele>
        <time>2014-03-29T05:46:00Z</time>
      </trkpt>
      <trkpt lat="44.33301" lon="2.63935">
        <ele>658.6403809</ele>
        <time>2014-03-29T05:46:05Z</time>
      </trkpt>
      <trkpt lat="44.333" lon="2.63947">
        <ele>658.1599121</ele>
        <time>2014-03-29T05:46:10Z</time>
      </trkpt>
      <trkpt lat="44.33298" lon="2.63962">
        <ele>658.6403809</ele>
        <time>2014-03-29T05:46:15Z</time>
      </trkpt>
      <trkpt lat="44.33297" lon="2.63974">
        <ele>658.1599121</ele>
        <time>2014-03-29T05:46:19Z</time>
      </trkpt>
      <trkpt lat="44.33294" lon="2.63987">
        <ele>658.6403809</ele>
        <time>2014-03-29T05:46:24Z</time>
      </trkpt>
      <trkpt lat="44.33291" lon="2.64001">
        <ele>658.1599121</ele>
        <time>2014-03-29T05:46:29Z</time>
      </trkpt>
      <trkpt lat="44.33288" lon="2.64013">
        <ele>658.1599121</ele>
        <time>2014-03-29T05:46:34Z</time>
      </trkpt>
      <trkpt lat="44.33283" lon="2.64029">
        <ele>658.6403809</ele>
        <time>2014-03-29T05:46:40Z</time>
      </trkpt>
      <trkpt lat="44.3328" lon="2.64047">
        <ele>659.1210938</ele>
        <time>2014-03-29T05:46:46Z</time>
      </trkpt>
      <trkpt lat="44.33278" lon="2.64067">
        <ele>658.6403809</ele>
        <time>2014-03-29T05:46:53Z</time>
      </trkpt>
      <trkpt lat="44.33276" lon="2.64082">
        <ele>659.6018066</ele>
        <time>2014-03-29T05:46:58Z</time>
      </trkpt>
      <trkpt lat="44.33273" lon="2.64097">
        <ele>659.6018066</ele>
        <time>2014-03-29T05:47:03Z</time>
      </trkpt>
      <trkpt lat="44.33269" lon="2.64117">
        <ele>661.0437012</ele>
        <time>2014-03-29T05:47:10Z</time>
      </trkpt>
      <trkpt lat="44.33265" lon="2.64134">
        <ele>662.005127</ele>
        <time>2014-03-29T05:47:16Z</time>
      </trkpt>
      <trkpt lat="44.33263" lon="2.64146">
        <ele>661.5244141</ele>
        <time>2014-03-29T05:47:20Z</time>
      </trkpt>
      <trkpt lat="44.33259" lon="2.64162">
        <ele>661.0437012</ele>
        <time>2014-03-29T05:47:25Z</time>
      </trkpt>
      <trkpt lat="44.33255" lon="2.64179">
        <ele>662.4855957</ele>
        <time>2014-03-29T05:47:31Z</time>
      </trkpt>
      <trkpt lat="44.3325" lon="2.64194">
        <ele>663.4470215</ele>
        <time>2014-03-29T05:47:36Z</time>
      </trkpt>
      <trkpt lat="44.33243" lon="2.64215">
        <ele>664.4082031</ele>
        <time>2014-03-29T05:47:43Z</time>
      </trkpt>
      <trkpt lat="44.33238" lon="2.64227">
        <ele>664.888916</ele>
        <time>2014-03-29T05:47:48Z</time>
      </trkpt>
      <trkpt lat="44.33233" lon="2.64243">
        <ele>665.3696289</ele>
        <time>2014-03-29T05:47:53Z</time>
      </trkpt>
      <trkpt lat="44.33227" lon="2.64258">
        <ele>666.8115234</ele>
        <time>2014-03-29T05:47:58Z</time>
      </trkpt>
      <trkpt lat="44.33221" lon="2.64273">
        <ele>667.7727051</ele>
        <time>2014-03-29T05:48:04Z</time>
      </trkpt>
      <trkpt lat="44.33214" lon="2.64292">
        <ele>668.734375</ele>
        <time>2014-03-29T05:48:12Z</time>
      </trkpt>
      <trkpt lat="44.3321" lon="2.64303">
        <ele>669.2150879</ele>
        <time>2014-03-29T05:48:16Z</time>
      </trkpt>
      <trkpt lat="44.33201" lon="2.64325">
        <ele>670.1762695</ele>
        <time>2014-03-29T05:48:24Z</time>
      </trkpt>
      <trkpt lat="44.33199" lon="2.6433">
        <ele>670.6569824</ele>
        <time>2014-03-29T05:48:28Z</time>
      </trkpt>
      <trkpt lat="44.33199" lon="2.6433">
        <ele>670.6569824</ele>
        <time>2014-03-29T05:48:36Z</time>
      </trkpt>
      <trkpt lat="44.33198" lon="2.64332">
        <ele>671.1376953</ele>
        <time>2014-03-29T05:48:42Z</time>
      </trkpt>
      <trkpt lat="44.33196" lon="2.64336">
        <ele>671.6181641</ele>
        <time>2014-03-29T05:48:51Z</time>
      </trkpt>
      <trkpt lat="44.33193" lon="2.64343">
        <ele>671.6181641</ele>
        <time>2014-03-29T05:48:58Z</time>
      </trkpt>
      <trkpt lat="44.33188" lon="2.64359">
        <ele>671.6181641</ele>
        <time>2014-03-29T05:49:03Z</time>
      </trkpt>
      <trkpt lat="44.33182" lon="2.64375">
        <ele>671.1376953</ele>
        <time>2014-03-29T05:49:08Z</time>
      </trkpt>
      <trkpt lat="44.33178" lon="2.64387">
        <ele>670.6569824</ele>
        <time>2014-03-29T05:49:12Z</time>
      </trkpt>
      <trkpt lat="44.33173" lon="2.64405">
        <ele>670.6569824</ele>
        <time>2014-03-29T05:49:17Z</time>
      </trkpt>
      <trkpt lat="44.3317" lon="2.64415">
        <ele>670.1762695</ele>
        <time>2014-03-29T05:49:20Z</time>
      </trkpt>
      <trkpt lat="44.33166" lon="2.64428">
        <ele>668.734375</ele>
        <time>2014-03-29T05:49:24Z</time>
      </trkpt>
      <trkpt lat="44.33163" lon="2.64446">
        <ele>667.7727051</ele>
        <time>2014-03-29T05:49:29Z</time>
      </trkpt>
      <trkpt lat="44.33158" lon="2.64463">
        <ele>667.2922363</ele>
        <time>2014-03-29T05:49:34Z</time>
      </trkpt>
      <trkpt lat="44.33151" lon="2.64481">
        <ele>668.734375</ele>
        <time>2014-03-29T05:49:40Z</time>
      </trkpt>
      <trkpt lat="44.33145" lon="2.64498">
        <ele>669.6958008</ele>
        <time>2014-03-29T05:49:45Z</time>
      </trkpt>
      <trkpt lat="44.33139" lon="2.64512">
        <ele>671.1376953</ele>
        <time>2014-03-29T05:49:50Z</time>
      </trkpt>
      <trkpt lat="44.33132" lon="2.64529">
        <ele>672.5795898</ele>
        <time>2014-03-29T05:49:55Z</time>
      </trkpt>
      <trkpt lat="44.33128" lon="2.64541">
        <ele>672.5795898</ele>
        <time>2014-03-29T05:49:59Z</time>
      </trkpt>
      <trkpt lat="44.33121" lon="2.6456">
        <ele>673.0603027</ele>
        <time>2014-03-29T05:50:05Z</time>
      </trkpt>
      <trkpt lat="44.33118" lon="2.64569">
        <ele>672.5795898</ele>
        <time>2014-03-29T05:50:08Z</time>
      </trkpt>
      <trkpt lat="44.33111" lon="2.64582">
        <ele>673.0603027</ele>
        <time>2014-03-29T05:50:13Z</time>
      </trkpt>
      <trkpt lat="44.33108" lon="2.64591">
        <ele>673.0603027</ele>
        <time>2014-03-29T05:50:16Z</time>
      </trkpt>
      <trkpt lat="44.33106" lon="2.64605">
        <ele>673.0603027</ele>
        <time>2014-03-29T05:50:21Z</time>
      </trkpt>
      <trkpt lat="44.33104" lon="2.64621">
        <ele>670.6569824</ele>
        <time>2014-03-29T05:50:26Z</time>
      </trkpt>
      <trkpt lat="44.33101" lon="2.6464">
        <ele>669.6958008</ele>
        <time>2014-03-29T05:50:32Z</time>
      </trkpt>
      <trkpt lat="44.33098" lon="2.64653">
        <ele>669.2150879</ele>
        <time>2014-03-29T05:50:36Z</time>
      </trkpt>
      <trkpt lat="44.33094" lon="2.64671">
        <ele>668.734375</ele>
        <time>2014-03-29T05:50:41Z</time>
      </trkpt>
      <trkpt lat="44.33092" lon="2.64684">
        <ele>667.7727051</ele>
        <time>2014-03-29T05:50:45Z</time>
      </trkpt>
      <trkpt lat="44.33088" lon="2.64701">
        <ele>667.2922363</ele>
        <time>2014-03-29T05:50:50Z</time>
      </trkpt>
      <trkpt lat="44.33082" lon="2.64723">
        <ele>666.3308105</ele>
        <time>2014-03-29T05:50:56Z</time>
      </trkpt>
      <trkpt lat="44.33078" lon="2.64741">
        <ele>663.9274902</ele>
        <time>2014-03-29T05:51:02Z</time>
      </trkpt>
      <trkpt lat="44.33076" lon="2.64748">
        <ele>663.4470215</ele>
        <time>2014-03-29T05:51:04Z</time>
      </trkpt>
      <trkpt lat="44.33073" lon="2.64766">
        <ele>663.4470215</ele>
        <time>2014-03-29T05:51:09Z</time>
      </trkpt>
      <trkpt lat="44.33073" lon="2.6478">
        <ele>663.4470215</ele>
        <time>2014-03-29T05:51:13Z</time>
      </trkpt>
      <trkpt lat="44.33072" lon="2.64797">
        <ele>662.9663086</ele>
        <time>2014-03-29T05:51:18Z</time>
      </trkpt>
      <trkpt lat="44.33069" lon="2.64817">
        <ele>662.9663086</ele>
        <time>2014-03-29T05:51:23Z</time>
      </trkpt>
      <trkpt lat="44.33065" lon="2.64836">
        <ele>662.9663086</ele>
        <time>2014-03-29T05:51:28Z</time>
      </trkpt>
      <trkpt lat="44.33058" lon="2.64848">
        <ele>662.005127</ele>
        <time>2014-03-29T05:51:32Z</time>
      </trkpt>
      <trkpt lat="44.33049" lon="2.6485">
        <ele>662.4855957</ele>
        <time>2014-03-29T05:51:36Z</time>
      </trkpt>
      <trkpt lat="44.33036" lon="2.64849">
        <ele>662.4855957</ele>
        <time>2014-03-29T05:51:41Z</time>
      </trkpt>
      <trkpt lat="44.33022" lon="2.64843">
        <ele>662.9663086</ele>
        <time>2014-03-29T05:51:47Z</time>
      </trkpt>
      <trkpt lat="44.33007" lon="2.64841">
        <ele>663.9274902</ele>
        <time>2014-03-29T05:51:53Z</time>
      </trkpt>
      <trkpt lat="44.32992" lon="2.64837">
        <ele>665.8503418</ele>
        <time>2014-03-29T05:51:59Z</time>
      </trkpt>
      <trkpt lat="44.32988" lon="2.64836">
        <ele>666.8115234</ele>
        <time>2014-03-29T05:52:01Z</time>
      </trkpt>
      <trkpt lat="44.32966" lon="2.64831">
        <ele>667.7727051</ele>
        <time>2014-03-29T05:52:09Z</time>
      </trkpt>
      <trkpt lat="44.32955" lon="2.64829">
        <ele>668.734375</ele>
        <time>2014-03-29T05:52:13Z</time>
      </trkpt>
      <trkpt lat="44.32942" lon="2.64826">
        <ele>668.734375</ele>
        <time>2014-03-29T05:52:18Z</time>
      </trkpt>
      <trkpt lat="44.32926" lon="2.64824">
        <ele>669.6958008</ele>
        <time>2014-03-29T05:52:24Z</time>
      </trkpt>
      <trkpt lat="44.32913" lon="2.64822">
        <ele>668.734375</ele>
        <time>2014-03-29T05:52:29Z</time>
      </trkpt>
      <trkpt lat="44.32903" lon="2.64821">
        <ele>668.2536621</ele>
        <time>2014-03-29T05:52:33Z</time>
      </trkpt>
      <trkpt lat="44.32887" lon="2.64816">
        <ele>667.2922363</ele>
        <time>2014-03-29T05:52:39Z</time>
      </trkpt>
      <trkpt lat="44.32874" lon="2.64813">
        <ele>666.3308105</ele>
        <time>2014-03-29T05:52:44Z</time>
      </trkpt>
      <trkpt lat="44.32859" lon="2.6481">
        <ele>663.9274902</ele>
        <time>2014-03-29T05:52:50Z</time>
      </trkpt>
      <trkpt lat="44.32846" lon="2.64807">
        <ele>661.0437012</ele>
        <time>2014-03-29T05:52:55Z</time>
      </trkpt>
      <trkpt lat="44.32836" lon="2.64804">
        <ele>659.1210938</ele>
        <time>2014-03-29T05:53:01Z</time>
      </trkpt>
      <trkpt lat="44.32827" lon="2.64803">
        <ele>659.1210938</ele>
        <time>2014-03-29T05:53:05Z</time>
      </trkpt>
      <trkpt lat="44.32814" lon="2.64799">
        <ele>658.1599121</ele>
        <time>2014-03-29T05:53:10Z</time>
      </trkpt>
      <trkpt lat="44.328" lon="2.64796">
        <ele>657.6791992</ele>
        <time>2014-03-29T05:53:15Z</time>
      </trkpt>
      <trkpt lat="44.32785" lon="2.64793">
        <ele>655.2758789</ele>
        <time>2014-03-29T05:53:20Z</time>
      </trkpt>
      <trkpt lat="44.32773" lon="2.64793">
        <ele>653.3532715</ele>
        <time>2014-03-29T05:53:24Z</time>
      </trkpt>
      <trkpt lat="44.32762" lon="2.64793">
        <ele>649.5078125</ele>
        <time>2014-03-29T05:53:28Z</time>
      </trkpt>
      <trkpt lat="44.32756" lon="2.64793">
        <ele>648.5463867</ele>
        <time>2014-03-29T05:53:30Z</time>
      </trkpt>
      <trkpt lat="44.32744" lon="2.64792">
        <ele>648.065918</ele>
        <time>2014-03-29T05:53:34Z</time>
      </trkpt>
      <trkpt lat="44.32741" lon="2.64791">
        <ele>647.1044922</ele>
        <time>2014-03-29T05:53:35Z</time>
      </trkpt>
      <trkpt lat="44.32724" lon="2.64791">
        <ele>645.6625977</ele>
        <time>2014-03-29T05:53:41Z</time>
      </trkpt>
      <trkpt lat="44.3271" lon="2.64789">
        <ele>643.2592773</ele>
        <time>2014-03-29T05:53:46Z</time>
      </trkpt>
      <trkpt lat="44.32698" lon="2.64784">
        <ele>641.3366699</ele>
        <time>2014-03-29T05:53:51Z</time>
      </trkpt>
      <trkpt lat="44.32687" lon="2.64782">
        <ele>640.855957</ele>
        <time>2014-03-29T05:53:56Z</time>
      </trkpt>
      <trkpt lat="44.32676" lon="2.64782">
        <ele>640.855957</ele>
        <time>2014-03-29T05:54:01Z</time>
      </trkpt>
      <trkpt lat="44.32664" lon="2.64783">
        <ele>641.3366699</ele>
        <time>2014-03-29T05:54:06Z</time>
      </trkpt>
      <trkpt lat="44.32652" lon="2.64783">
        <ele>641.3366699</ele>
        <time>2014-03-29T05:54:11Z</time>
      </trkpt>
      <trkpt lat="44.32636" lon="2.64788">
        <ele>643.7399902</ele>
        <time>2014-03-29T05:54:18Z</time>
      </trkpt>
      <trkpt lat="44.32626" lon="2.64793">
        <ele>644.2207031</ele>
        <time>2014-03-29T05:54:23Z</time>
      </trkpt>
      <trkpt lat="44.32617" lon="2.64797">
        <ele>644.7011719</ele>
        <time>2014-03-29T05:54:27Z</time>
      </trkpt>
      <trkpt lat="44.3261" lon="2.648">
        <ele>645.1818848</ele>
        <time>2014-03-29T05:54:30Z</time>
      </trkpt>
      <trkpt lat="44.32598" lon="2.648">
        <ele>647.1044922</ele>
        <time>2014-03-29T05:54:36Z</time>
      </trkpt>
      <trkpt lat="44.32589" lon="2.64799">
        <ele>649.0270996</ele>
        <time>2014-03-29T05:54:41Z</time>
      </trkpt>
      <trkpt lat="44.32581" lon="2.64801">
        <ele>650.4692383</ele>
        <time>2014-03-29T05:54:44Z</time>
      </trkpt>
      <trkpt lat="44.32569" lon="2.64801">
        <ele>652.3918457</ele>
        <time>2014-03-29T05:54:49Z</time>
      </trkpt>
      <trkpt lat="44.32557" lon="2.64802">
        <ele>652.3918457</ele>
        <time>2014-03-29T05:54:54Z</time>
      </trkpt>
      <trkpt lat="44.32555" lon="2.64802">
        <ele>652.3918457</ele>
        <time>2014-03-29T05:54:55Z</time>
      </trkpt>
      <trkpt lat="44.32543" lon="2.64801">
        <ele>653.3532715</ele>
        <time>2014-03-29T05:55:00Z</time>
      </trkpt>
      <trkpt lat="44.32541" lon="2.64801">
        <ele>652.8725586</ele>
        <time>2014-03-29T05:55:01Z</time>
      </trkpt>
      <trkpt lat="44.32528" lon="2.648">
        <ele>651.9111328</ele>
        <time>2014-03-29T05:55:07Z</time>
      </trkpt>
      <trkpt lat="44.32515" lon="2.648">
        <ele>652.8725586</ele>
        <time>2014-03-29T05:55:13Z</time>
      </trkpt>
      <trkpt lat="44.32513" lon="2.64799">
        <ele>653.3532715</ele>
        <time>2014-03-29T05:55:14Z</time>
      </trkpt>
      <trkpt lat="44.32501" lon="2.64796">
        <ele>655.7565918</ele>
        <time>2014-03-29T05:55:20Z</time>
      </trkpt>
      <trkpt lat="44.3249" lon="2.64794">
        <ele>656.7177734</ele>
        <time>2014-03-29T05:55:25Z</time>
      </trkpt>
      <trkpt lat="44.32486" lon="2.64793">
        <ele>656.7177734</ele>
        <time>2014-03-29T05:55:27Z</time>
      </trkpt>
      <trkpt lat="44.32478" lon="2.64789">
        <ele>657.1984863</ele>
        <time>2014-03-29T05:55:32Z</time>
      </trkpt>
      <trkpt lat="44.32471" lon="2.64783">
        <ele>657.6791992</ele>
        <time>2014-03-29T05:55:38Z</time>
      </trkpt>
      <trkpt lat="44.32462" lon="2.64778">
        <ele>658.1599121</ele>
        <time>2014-03-29T05:55:42Z</time>
      </trkpt>
      <trkpt lat="44.32449" lon="2.64773">
        <ele>659.1210938</ele>
        <time>2014-03-29T05:55:48Z</time>
      </trkpt>
      <trkpt lat="44.32438" lon="2.64769">
        <ele>660.0822754</ele>
        <time>2014-03-29T05:55:53Z</time>
      </trkpt>
      <trkpt lat="44.32427" lon="2.64764">
        <ele>661.0437012</ele>
        <time>2014-03-29T05:55:58Z</time>
      </trkpt>
      <trkpt lat="44.32414" lon="2.64758">
        <ele>661.5244141</ele>
        <time>2014-03-29T05:56:04Z</time>
      </trkpt>
      <trkpt lat="44.32404" lon="2.64751">
        <ele>662.4855957</ele>
        <time>2014-03-29T05:56:09Z</time>
      </trkpt>
      <trkpt lat="44.32387" lon="2.64747">
        <ele>664.4082031</ele>
        <time>2014-03-29T05:56:16Z</time>
      </trkpt>
      <trkpt lat="44.32378" lon="2.64747">
        <ele>665.3696289</ele>
        <time>2014-03-29T05:56:20Z</time>
      </trkpt>
      <trkpt lat="44.3237" lon="2.64748">
        <ele>665.8503418</ele>
        <time>2014-03-29T05:56:23Z</time>
      </trkpt>
      <trkpt lat="44.3236" lon="2.64748">
        <ele>666.8115234</ele>
        <time>2014-03-29T05:56:28Z</time>
      </trkpt>
      <trkpt lat="44.32351" lon="2.64752">
        <ele>667.2922363</ele>
        <time>2014-03-29T05:56:32Z</time>
      </trkpt>
      <trkpt lat="44.32349" lon="2.64754">
        <ele>668.2536621</ele>
        <time>2014-03-29T05:56:36Z</time>
      </trkpt>
      <trkpt lat="44.32341" lon="2.64758">
        <ele>667.2922363</ele>
        <time>2014-03-29T05:56:41Z</time>
      </trkpt>
      <trkpt lat="44.32334" lon="2.64766">
        <ele>666.8115234</ele>
        <time>2014-03-29T05:56:47Z</time>
      </trkpt>
      <trkpt lat="44.32327" lon="2.64778">
        <ele>667.2922363</ele>
        <time>2014-03-29T05:56:53Z</time>
      </trkpt>
      <trkpt lat="44.3232" lon="2.64792">
        <ele>669.2150879</ele>
        <time>2014-03-29T05:56:58Z</time>
      </trkpt>
      <trkpt lat="44.32311" lon="2.64809">
        <ele>670.1762695</ele>
        <time>2014-03-29T05:57:04Z</time>
      </trkpt>
      <trkpt lat="44.32306" lon="2.64819">
        <ele>670.6569824</ele>
        <time>2014-03-29T05:57:08Z</time>
      </trkpt>
      <trkpt lat="44.32296" lon="2.64816">
        <ele>671.1376953</ele>
        <time>2014-03-29T05:57:13Z</time>
      </trkpt>
      <trkpt lat="44.32294" lon="2.64813">
        <ele>670.6569824</ele>
        <time>2014-03-29T05:57:14Z</time>
      </trkpt>
      <trkpt lat="44.32287" lon="2.64793">
        <ele>670.6569824</ele>
        <time>2014-03-29T05:57:20Z</time>
      </trkpt>
      <trkpt lat="44.32279" lon="2.64773">
        <ele>670.1762695</ele>
        <time>2014-03-29T05:57:26Z</time>
      </trkpt>
      <trkpt lat="44.32273" lon="2.64751">
        <ele>670.6569824</ele>
        <time>2014-03-29T05:57:32Z</time>
      </trkpt>
      <trkpt lat="44.3227" lon="2.64732">
        <ele>671.6181641</ele>
        <time>2014-03-29T05:57:37Z</time>
      </trkpt>
      <trkpt lat="44.32264" lon="2.64711">
        <ele>673.5410156</ele>
        <time>2014-03-29T05:57:43Z</time>
      </trkpt>
      <trkpt lat="44.32257" lon="2.64697">
        <ele>675.4633789</ele>
        <time>2014-03-29T05:57:48Z</time>
      </trkpt>
      <trkpt lat="44.32246" lon="2.64683">
        <ele>676.4248047</ele>
        <time>2014-03-29T05:57:54Z</time>
      </trkpt>
      <trkpt lat="44.32237" lon="2.64674">
        <ele>677.3862305</ele>
        <time>2014-03-29T05:57:59Z</time>
      </trkpt>
      <trkpt lat="44.32225" lon="2.64666">
        <ele>679.7893066</ele>
        <time>2014-03-29T05:58:05Z</time>
      </trkpt>
      <trkpt lat="44.32211" lon="2.64661">
        <ele>682.6733398</ele>
        <time>2014-03-29T05:58:11Z</time>
      </trkpt>
      <trkpt lat="44.32197" lon="2.64657">
        <ele>683.6345215</ele>
        <time>2014-03-29T05:58:17Z</time>
      </trkpt>
      <trkpt lat="44.32184" lon="2.64654">
        <ele>684.1154785</ele>
        <time>2014-03-29T05:58:23Z</time>
      </trkpt>
      <trkpt lat="44.3217" lon="2.64652">
        <ele>685.557373</ele>
        <time>2014-03-29T05:58:29Z</time>
      </trkpt>
      <trkpt lat="44.32157" lon="2.6465">
        <ele>686.5187988</ele>
        <time>2014-03-29T05:58:35Z</time>
      </trkpt>
      <trkpt lat="44.32145" lon="2.64647">
        <ele>686.9992676</ele>
        <time>2014-03-29T05:58:40Z</time>
      </trkpt>
      <trkpt lat="44.3213" lon="2.64646">
        <ele>686.0380859</ele>
        <time>2014-03-29T05:58:46Z</time>
      </trkpt>
      <trkpt lat="44.32117" lon="2.64645">
        <ele>686.0380859</ele>
        <time>2014-03-29T05:58:51Z</time>
      </trkpt>
      <trkpt lat="44.32101" lon="2.64642">
        <ele>687.9606934</ele>
        <time>2014-03-29T05:58:57Z</time>
      </trkpt>
      <trkpt lat="44.32085" lon="2.64639">
        <ele>687.4799805</ele>
        <time>2014-03-29T05:59:03Z</time>
      </trkpt>
      <trkpt lat="44.32071" lon="2.64636">
        <ele>686.9992676</ele>
        <time>2014-03-29T05:59:08Z</time>
      </trkpt>
      <trkpt lat="44.32056" lon="2.64634">
        <ele>687.4799805</ele>
        <time>2014-03-29T05:59:13Z</time>
      </trkpt>
      <trkpt lat="44.32042" lon="2.64632">
        <ele>686.5187988</ele>
        <time>2014-03-29T05:59:18Z</time>
      </trkpt>
      <trkpt lat="44.3203" lon="2.64631">
        <ele>686.0380859</ele>
        <time>2014-03-29T05:59:22Z</time>
      </trkpt>
      <trkpt lat="44.32016" lon="2.6463">
        <ele>684.1154785</ele>
        <time>2014-03-29T05:59:27Z</time>
      </trkpt>
      <trkpt lat="44.32" lon="2.64624">
        <ele>680.2700195</ele>
        <time>2014-03-29T05:59:33Z</time>
      </trkpt>
      <trkpt lat="44.31977" lon="2.64616">
        <ele>674.0214844</ele>
        <time>2014-03-29T05:59:41Z</time>
      </trkpt>
      <trkpt lat="44.31963" lon="2.64613">
        <ele>672.5795898</ele>
        <time>2014-03-29T05:59:46Z</time>
      </trkpt>
      <trkpt lat="44.31952" lon="2.6461">
        <ele>671.6181641</ele>
        <time>2014-03-29T05:59:50Z</time>
      </trkpt>
      <trkpt lat="44.31936" lon="2.64606">
        <ele>668.2536621</ele>
        <time>2014-03-29T05:59:56Z</time>
      </trkpt>
      <trkpt lat="44.31919" lon="2.64608">
        <ele>667.2922363</ele>
        <time>2014-03-29T06:00:02Z</time>
      </trkpt>
      <trkpt lat="44.31905" lon="2.64611">
        <ele>667.2922363</ele>
        <time>2014-03-29T06:00:07Z</time>
      </trkpt>
      <trkpt lat="44.3189" lon="2.64616">
        <ele>667.7727051</ele>
        <time>2014-03-29T06:00:13Z</time>
      </trkpt>
      <trkpt lat="44.31877" lon="2.64616">
        <ele>667.2922363</ele>
        <time>2014-03-29T06:00:18Z</time>
      </trkpt>
      <trkpt lat="44.31867" lon="2.64609">
        <ele>665.3696289</ele>
        <time>2014-03-29T06:00:23Z</time>
      </trkpt>
      <trkpt lat="44.31858" lon="2.646">
        <ele>665.8503418</ele>
        <time>2014-03-29T06:00:27Z</time>
      </trkpt>
      <trkpt lat="44.3185" lon="2.64589">
        <ele>665.8503418</ele>
        <time>2014-03-29T06:00:31Z</time>
      </trkpt>
      <trkpt lat="44.31842" lon="2.64576">
        <ele>665.8503418</ele>
        <time>2014-03-29T06:00:36Z</time>
      </trkpt>
      <trkpt lat="44.3183" lon="2.64557">
        <ele>664.888916</ele>
        <time>2014-03-29T06:00:43Z</time>
      </trkpt>
      <trkpt lat="44.31816" lon="2.64541">
        <ele>663.4470215</ele>
        <time>2014-03-29T06:00:50Z</time>
      </trkpt>
      <trkpt lat="44.31805" lon="2.64536">
        <ele>663.9274902</ele>
        <time>2014-03-29T06:00:54Z</time>
      </trkpt>
      <trkpt lat="44.31789" lon="2.64526">
        <ele>663.9274902</ele>
        <time>2014-03-29T06:01:01Z</time>
      </trkpt>
      <trkpt lat="44.31778" lon="2.64522">
        <ele>663.9274902</ele>
        <time>2014-03-29T06:01:05Z</time>
      </trkpt>
      <trkpt lat="44.31762" lon="2.64518">
        <ele>662.9663086</ele>
        <time>2014-03-29T06:01:11Z</time>
      </trkpt>
      <trkpt lat="44.31747" lon="2.64517">
        <ele>661.5244141</ele>
        <time>2014-03-29T06:01:16Z</time>
      </trkpt>
      <trkpt lat="44.31734" lon="2.64516">
        <ele>659.6018066</ele>
        <time>2014-03-29T06:01:21Z</time>
      </trkpt>
      <trkpt lat="44.31719" lon="2.64515">
        <ele>657.1984863</ele>
        <time>2014-03-29T06:01:26Z</time>
      </trkpt>
      <trkpt lat="44.31705" lon="2.64514">
        <ele>655.2758789</ele>
        <time>2014-03-29T06:01:31Z</time>
      </trkpt>
      <trkpt lat="44.3169" lon="2.6451">
        <ele>652.8725586</ele>
        <time>2014-03-29T06:01:36Z</time>
      </trkpt>
      <trkpt lat="44.31677" lon="2.64506">
        <ele>650.4692383</ele>
        <time>2014-03-29T06:01:41Z</time>
      </trkpt>
      <trkpt lat="44.31663" lon="2.64499">
        <ele>649.5078125</ele>
        <time>2014-03-29T06:01:46Z</time>
      </trkpt>
      <trkpt lat="44.31652" lon="2.64489">
        <ele>648.065918</ele>
        <time>2014-03-29T06:01:51Z</time>
      </trkpt>
      <trkpt lat="44.3164" lon="2.64482">
        <ele>645.1818848</ele>
        <time>2014-03-29T06:01:56Z</time>
      </trkpt>
      <trkpt lat="44.31632" lon="2.64484">
        <ele>643.2592773</ele>
        <time>2014-03-29T06:01:59Z</time>
      </trkpt>
      <trkpt lat="44.31622" lon="2.64502">
        <ele>642.2980957</ele>
        <time>2014-03-29T06:02:04Z</time>
      </trkpt>
      <trkpt lat="44.31611" lon="2.64522">
        <ele>639.8947754</ele>
        <time>2014-03-29T06:02:10Z</time>
      </trkpt>
      <trkpt lat="44.31598" lon="2.64544">
        <ele>638.4528809</ele>
        <time>2014-03-29T06:02:17Z</time>
      </trkpt>
      <trkpt lat="44.31589" lon="2.64557">
        <ele>637.972168</ele>
        <time>2014-03-29T06:02:22Z</time>
      </trkpt>
      <trkpt lat="44.3158" lon="2.64566">
        <ele>637.4914551</ele>
        <time>2014-03-29T06:02:26Z</time>
      </trkpt>
      <trkpt lat="44.31568" lon="2.64576">
        <ele>637.972168</ele>
        <time>2014-03-29T06:02:31Z</time>
      </trkpt>
      <trkpt lat="44.31566" lon="2.64591">
        <ele>638.9335938</ele>
        <time>2014-03-29T06:02:36Z</time>
      </trkpt>
      <trkpt lat="44.31568" lon="2.64614">
        <ele>638.4528809</ele>
        <time>2014-03-29T06:02:43Z</time>
      </trkpt>
      <trkpt lat="44.31568" lon="2.6463">
        <ele>639.8947754</ele>
        <time>2014-03-29T06:02:48Z</time>
      </trkpt>
      <trkpt lat="44.31567" lon="2.64646">
        <ele>642.7788086</ele>
        <time>2014-03-29T06:02:54Z</time>
      </trkpt>
      <trkpt lat="44.3156" lon="2.64663">
        <ele>644.2207031</ele>
        <time>2014-03-29T06:03:00Z</time>
      </trkpt>
      <trkpt lat="44.31554" lon="2.64674">
        <ele>646.1433105</ele>
        <time>2014-03-29T06:03:05Z</time>
      </trkpt>
      <trkpt lat="44.31547" lon="2.64687">
        <ele>647.1044922</ele>
        <time>2014-03-29T06:03:10Z</time>
      </trkpt>
      <trkpt lat="44.31542" lon="2.64703">
        <ele>647.5852051</ele>
        <time>2014-03-29T06:03:15Z</time>
      </trkpt>
      <trkpt lat="44.31543" lon="2.64718">
        <ele>648.065918</ele>
        <time>2014-03-29T06:03:20Z</time>
      </trkpt>
      <trkpt lat="44.31543" lon="2.64721">
        <ele>648.065918</ele>
        <time>2014-03-29T06:03:21Z</time>
      </trkpt>
      <trkpt lat="44.31551" lon="2.64732">
        <ele>649.0270996</ele>
        <time>2014-03-29T06:03:26Z</time>
      </trkpt>
      <trkpt lat="44.31552" lon="2.64738">
        <ele>649.5078125</ele>
        <time>2014-03-29T06:03:28Z</time>
      </trkpt>
      <trkpt lat="44.31555" lon="2.64741">
        <ele>649.0270996</ele>
        <time>2014-03-29T06:03:30Z</time>
      </trkpt>
      <trkpt lat="44.31561" lon="2.64755">
        <ele>650.4692383</ele>
        <time>2014-03-29T06:03:36Z</time>
      </trkpt>
      <trkpt lat="44.31562" lon="2.6476">
        <ele>650.949707</ele>
        <time>2014-03-29T06:03:38Z</time>
      </trkpt>
      <trkpt lat="44.31566" lon="2.64782">
        <ele>653.3532715</ele>
        <time>2014-03-29T06:03:46Z</time>
      </trkpt>
      <trkpt lat="44.31569" lon="2.64799">
        <ele>655.7565918</ele>
        <time>2014-03-29T06:03:52Z</time>
      </trkpt>
      <trkpt lat="44.31569" lon="2.64813">
        <ele>657.1984863</ele>
        <time>2014-03-29T06:03:57Z</time>
      </trkpt>
      <trkpt lat="44.31568" lon="2.64834">
        <ele>657.6791992</ele>
        <time>2014-03-29T06:04:04Z</time>
      </trkpt>
      <trkpt lat="44.31568" lon="2.64852">
        <ele>658.6403809</ele>
        <time>2014-03-29T06:04:10Z</time>
      </trkpt>
      <trkpt lat="44.3157" lon="2.64868">
        <ele>660.5629883</ele>
        <time>2014-03-29T06:04:16Z</time>
      </trkpt>
      <trkpt lat="44.31573" lon="2.64884">
        <ele>663.9274902</ele>
        <time>2014-03-29T06:04:23Z</time>
      </trkpt>
      <trkpt lat="44.31576" lon="2.64896">
        <ele>666.3308105</ele>
        <time>2014-03-29T06:04:29Z</time>
      </trkpt>
      <trkpt lat="44.31578" lon="2.64911">
        <ele>670.1762695</ele>
        <time>2014-03-29T06:04:36Z</time>
      </trkpt>
      <trkpt lat="44.31578" lon="2.64924">
        <ele>672.098877</ele>
        <time>2014-03-29T06:04:41Z</time>
      </trkpt>
      <trkpt lat="44.31577" lon="2.64928">
        <ele>672.5795898</ele>
        <time>2014-03-29T06:04:43Z</time>
      </trkpt>
      <trkpt lat="44.31578" lon="2.64938">
        <ele>674.9829102</ele>
        <time>2014-03-29T06:04:48Z</time>
      </trkpt>
      <trkpt lat="44.31577" lon="2.64956">
        <ele>677.8666992</ele>
        <time>2014-03-29T06:04:57Z</time>
      </trkpt>
      <trkpt lat="44.31576" lon="2.64958">
        <ele>677.8666992</ele>
        <time>2014-03-29T06:04:58Z</time>
      </trkpt>
      <trkpt lat="44.31577" lon="2.64975">
        <ele>678.828125</ele>
        <time>2014-03-29T06:05:05Z</time>
      </trkpt>
      <trkpt lat="44.31577" lon="2.64982">
        <ele>678.828125</ele>
        <time>2014-03-29T06:05:07Z</time>
      </trkpt>
      <trkpt lat="44.31574" lon="2.64994">
        <ele>678.3474121</ele>
        <time>2014-03-29T06:05:11Z</time>
      </trkpt>
      <trkpt lat="44.31561" lon="2.65017">
        <ele>680.2700195</ele>
        <time>2014-03-29T06:05:19Z</time>
      </trkpt>
      <trkpt lat="44.3155" lon="2.65029">
        <ele>681.2314453</ele>
        <time>2014-03-29T06:05:24Z</time>
      </trkpt>
      <trkpt lat="44.31538" lon="2.65039">
        <ele>681.7119141</ele>
        <time>2014-03-29T06:05:29Z</time>
      </trkpt>
      <trkpt lat="44.31526" lon="2.65048">
        <ele>682.6733398</ele>
        <time>2014-03-29T06:05:34Z</time>
      </trkpt>
      <trkpt lat="44.31517" lon="2.65054">
        <ele>683.1538086</ele>
        <time>2014-03-29T06:05:38Z</time>
      </trkpt>
      <trkpt lat="44.31504" lon="2.65059">
        <ele>684.5961914</ele>
        <time>2014-03-29T06:05:44Z</time>
      </trkpt>
      <trkpt lat="44.31494" lon="2.65064">
        <ele>685.557373</ele>
        <time>2014-03-29T06:05:49Z</time>
      </trkpt>
      <trkpt lat="44.31481" lon="2.65067">
        <ele>686.5187988</ele>
        <time>2014-03-29T06:05:55Z</time>
      </trkpt>
      <trkpt lat="44.31474" lon="2.65069">
        <ele>687.4799805</ele>
        <time>2014-03-29T06:05:59Z</time>
      </trkpt>
      <trkpt lat="44.31463" lon="2.65074">
        <ele>687.9606934</ele>
        <time>2014-03-29T06:06:05Z</time>
      </trkpt>
      <trkpt lat="44.31454" lon="2.65081">
        <ele>688.9221191</ele>
        <time>2014-03-29T06:06:10Z</time>
      </trkpt>
      <trkpt lat="44.31445" lon="2.65084">
        <ele>690.8444824</ele>
        <time>2014-03-29T06:06:15Z</time>
      </trkpt>
      <trkpt lat="44.31434" lon="2.65088">
        <ele>691.8059082</ele>
        <time>2014-03-29T06:06:20Z</time>
      </trkpt>
      <trkpt lat="44.31424" lon="2.65095">
        <ele>693.7285156</ele>
        <time>2014-03-29T06:06:25Z</time>
      </trkpt>
      <trkpt lat="44.31409" lon="2.65108">
        <ele>694.2092285</ele>
        <time>2014-03-29T06:06:33Z</time>
      </trkpt>
      <trkpt lat="44.31398" lon="2.65119">
        <ele>695.1704102</ele>
        <time>2014-03-29T06:06:39Z</time>
      </trkpt>
      <trkpt lat="44.31387" lon="2.65134">
        <ele>695.651123</ele>
        <time>2014-03-29T06:06:45Z</time>
      </trkpt>
      <trkpt lat="44.31379" lon="2.65143">
        <ele>696.1318359</ele>
        <time>2014-03-29T06:06:50Z</time>
      </trkpt>
      <trkpt lat="44.3137" lon="2.65156">
        <ele>696.1318359</ele>
        <time>2014-03-29T06:06:55Z</time>
      </trkpt>
      <trkpt lat="44.31359" lon="2.65173">
        <ele>696.1318359</ele>
        <time>2014-03-29T06:07:01Z</time>
      </trkpt>
      <trkpt lat="44.31349" lon="2.65186">
        <ele>697.0930176</ele>
        <time>2014-03-29T06:07:06Z</time>
      </trkpt>
      <trkpt lat="44.31339" lon="2.65199">
        <ele>698.0544434</ele>
        <time>2014-03-29T06:07:11Z</time>
      </trkpt>
      <trkpt lat="44.31325" lon="2.65215">
        <ele>699.9770508</ele>
        <time>2014-03-29T06:07:17Z</time>
      </trkpt>
      <trkpt lat="44.31313" lon="2.6523">
        <ele>701.8999023</ele>
        <time>2014-03-29T06:07:23Z</time>
      </trkpt>
      <trkpt lat="44.31301" lon="2.65244">
        <ele>702.861084</ele>
        <time>2014-03-29T06:07:29Z</time>
      </trkpt>
      <trkpt lat="44.3129" lon="2.65258">
        <ele>703.8225098</ele>
        <time>2014-03-29T06:07:35Z</time>
      </trkpt>
      <trkpt lat="44.31281" lon="2.65267">
        <ele>698.0544434</ele>
        <time>2014-03-29T06:07:40Z</time>
      </trkpt>
      <trkpt lat="44.31269" lon="2.65278">
        <ele>692.2866211</ele>
        <time>2014-03-29T06:07:46Z</time>
      </trkpt>
      <trkpt lat="44.31254" lon="2.65296">
        <ele>687.9606934</ele>
        <time>2014-03-29T06:07:53Z</time>
      </trkpt>
      <trkpt lat="44.3124" lon="2.6531">
        <ele>685.0769043</ele>
        <time>2014-03-29T06:07:59Z</time>
      </trkpt>
      <trkpt lat="44.31227" lon="2.65323">
        <ele>683.6345215</ele>
        <time>2014-03-29T06:08:04Z</time>
      </trkpt>
      <trkpt lat="44.31211" lon="2.65341">
        <ele>682.192627</ele>
        <time>2014-03-29T06:08:11Z</time>
      </trkpt>
      <trkpt lat="44.31198" lon="2.65359">
        <ele>679.3085938</ele>
        <time>2014-03-29T06:08:17Z</time>
      </trkpt>
      <trkpt lat="44.31188" lon="2.65369">
        <ele>678.3474121</ele>
        <time>2014-03-29T06:08:21Z</time>
      </trkpt>
      <trkpt lat="44.3118" lon="2.65373">
        <ele>677.8666992</ele>
        <time>2014-03-29T06:08:24Z</time>
      </trkpt>
      <trkpt lat="44.31163" lon="2.65374">
        <ele>674.5021973</ele>
        <time>2014-03-29T06:08:30Z</time>
      </trkpt>
      <trkpt lat="44.31161" lon="2.65375">
        <ele>673.5410156</ele>
        <time>2014-03-29T06:08:31Z</time>
      </trkpt>
      <trkpt lat="44.31146" lon="2.65375">
        <ele>669.2150879</ele>
        <time>2014-03-29T06:08:36Z</time>
      </trkpt>
      <trkpt lat="44.31136" lon="2.65373">
        <ele>666.8115234</ele>
        <time>2014-03-29T06:08:40Z</time>
      </trkpt>
      <trkpt lat="44.31122" lon="2.65368">
        <ele>663.9274902</ele>
        <time>2014-03-29T06:08:45Z</time>
      </trkpt>
      <trkpt lat="44.31106" lon="2.65362">
        <ele>659.1210938</ele>
        <time>2014-03-29T06:08:51Z</time>
      </trkpt>
      <trkpt lat="44.31092" lon="2.6536">
        <ele>657.1984863</ele>
        <time>2014-03-29T06:08:56Z</time>
      </trkpt>
      <trkpt lat="44.31081" lon="2.65361">
        <ele>654.3146973</ele>
        <time>2014-03-29T06:09:00Z</time>
      </trkpt>
      <trkpt lat="44.31068" lon="2.65366">
        <ele>653.3532715</ele>
        <time>2014-03-29T06:09:04Z</time>
      </trkpt>
      <trkpt lat="44.31052" lon="2.65373">
        <ele>652.3918457</ele>
        <time>2014-03-29T06:09:09Z</time>
      </trkpt>
      <trkpt lat="44.31035" lon="2.65384">
        <ele>651.4304199</ele>
        <time>2014-03-29T06:09:14Z</time>
      </trkpt>
      <trkpt lat="44.31024" lon="2.6539">
        <ele>650.4692383</ele>
        <time>2014-03-29T06:09:18Z</time>
      </trkpt>
      <trkpt lat="44.3101" lon="2.65398">
        <ele>649.9885254</ele>
        <time>2014-03-29T06:09:23Z</time>
      </trkpt>
      <trkpt lat="44.31004" lon="2.65401">
        <ele>649.0270996</ele>
        <time>2014-03-29T06:09:25Z</time>
      </trkpt>
      <trkpt lat="44.30993" lon="2.65408">
        <ele>646.6240234</ele>
        <time>2014-03-29T06:09:30Z</time>
      </trkpt>
      <trkpt lat="44.30984" lon="2.65417">
        <ele>646.6240234</ele>
        <time>2014-03-29T06:09:35Z</time>
      </trkpt>
      <trkpt lat="44.30981" lon="2.65419">
        <ele>646.1433105</ele>
        <time>2014-03-29T06:09:36Z</time>
      </trkpt>
      <trkpt lat="44.30969" lon="2.65425">
        <ele>644.2207031</ele>
        <time>2014-03-29T06:09:41Z</time>
      </trkpt>
      <trkpt lat="44.30961" lon="2.65433">
        <ele>641.8173828</ele>
        <time>2014-03-29T06:09:44Z</time>
      </trkpt>
      <trkpt lat="44.30947" lon="2.65438">
        <ele>637.4914551</ele>
        <time>2014-03-29T06:09:50Z</time>
      </trkpt>
      <trkpt lat="44.30933" lon="2.65448">
        <ele>636.0495605</ele>
        <time>2014-03-29T06:09:56Z</time>
      </trkpt>
      <trkpt lat="44.30921" lon="2.65451">
        <ele>635.0881348</ele>
        <time>2014-03-29T06:10:01Z</time>
      </trkpt>
      <trkpt lat="44.30912" lon="2.65471">
        <ele>634.126709</ele>
        <time>2014-03-29T06:10:07Z</time>
      </trkpt>
      <trkpt lat="44.30907" lon="2.65484">
        <ele>632.6848145</ele>
        <time>2014-03-29T06:10:11Z</time>
      </trkpt>
      <trkpt lat="44.30896" lon="2.65496">
        <ele>631.2429199</ele>
        <time>2014-03-29T06:10:16Z</time>
      </trkpt>
      <trkpt lat="44.30884" lon="2.65503">
        <ele>630.762207</ele>
        <time>2014-03-29T06:10:21Z</time>
      </trkpt>
      <trkpt lat="44.3088" lon="2.65504">
        <ele>630.2814941</ele>
        <time>2014-03-29T06:10:23Z</time>
      </trkpt>
      <trkpt lat="44.3087" lon="2.6551">
        <ele>630.762207</ele>
        <time>2014-03-29T06:10:28Z</time>
      </trkpt>
      <trkpt lat="44.30867" lon="2.65511">
        <ele>630.2814941</ele>
        <time>2014-03-29T06:10:29Z</time>
      </trkpt>
      <trkpt lat="44.30847" lon="2.65513">
        <ele>627.8781738</ele>
        <time>2014-03-29T06:10:36Z</time>
      </trkpt>
      <trkpt lat="44.30833" lon="2.65518">
        <ele>626.9169922</ele>
        <time>2014-03-29T06:10:41Z</time>
      </trkpt>
      <trkpt lat="44.3082" lon="2.65528">
        <ele>628.3588867</ele>
        <time>2014-03-29T06:10:46Z</time>
      </trkpt>
      <trkpt lat="44.30812" lon="2.65532">
        <ele>628.3588867</ele>
        <time>2014-03-29T06:10:50Z</time>
      </trkpt>
      <trkpt lat="44.30809" lon="2.65531">
        <ele>628.3588867</ele>
        <time>2014-03-29T06:10:51Z</time>
      </trkpt>
      <trkpt lat="44.30796" lon="2.65535">
        <ele>627.8781738</ele>
        <time>2014-03-29T06:10:56Z</time>
      </trkpt>
      <trkpt lat="44.3078" lon="2.65546">
        <ele>626.9169922</ele>
        <time>2014-03-29T06:11:02Z</time>
      </trkpt>
      <trkpt lat="44.30776" lon="2.6555">
        <ele>626.4362793</ele>
        <time>2014-03-29T06:11:04Z</time>
      </trkpt>
      <trkpt lat="44.30765" lon="2.65558">
        <ele>627.3977051</ele>
        <time>2014-03-29T06:11:09Z</time>
      </trkpt>
      <trkpt lat="44.3076" lon="2.65559">
        <ele>627.3977051</ele>
        <time>2014-03-29T06:11:11Z</time>
      </trkpt>
      <trkpt lat="44.30747" lon="2.65558">
        <ele>627.8781738</ele>
        <time>2014-03-29T06:11:16Z</time>
      </trkpt>
      <trkpt lat="44.30745" lon="2.65557">
        <ele>627.8781738</ele>
        <time>2014-03-29T06:11:17Z</time>
      </trkpt>
      <trkpt lat="44.30737" lon="2.65567">
        <ele>628.8395996</ele>
        <time>2014-03-29T06:11:22Z</time>
      </trkpt>
      <trkpt lat="44.30724" lon="2.65588">
        <ele>631.7233887</ele>
        <time>2014-03-29T06:11:29Z</time>
      </trkpt>
      <trkpt lat="44.30714" lon="2.65602">
        <ele>630.2814941</ele>
        <time>2014-03-29T06:11:34Z</time>
      </trkpt>
      <trkpt lat="44.30702" lon="2.65608">
        <ele>630.762207</ele>
        <time>2014-03-29T06:11:39Z</time>
      </trkpt>
      <trkpt lat="44.30691" lon="2.656">
        <ele>629.8007813</ele>
        <time>2014-03-29T06:11:44Z</time>
      </trkpt>
      <trkpt lat="44.3068" lon="2.65588">
        <ele>629.3200684</ele>
        <time>2014-03-29T06:11:49Z</time>
      </trkpt>
      <trkpt lat="44.30671" lon="2.65578">
        <ele>628.8395996</ele>
        <time>2014-03-29T06:11:53Z</time>
      </trkpt>
      <trkpt lat="44.30666" lon="2.65574">
        <ele>627.8781738</ele>
        <time>2014-03-29T06:11:56Z</time>
      </trkpt>
      <trkpt lat="44.30664" lon="2.65574">
        <ele>628.3588867</ele>
        <time>2014-03-29T06:11:59Z</time>
      </trkpt>
      <trkpt lat="44.30657" lon="2.65576">
        <ele>628.8395996</ele>
        <time>2014-03-29T06:12:04Z</time>
      </trkpt>
      <trkpt lat="44.30649" lon="2.65582">
        <ele>629.3200684</ele>
        <time>2014-03-29T06:12:08Z</time>
      </trkpt>
      <trkpt lat="44.30637" lon="2.6559">
        <ele>630.2814941</ele>
        <time>2014-03-29T06:12:13Z</time>
      </trkpt>
      <trkpt lat="44.30626" lon="2.65596">
        <ele>631.7233887</ele>
        <time>2014-03-29T06:12:18Z</time>
      </trkpt>
      <trkpt lat="44.30613" lon="2.65605">
        <ele>633.6459961</ele>
        <time>2014-03-29T06:12:24Z</time>
      </trkpt>
      <trkpt lat="44.30601" lon="2.6561">
        <ele>634.126709</ele>
        <time>2014-03-29T06:12:29Z</time>
      </trkpt>
      <trkpt lat="44.30589" lon="2.65612">
        <ele>635.5686035</ele>
        <time>2014-03-29T06:12:34Z</time>
      </trkpt>
      <trkpt lat="44.30576" lon="2.65613">
        <ele>637.0107422</ele>
        <time>2014-03-29T06:12:40Z</time>
      </trkpt>
      <trkpt lat="44.30559" lon="2.65611">
        <ele>637.972168</ele>
        <time>2014-03-29T06:12:47Z</time>
      </trkpt>
      <trkpt lat="44.3055" lon="2.65606">
        <ele>636.5302734</ele>
        <time>2014-03-29T06:12:51Z</time>
      </trkpt>
      <trkpt lat="44.30543" lon="2.65603">
        <ele>636.5302734</ele>
        <time>2014-03-29T06:12:54Z</time>
      </trkpt>
      <trkpt lat="44.30532" lon="2.65597">
        <ele>638.4528809</ele>
        <time>2014-03-29T06:12:59Z</time>
      </trkpt>
      <trkpt lat="44.30518" lon="2.65592">
        <ele>638.9335938</ele>
        <time>2014-03-29T06:13:05Z</time>
      </trkpt>
      <trkpt lat="44.30507" lon="2.65586">
        <ele>638.9335938</ele>
        <time>2014-03-29T06:13:10Z</time>
      </trkpt>
      <trkpt lat="44.30498" lon="2.65582">
        <ele>638.9335938</ele>
        <time>2014-03-29T06:13:14Z</time>
      </trkpt>
      <trkpt lat="44.30485" lon="2.65582">
        <ele>638.9335938</ele>
        <time>2014-03-29T06:13:19Z</time>
      </trkpt>
      <trkpt lat="44.30476" lon="2.65584">
        <ele>640.3754883</ele>
        <time>2014-03-29T06:13:23Z</time>
      </trkpt>
      <trkpt lat="44.30462" lon="2.65589">
        <ele>642.2980957</ele>
        <time>2014-03-29T06:13:29Z</time>
      </trkpt>
      <trkpt lat="44.3045" lon="2.65594">
        <ele>643.2592773</ele>
        <time>2014-03-29T06:13:34Z</time>
      </trkpt>
      <trkpt lat="44.30437" lon="2.65598">
        <ele>644.2207031</ele>
        <time>2014-03-29T06:13:39Z</time>
      </trkpt>
      <trkpt lat="44.30423" lon="2.65598">
        <ele>646.1433105</ele>
        <time>2014-03-29T06:13:46Z</time>
      </trkpt>
      <trkpt lat="44.30409" lon="2.65595">
        <ele>648.065918</ele>
        <time>2014-03-29T06:13:52Z</time>
      </trkpt>
      <trkpt lat="44.30397" lon="2.65588">
        <ele>649.5078125</ele>
        <time>2014-03-29T06:13:58Z</time>
      </trkpt>
      <trkpt lat="44.30387" lon="2.65581">
        <ele>650.949707</ele>
        <time>2014-03-29T06:14:03Z</time>
      </trkpt>
      <trkpt lat="44.30377" lon="2.65569">
        <ele>652.3918457</ele>
        <time>2014-03-29T06:14:10Z</time>
      </trkpt>
      <trkpt lat="44.30364" lon="2.65557">
        <ele>653.8339844</ele>
        <time>2014-03-29T06:14:18Z</time>
      </trkpt>
      <trkpt lat="44.30357" lon="2.6555">
        <ele>653.3532715</ele>
        <time>2014-03-29T06:14:22Z</time>
      </trkpt>
      <trkpt lat="44.30351" lon="2.65545">
        <ele>654.3146973</ele>
        <time>2014-03-29T06:14:25Z</time>
      </trkpt>
      <trkpt lat="44.30338" lon="2.65537">
        <ele>655.2758789</ele>
        <time>2014-03-29T06:14:31Z</time>
      </trkpt>
      <trkpt lat="44.30328" lon="2.65531">
        <ele>656.2370605</ele>
        <time>2014-03-29T06:14:36Z</time>
      </trkpt>
      <trkpt lat="44.30322" lon="2.65527">
        <ele>657.1984863</ele>
        <time>2014-03-29T06:14:39Z</time>
      </trkpt>
      <trkpt lat="44.30311" lon="2.65523">
        <ele>658.6403809</ele>
        <time>2014-03-29T06:14:44Z</time>
      </trkpt>
      <trkpt lat="44.303" lon="2.65519">
        <ele>660.0822754</ele>
        <time>2014-03-29T06:14:49Z</time>
      </trkpt>
      <trkpt lat="44.30285" lon="2.6551">
        <ele>660.5629883</ele>
        <time>2014-03-29T06:14:56Z</time>
      </trkpt>
      <trkpt lat="44.30273" lon="2.65502">
        <ele>661.0437012</ele>
        <time>2014-03-29T06:15:02Z</time>
      </trkpt>
      <trkpt lat="44.30266" lon="2.65498">
        <ele>662.4855957</ele>
        <time>2014-03-29T06:15:05Z</time>
      </trkpt>
      <trkpt lat="44.30259" lon="2.65493">
        <ele>663.9274902</ele>
        <time>2014-03-29T06:15:09Z</time>
      </trkpt>
      <trkpt lat="44.30244" lon="2.65484">
        <ele>666.8115234</ele>
        <time>2014-03-29T06:15:16Z</time>
      </trkpt>
      <trkpt lat="44.30232" lon="2.65476">
        <ele>667.2922363</ele>
        <time>2014-03-29T06:15:21Z</time>
      </trkpt>
      <trkpt lat="44.3022" lon="2.65465">
        <ele>668.734375</ele>
        <time>2014-03-29T06:15:27Z</time>
      </trkpt>
      <trkpt lat="44.30206" lon="2.65452">
        <ele>669.2150879</ele>
        <time>2014-03-29T06:15:34Z</time>
      </trkpt>
      <trkpt lat="44.30196" lon="2.65442">
        <ele>670.1762695</ele>
        <time>2014-03-29T06:15:39Z</time>
      </trkpt>
      <trkpt lat="44.30183" lon="2.6543">
        <ele>670.1762695</ele>
        <time>2014-03-29T06:15:45Z</time>
      </trkpt>
      <trkpt lat="44.30173" lon="2.65421">
        <ele>670.6569824</ele>
        <time>2014-03-29T06:15:50Z</time>
      </trkpt>
      <trkpt lat="44.30161" lon="2.65414">
        <ele>670.1762695</ele>
        <time>2014-03-29T06:15:55Z</time>
      </trkpt>
      <trkpt lat="44.30149" lon="2.65411">
        <ele>671.1376953</ele>
        <time>2014-03-29T06:16:00Z</time>
      </trkpt>
      <trkpt lat="44.30138" lon="2.65406">
        <ele>671.1376953</ele>
        <time>2014-03-29T06:16:05Z</time>
      </trkpt>
      <trkpt lat="44.30129" lon="2.65404">
        <ele>671.1376953</ele>
        <time>2014-03-29T06:16:09Z</time>
      </trkpt>
      <trkpt lat="44.30114" lon="2.65403">
        <ele>671.1376953</ele>
        <time>2014-03-29T06:16:15Z</time>
      </trkpt>
      <trkpt lat="44.30101" lon="2.65401">
        <ele>670.6569824</ele>
        <time>2014-03-29T06:16:21Z</time>
      </trkpt>
      <trkpt lat="44.30088" lon="2.65396">
        <ele>669.2150879</ele>
        <time>2014-03-29T06:16:27Z</time>
      </trkpt>
      <trkpt lat="44.30077" lon="2.65388">
        <ele>669.2150879</ele>
        <time>2014-03-29T06:16:32Z</time>
      </trkpt>
      <trkpt lat="44.30064" lon="2.65375">
        <ele>670.1762695</ele>
        <time>2014-03-29T06:16:38Z</time>
      </trkpt>
      <trkpt lat="44.30055" lon="2.65363">
        <ele>672.5795898</ele>
        <time>2014-03-29T06:16:43Z</time>
      </trkpt>
      <trkpt lat="44.30043" lon="2.65349">
        <ele>673.5410156</ele>
        <time>2014-03-29T06:16:49Z</time>
      </trkpt>
      <trkpt lat="44.30034" lon="2.65338">
        <ele>674.5021973</ele>
        <time>2014-03-29T06:16:54Z</time>
      </trkpt>
      <trkpt lat="44.30023" lon="2.65324">
        <ele>674.5021973</ele>
        <time>2014-03-29T06:17:00Z</time>
      </trkpt>
      <trkpt lat="44.30014" lon="2.65313">
        <ele>675.4633789</ele>
        <time>2014-03-29T06:17:04Z</time>
      </trkpt>
      <trkpt lat="44.30008" lon="2.65308">
        <ele>674.9829102</ele>
        <time>2014-03-29T06:17:07Z</time>
      </trkpt>
      <trkpt lat="44.30001" lon="2.65312">
        <ele>674.5021973</ele>
        <time>2014-03-29T06:17:11Z</time>
      </trkpt>
      <trkpt lat="44.29995" lon="2.65328">
        <ele>675.4633789</ele>
        <time>2014-03-29T06:17:16Z</time>
      </trkpt>
      <trkpt lat="44.2999" lon="2.65352">
        <ele>676.4248047</ele>
        <time>2014-03-29T06:17:23Z</time>
      </trkpt>
      <trkpt lat="44.29986" lon="2.6537">
        <ele>676.4248047</ele>
        <time>2014-03-29T06:17:29Z</time>
      </trkpt>
      <trkpt lat="44.29981" lon="2.65386">
        <ele>676.9055176</ele>
        <time>2014-03-29T06:17:35Z</time>
      </trkpt>
      <trkpt lat="44.29979" lon="2.65395">
        <ele>676.9055176</ele>
        <time>2014-03-29T06:17:38Z</time>
      </trkpt>
      <trkpt lat="44.29973" lon="2.65414">
        <ele>677.8666992</ele>
        <time>2014-03-29T06:17:44Z</time>
      </trkpt>
      <trkpt lat="44.29967" lon="2.65431">
        <ele>678.3474121</ele>
        <time>2014-03-29T06:17:50Z</time>
      </trkpt>
      <trkpt lat="44.29962" lon="2.65448">
        <ele>679.7893066</ele>
        <time>2014-03-29T06:17:56Z</time>
      </trkpt>
      <trkpt lat="44.29956" lon="2.65464">
        <ele>679.7893066</ele>
        <time>2014-03-29T06:18:02Z</time>
      </trkpt>
      <trkpt lat="44.29948" lon="2.65482">
        <ele>680.2700195</ele>
        <time>2014-03-29T06:18:09Z</time>
      </trkpt>
      <trkpt lat="44.2994" lon="2.65497">
        <ele>681.2314453</ele>
        <time>2014-03-29T06:18:15Z</time>
      </trkpt>
      <trkpt lat="44.2993" lon="2.65516">
        <ele>682.192627</ele>
        <time>2014-03-29T06:18:22Z</time>
      </trkpt>
      <trkpt lat="44.29921" lon="2.65527">
        <ele>682.192627</ele>
        <time>2014-03-29T06:18:27Z</time>
      </trkpt>
      <trkpt lat="44.2991" lon="2.65541">
        <ele>684.1154785</ele>
        <time>2014-03-29T06:18:33Z</time>
      </trkpt>
      <trkpt lat="44.29895" lon="2.65557">
        <ele>687.9606934</ele>
        <time>2014-03-29T06:18:40Z</time>
      </trkpt>
      <trkpt lat="44.29885" lon="2.65566">
        <ele>688.4414063</ele>
        <time>2014-03-29T06:18:45Z</time>
      </trkpt>
      <trkpt lat="44.29872" lon="2.65576">
        <ele>689.8833008</ele>
        <time>2014-03-29T06:18:51Z</time>
      </trkpt>
      <trkpt lat="44.29856" lon="2.65588">
        <ele>691.8059082</ele>
        <time>2014-03-29T06:18:59Z</time>
      </trkpt>
      <trkpt lat="44.29841" lon="2.65601">
        <ele>692.2866211</ele>
        <time>2014-03-29T06:19:06Z</time>
      </trkpt>
      <trkpt lat="44.29836" lon="2.65606">
        <ele>692.2866211</ele>
        <time>2014-03-29T06:19:09Z</time>
      </trkpt>
      <trkpt lat="44.29826" lon="2.65615">
        <ele>692.2866211</ele>
        <time>2014-03-29T06:19:14Z</time>
      </trkpt>
      <trkpt lat="44.29817" lon="2.65622">
        <ele>692.2866211</ele>
        <time>2014-03-29T06:19:19Z</time>
      </trkpt>
      <trkpt lat="44.29809" lon="2.6563">
        <ele>692.2866211</ele>
        <time>2014-03-29T06:19:24Z</time>
      </trkpt>
      <trkpt lat="44.29801" lon="2.65636">
        <ele>693.7285156</ele>
        <time>2014-03-29T06:19:29Z</time>
      </trkpt>
      <trkpt lat="44.29794" lon="2.65639">
        <ele>694.2092285</ele>
        <time>2014-03-29T06:19:34Z</time>
      </trkpt>
      <trkpt lat="44.29785" lon="2.65647">
        <ele>697.0930176</ele>
        <time>2014-03-29T06:19:40Z</time>
      </trkpt>
      <trkpt lat="44.29776" lon="2.65652">
        <ele>699.015625</ele>
        <time>2014-03-29T06:19:46Z</time>
      </trkpt>
      <trkpt lat="44.29766" lon="2.65655">
        <ele>699.4963379</ele>
        <time>2014-03-29T06:19:52Z</time>
      </trkpt>
      <trkpt lat="44.29762" lon="2.65654">
        <ele>700.4580078</ele>
        <time>2014-03-29T06:19:54Z</time>
      </trkpt>
      <trkpt lat="44.29751" lon="2.65655">
        <ele>702.861084</ele>
        <time>2014-03-29T06:20:00Z</time>
      </trkpt>
      <trkpt lat="44.29742" lon="2.65659">
        <ele>703.3417969</ele>
        <time>2014-03-29T06:20:04Z</time>
      </trkpt>
      <trkpt lat="44.29736" lon="2.65659">
        <ele>703.8225098</ele>
        <time>2014-03-29T06:20:07Z</time>
      </trkpt>
      <trkpt lat="44.29729" lon="2.65664">
        <ele>704.7836914</ele>
        <time>2014-03-29T06:20:12Z</time>
      </trkpt>
      <trkpt lat="44.29723" lon="2.65668">
        <ele>705.7451172</ele>
        <time>2014-03-29T06:20:17Z</time>
      </trkpt>
      <trkpt lat="44.29716" lon="2.65675">
        <ele>707.1870117</ele>
        <time>2014-03-29T06:20:23Z</time>
      </trkpt>
      <trkpt lat="44.29708" lon="2.65685">
        <ele>711.5129395</ele>
        <time>2014-03-29T06:20:31Z</time>
      </trkpt>
      <trkpt lat="44.29707" lon="2.65686">
        <ele>711.5129395</ele>
        <time>2014-03-29T06:20:32Z</time>
      </trkpt>
      <trkpt lat="44.29702" lon="2.65694">
        <ele>712.954834</ele>
        <time>2014-03-29T06:20:39Z</time>
      </trkpt>
      <trkpt lat="44.29701" lon="2.65696">
        <ele>712.954834</ele>
        <time>2014-03-29T06:20:40Z</time>
      </trkpt>
      <trkpt lat="44.29696" lon="2.65705">
        <ele>715.8388672</ele>
        <time>2014-03-29T06:20:46Z</time>
      </trkpt>
      <trkpt lat="44.29689" lon="2.65713">
        <ele>717.7614746</ele>
        <time>2014-03-29T06:20:53Z</time>
      </trkpt>
      <trkpt lat="44.29683" lon="2.65724">
        <ele>718.7229004</ele>
        <time>2014-03-29T06:21:00Z</time>
      </trkpt>
      <trkpt lat="44.29678" lon="2.65728">
        <ele>719.6843262</ele>
        <time>2014-03-29T06:21:04Z</time>
      </trkpt>
      <trkpt lat="44.29672" lon="2.65727">
        <ele>719.6843262</ele>
        <time>2014-03-29T06:21:08Z</time>
      </trkpt>
      <trkpt lat="44.2966" lon="2.6573">
        <ele>720.1647949</ele>
        <time>2014-03-29T06:21:13Z</time>
      </trkpt>
      <trkpt lat="44.29652" lon="2.65727">
        <ele>720.1647949</ele>
        <time>2014-03-29T06:21:17Z</time>
      </trkpt>
      <trkpt lat="44.2964" lon="2.6572">
        <ele>719.6843262</ele>
        <time>2014-03-29T06:21:23Z</time>
      </trkpt>
      <trkpt lat="44.29632" lon="2.65725">
        <ele>720.1647949</ele>
        <time>2014-03-29T06:21:27Z</time>
      </trkpt>
      <trkpt lat="44.29621" lon="2.65733">
        <ele>720.1647949</ele>
        <time>2014-03-29T06:21:32Z</time>
      </trkpt>
      <trkpt lat="44.29612" lon="2.6574">
        <ele>721.6066895</ele>
        <time>2014-03-29T06:21:36Z</time>
      </trkpt>
      <trkpt lat="44.29603" lon="2.65744">
        <ele>721.1262207</ele>
        <time>2014-03-29T06:21:40Z</time>
      </trkpt>
      <trkpt lat="44.29596" lon="2.65752">
        <ele>723.0488281</ele>
        <time>2014-03-29T06:21:44Z</time>
      </trkpt>
      <trkpt lat="44.29592" lon="2.65754">
        <ele>724.0100098</ele>
        <time>2014-03-29T06:21:46Z</time>
      </trkpt>
      <trkpt lat="44.29577" lon="2.65765">
        <ele>724.9714355</ele>
        <time>2014-03-29T06:21:53Z</time>
      </trkpt>
      <trkpt lat="44.29565" lon="2.65772">
        <ele>724.9714355</ele>
        <time>2014-03-29T06:21:58Z</time>
      </trkpt>
      <trkpt lat="44.29552" lon="2.65779">
        <ele>725.4519043</ele>
        <time>2014-03-29T06:22:04Z</time>
      </trkpt>
      <trkpt lat="44.29539" lon="2.65783">
        <ele>724.0100098</ele>
        <time>2014-03-29T06:22:09Z</time>
      </trkpt>
      <trkpt lat="44.29527" lon="2.6579">
        <ele>723.529541</ele>
        <time>2014-03-29T06:22:14Z</time>
      </trkpt>
      <trkpt lat="44.29512" lon="2.65797">
        <ele>722.5681152</ele>
        <time>2014-03-29T06:22:20Z</time>
      </trkpt>
      <trkpt lat="44.29499" lon="2.65801">
        <ele>720.6455078</ele>
        <time>2014-03-29T06:22:25Z</time>
      </trkpt>
      <trkpt lat="44.29487" lon="2.65806">
        <ele>718.2421875</ele>
        <time>2014-03-29T06:22:30Z</time>
      </trkpt>
      <trkpt lat="44.29484" lon="2.65807">
        <ele>718.2421875</ele>
        <time>2014-03-29T06:22:31Z</time>
      </trkpt>
      <trkpt lat="44.29469" lon="2.65813">
        <ele>717.2810059</ele>
        <time>2014-03-29T06:22:37Z</time>
      </trkpt>
      <trkpt lat="44.29456" lon="2.65823">
        <ele>716.3195801</ele>
        <time>2014-03-29T06:22:42Z</time>
      </trkpt>
      <trkpt lat="44.29442" lon="2.65839">
        <ele>717.2810059</ele>
        <time>2014-03-29T06:22:48Z</time>
      </trkpt>
      <trkpt lat="44.29433" lon="2.65852">
        <ele>719.6843262</ele>
        <time>2014-03-29T06:22:54Z</time>
      </trkpt>
      <trkpt lat="44.29424" lon="2.65867">
        <ele>719.2036133</ele>
        <time>2014-03-29T06:23:00Z</time>
      </trkpt>
      <trkpt lat="44.29421" lon="2.65871">
        <ele>718.7229004</ele>
        <time>2014-03-29T06:23:02Z</time>
      </trkpt>
      <trkpt lat="44.29414" lon="2.65878">
        <ele>720.1647949</ele>
        <time>2014-03-29T06:23:06Z</time>
      </trkpt>
      <trkpt lat="44.29404" lon="2.65883">
        <ele>717.7614746</ele>
        <time>2014-03-29T06:23:12Z</time>
      </trkpt>
      <trkpt lat="44.29401" lon="2.65883">
        <ele>716.3195801</ele>
        <time>2014-03-29T06:23:14Z</time>
      </trkpt>
      <trkpt lat="44.29391" lon="2.6589">
        <ele>717.7614746</ele>
        <time>2014-03-29T06:23:19Z</time>
      </trkpt>
      <trkpt lat="44.2938" lon="2.65894">
        <ele>716.3195801</ele>
        <time>2014-03-29T06:23:24Z</time>
      </trkpt>
      <trkpt lat="44.29376" lon="2.65896">
        <ele>716.3195801</ele>
        <time>2014-03-29T06:23:26Z</time>
      </trkpt>
      <trkpt lat="44.29364" lon="2.65898">
        <ele>717.7614746</ele>
        <time>2014-03-29T06:23:31Z</time>
      </trkpt>
      <trkpt lat="44.29352" lon="2.65904">
        <ele>718.7229004</ele>
        <time>2014-03-29T06:23:36Z</time>
      </trkpt>
      <trkpt lat="44.29336" lon="2.65903">
        <ele>717.2810059</ele>
        <time>2014-03-29T06:23:43Z</time>
      </trkpt>
      <trkpt lat="44.29329" lon="2.65902">
        <ele>717.2810059</ele>
        <time>2014-03-29T06:23:46Z</time>
      </trkpt>
      <trkpt lat="44.29313" lon="2.65902">
        <ele>718.7229004</ele>
        <time>2014-03-29T06:23:53Z</time>
      </trkpt>
      <trkpt lat="44.29298" lon="2.65911">
        <ele>719.2036133</ele>
        <time>2014-03-29T06:24:00Z</time>
      </trkpt>
      <trkpt lat="44.29287" lon="2.65923">
        <ele>720.1647949</ele>
        <time>2014-03-29T06:24:05Z</time>
      </trkpt>
      <trkpt lat="44.29278" lon="2.65937">
        <ele>720.1647949</ele>
        <time>2014-03-29T06:24:11Z</time>
      </trkpt>
      <trkpt lat="44.2927" lon="2.6595">
        <ele>722.0874023</ele>
        <time>2014-03-29T06:24:16Z</time>
      </trkpt>
      <trkpt lat="44.29262" lon="2.65962">
        <ele>722.0874023</ele>
        <time>2014-03-29T06:24:21Z</time>
      </trkpt>
      <trkpt lat="44.29255" lon="2.65974">
        <ele>720.6455078</ele>
        <time>2014-03-29T06:24:25Z</time>
      </trkpt>
      <trkpt lat="44.29249" lon="2.65986">
        <ele>720.6455078</ele>
        <time>2014-03-29T06:24:29Z</time>
      </trkpt>
      <trkpt lat="44.29243" lon="2.66">
        <ele>721.1262207</ele>
        <time>2014-03-29T06:24:33Z</time>
      </trkpt>
      <trkpt lat="44.29237" lon="2.66015">
        <ele>722.0874023</ele>
        <time>2014-03-29T06:24:37Z</time>
      </trkpt>
      <trkpt lat="44.29237" lon="2.6603">
        <ele>721.1262207</ele>
        <time>2014-03-29T06:24:42Z</time>
      </trkpt>
      <trkpt lat="44.29232" lon="2.66041">
        <ele>721.1262207</ele>
        <time>2014-03-29T06:24:45Z</time>
      </trkpt>
      <trkpt lat="44.29227" lon="2.6606">
        <ele>721.1262207</ele>
        <time>2014-03-29T06:24:50Z</time>
      </trkpt>
      <trkpt lat="44.29224" lon="2.6608">
        <ele>721.1262207</ele>
        <time>2014-03-29T06:24:55Z</time>
      </trkpt>
      <trkpt lat="44.29224" lon="2.66094">
        <ele>723.0488281</ele>
        <time>2014-03-29T06:25:00Z</time>
      </trkpt>
      <trkpt lat="44.29223" lon="2.66107">
        <ele>724.4907227</ele>
        <time>2014-03-29T06:25:04Z</time>
      </trkpt>
      <trkpt lat="44.29218" lon="2.66127">
        <ele>724.0100098</ele>
        <time>2014-03-29T06:25:09Z</time>
      </trkpt>
      <trkpt lat="44.29209" lon="2.66152">
        <ele>722.5681152</ele>
        <time>2014-03-29T06:25:16Z</time>
      </trkpt>
      <trkpt lat="44.29208" lon="2.66168">
        <ele>720.6455078</ele>
        <time>2014-03-29T06:25:20Z</time>
      </trkpt>
      <trkpt lat="44.29208" lon="2.66171">
        <ele>719.6843262</ele>
        <time>2014-03-29T06:25:21Z</time>
      </trkpt>
      <trkpt lat="44.29202" lon="2.66184">
        <ele>716.800293</ele>
        <time>2014-03-29T06:25:25Z</time>
      </trkpt>
      <trkpt lat="44.29191" lon="2.66198">
        <ele>714.8774414</ele>
        <time>2014-03-29T06:25:31Z</time>
      </trkpt>
      <trkpt lat="44.29181" lon="2.66208">
        <ele>714.3967285</ele>
        <time>2014-03-29T06:25:36Z</time>
      </trkpt>
      <trkpt lat="44.29173" lon="2.66219">
        <ele>712.954834</ele>
        <time>2014-03-29T06:25:41Z</time>
      </trkpt>
      <trkpt lat="44.29166" lon="2.66224">
        <ele>711.9936523</ele>
        <time>2014-03-29T06:25:44Z</time>
      </trkpt>
      <trkpt lat="44.2915" lon="2.66238">
        <ele>710.0708008</ele>
        <time>2014-03-29T06:25:50Z</time>
      </trkpt>
      <trkpt lat="44.29147" lon="2.6624">
        <ele>710.0708008</ele>
        <time>2014-03-29T06:25:51Z</time>
      </trkpt>
      <trkpt lat="44.29138" lon="2.66261">
        <ele>706.7062988</ele>
        <time>2014-03-29T06:25:57Z</time>
      </trkpt>
      <trkpt lat="44.29131" lon="2.66277">
        <ele>703.3417969</ele>
        <time>2014-03-29T06:26:02Z</time>
      </trkpt>
      <trkpt lat="44.29128" lon="2.66283">
        <ele>702.3803711</ele>
        <time>2014-03-29T06:26:04Z</time>
      </trkpt>
      <trkpt lat="44.2912" lon="2.66306">
        <ele>701.4191895</ele>
        <time>2014-03-29T06:26:10Z</time>
      </trkpt>
      <trkpt lat="44.29115" lon="2.6632">
        <ele>699.4963379</ele>
        <time>2014-03-29T06:26:14Z</time>
      </trkpt>
      <trkpt lat="44.29107" lon="2.66339">
        <ele>700.4580078</ele>
        <time>2014-03-29T06:26:20Z</time>
      </trkpt>
      <trkpt lat="44.29105" lon="2.66346">
        <ele>700.4580078</ele>
        <time>2014-03-29T06:26:22Z</time>
      </trkpt>
      <trkpt lat="44.29097" lon="2.66369">
        <ele>702.3803711</ele>
        <time>2014-03-29T06:26:28Z</time>
      </trkpt>
      <trkpt lat="44.29089" lon="2.66382">
        <ele>702.3803711</ele>
        <time>2014-03-29T06:26:33Z</time>
      </trkpt>
      <trkpt lat="44.29079" lon="2.66391">
        <ele>704.3032227</ele>
        <time>2014-03-29T06:26:37Z</time>
      </trkpt>
      <trkpt lat="44.29066" lon="2.66396">
        <ele>702.861084</ele>
        <time>2014-03-29T06:26:43Z</time>
      </trkpt>
      <trkpt lat="44.29055" lon="2.66401">
        <ele>701.4191895</ele>
        <time>2014-03-29T06:26:48Z</time>
      </trkpt>
      <trkpt lat="44.29045" lon="2.66407">
        <ele>700.4580078</ele>
        <time>2014-03-29T06:26:53Z</time>
      </trkpt>
      <trkpt lat="44.29032" lon="2.66413">
        <ele>702.3803711</ele>
        <time>2014-03-29T06:26:59Z</time>
      </trkpt>
      <trkpt lat="44.29024" lon="2.66417">
        <ele>702.861084</ele>
        <time>2014-03-29T06:27:04Z</time>
      </trkpt>
      <trkpt lat="44.29017" lon="2.66417">
        <ele>702.3803711</ele>
        <time>2014-03-29T06:27:09Z</time>
      </trkpt>
      <trkpt lat="44.29015" lon="2.66416">
        <ele>702.861084</ele>
        <time>2014-03-29T06:27:11Z</time>
      </trkpt>
      <trkpt lat="44.29009" lon="2.66416">
        <ele>704.3032227</ele>
        <time>2014-03-29T06:27:16Z</time>
      </trkpt>
      <trkpt lat="44.28997" lon="2.66412">
        <ele>706.2255859</ele>
        <time>2014-03-29T06:27:25Z</time>
      </trkpt>
      <trkpt lat="44.28988" lon="2.66409">
        <ele>709.1096191</ele>
        <time>2014-03-29T06:27:32Z</time>
      </trkpt>
      <trkpt lat="44.28979" lon="2.66406">
        <ele>710.5515137</ele>
        <time>2014-03-29T06:27:39Z</time>
      </trkpt>
      <trkpt lat="44.2897" lon="2.66401">
        <ele>711.9936523</ele>
        <time>2014-03-29T06:27:46Z</time>
      </trkpt>
      <trkpt lat="44.28967" lon="2.664">
        <ele>711.9936523</ele>
        <time>2014-03-29T06:27:48Z</time>
      </trkpt>
      <trkpt lat="44.28958" lon="2.66389">
        <ele>711.9936523</ele>
        <time>2014-03-29T06:27:56Z</time>
      </trkpt>
      <trkpt lat="44.28951" lon="2.66382">
        <ele>713.4355469</ele>
        <time>2014-03-29T06:28:03Z</time>
      </trkpt>
      <trkpt lat="44.28945" lon="2.66378">
        <ele>715.8388672</ele>
        <time>2014-03-29T06:28:08Z</time>
      </trkpt>
      <trkpt lat="44.28939" lon="2.66374">
        <ele>717.2810059</ele>
        <time>2014-03-29T06:28:14Z</time>
      </trkpt>
      <trkpt lat="44.28927" lon="2.66365">
        <ele>719.6843262</ele>
        <time>2014-03-29T06:28:25Z</time>
      </trkpt>
      <trkpt lat="44.28918" lon="2.66358">
        <ele>722.0874023</ele>
        <time>2014-03-29T06:28:32Z</time>
      </trkpt>
      <trkpt lat="44.28908" lon="2.6635">
        <ele>725.4519043</ele>
        <time>2014-03-29T06:28:41Z</time>
      </trkpt>
      <trkpt lat="44.28896" lon="2.66339">
        <ele>728.3359375</ele>
        <time>2014-03-29T06:28:51Z</time>
      </trkpt>
      <trkpt lat="44.28887" lon="2.66327">
        <ele>730.2585449</ele>
        <time>2014-03-29T06:28:59Z</time>
      </trkpt>
      <trkpt lat="44.28882" lon="2.66317">
        <ele>731.7004395</ele>
        <time>2014-03-29T06:29:05Z</time>
      </trkpt>
      <trkpt lat="44.28876" lon="2.66308">
        <ele>733.1425781</ele>
        <time>2014-03-29T06:29:11Z</time>
      </trkpt>
      <trkpt lat="44.2887" lon="2.66294">
        <ele>734.5847168</ele>
        <time>2014-03-29T06:29:19Z</time>
      </trkpt>
      <trkpt lat="44.28869" lon="2.66292">
        <ele>735.0654297</ele>
        <time>2014-03-29T06:29:20Z</time>
      </trkpt>
      <trkpt lat="44.28869" lon="2.66286">
        <ele>735.0654297</ele>
        <time>2014-03-29T06:29:23Z</time>
      </trkpt>
      <trkpt lat="44.2887" lon="2.66275">
        <ele>736.987793</ele>
        <time>2014-03-29T06:29:27Z</time>
      </trkpt>
      <trkpt lat="44.28877" lon="2.66265">
        <ele>735.5458984</ele>
        <time>2014-03-29T06:29:32Z</time>
      </trkpt>
      <trkpt lat="44.28887" lon="2.66257">
        <ele>734.5847168</ele>
        <time>2014-03-29T06:29:37Z</time>
      </trkpt>
      <trkpt lat="44.28896" lon="2.66244">
        <ele>733.1425781</ele>
        <time>2014-03-29T06:29:43Z</time>
      </trkpt>
      <trkpt lat="44.28902" lon="2.66228">
        <ele>735.0654297</ele>
        <time>2014-03-29T06:29:49Z</time>
      </trkpt>
      <trkpt lat="44.28907" lon="2.66216">
        <ele>736.5073242</ele>
        <time>2014-03-29T06:29:54Z</time>
      </trkpt>
      <trkpt lat="44.28913" lon="2.66202">
        <ele>736.0266113</ele>
        <time>2014-03-29T06:29:59Z</time>
      </trkpt>
      <trkpt lat="44.28915" lon="2.66185">
        <ele>735.5458984</ele>
        <time>2014-03-29T06:30:04Z</time>
      </trkpt>
      <trkpt lat="44.28914" lon="2.66168">
        <ele>737.4685059</ele>
        <time>2014-03-29T06:30:09Z</time>
      </trkpt>
      <trkpt lat="44.28908" lon="2.66154">
        <ele>736.987793</ele>
        <time>2014-03-29T06:30:14Z</time>
      </trkpt>
      <trkpt lat="44.28897" lon="2.6614">
        <ele>739.8718262</ele>
        <time>2014-03-29T06:30:20Z</time>
      </trkpt>
      <trkpt lat="44.28886" lon="2.66138">
        <ele>743.2363281</ele>
        <time>2014-03-29T06:30:25Z</time>
      </trkpt>
      <trkpt lat="44.28873" lon="2.6614">
        <ele>746.1203613</ele>
        <time>2014-03-29T06:30:31Z</time>
      </trkpt>
      <trkpt lat="44.28863" lon="2.66146">
        <ele>748.0432129</ele>
        <time>2014-03-29T06:30:36Z</time>
      </trkpt>
      <trkpt lat="44.28854" lon="2.66153">
        <ele>747.081543</ele>
        <time>2014-03-29T06:30:41Z</time>
      </trkpt>
      <trkpt lat="44.28847" lon="2.66159">
        <ele>747.081543</ele>
        <time>2014-03-29T06:30:44Z</time>
      </trkpt>
      <trkpt lat="44.28835" lon="2.66171">
        <ele>746.1203613</ele>
        <time>2014-03-29T06:30:51Z</time>
      </trkpt>
      <trkpt lat="44.28823" lon="2.66189">
        <ele>748.0432129</ele>
        <time>2014-03-29T06:30:57Z</time>
      </trkpt>
      <trkpt lat="44.28809" lon="2.66204">
        <ele>747.081543</ele>
        <time>2014-03-29T06:31:03Z</time>
      </trkpt>
      <trkpt lat="44.28798" lon="2.6622">
        <ele>747.5622559</ele>
        <time>2014-03-29T06:31:09Z</time>
      </trkpt>
      <trkpt lat="44.28793" lon="2.66237">
        <ele>748.5236816</ele>
        <time>2014-03-29T06:31:14Z</time>
      </trkpt>
      <trkpt lat="44.28788" lon="2.66253">
        <ele>748.5236816</ele>
        <time>2014-03-29T06:31:19Z</time>
      </trkpt>
      <trkpt lat="44.28784" lon="2.66267">
        <ele>749.0043945</ele>
        <time>2014-03-29T06:31:23Z</time>
      </trkpt>
      <trkpt lat="44.28778" lon="2.66285">
        <ele>747.5622559</ele>
        <time>2014-03-29T06:31:29Z</time>
      </trkpt>
      <trkpt lat="44.28772" lon="2.66303">
        <ele>746.6010742</ele>
        <time>2014-03-29T06:31:34Z</time>
      </trkpt>
      <trkpt lat="44.28766" lon="2.66321">
        <ele>746.1203613</ele>
        <time>2014-03-29T06:31:39Z</time>
      </trkpt>
      <trkpt lat="44.28759" lon="2.66343">
        <ele>744.1977539</ele>
        <time>2014-03-29T06:31:45Z</time>
      </trkpt>
      <trkpt lat="44.28754" lon="2.66359">
        <ele>743.2363281</ele>
        <time>2014-03-29T06:31:50Z</time>
      </trkpt>
      <trkpt lat="44.28747" lon="2.6638">
        <ele>742.2751465</ele>
        <time>2014-03-29T06:31:56Z</time>
      </trkpt>
      <trkpt lat="44.28739" lon="2.66401">
        <ele>738.9106445</ele>
        <time>2014-03-29T06:32:02Z</time>
      </trkpt>
      <trkpt lat="44.28732" lon="2.66421">
        <ele>736.0266113</ele>
        <time>2014-03-29T06:32:07Z</time>
      </trkpt>
      <trkpt lat="44.28726" lon="2.66448">
        <ele>733.623291</ele>
        <time>2014-03-29T06:32:14Z</time>
      </trkpt>
      <trkpt lat="44.28721" lon="2.66465">
        <ele>730.7392578</ele>
        <time>2014-03-29T06:32:19Z</time>
      </trkpt>
      <trkpt lat="44.28716" lon="2.66483">
        <ele>727.3747559</ele>
        <time>2014-03-29T06:32:24Z</time>
      </trkpt>
      <trkpt lat="44.2871" lon="2.665">
        <ele>726.894043</ele>
        <time>2014-03-29T06:32:29Z</time>
      </trkpt>
      <trkpt lat="44.287" lon="2.66513">
        <ele>724.9714355</ele>
        <time>2014-03-29T06:32:34Z</time>
      </trkpt>
      <trkpt lat="44.28689" lon="2.66523">
        <ele>725.9326172</ele>
        <time>2014-03-29T06:32:39Z</time>
      </trkpt>
      <trkpt lat="44.28677" lon="2.66531">
        <ele>724.9714355</ele>
        <time>2014-03-29T06:32:44Z</time>
      </trkpt>
      <trkpt lat="44.28675" lon="2.66532">
        <ele>725.4519043</ele>
        <time>2014-03-29T06:32:45Z</time>
      </trkpt>
      <trkpt lat="44.28666" lon="2.66541">
        <ele>724.9714355</ele>
        <time>2014-03-29T06:32:49Z</time>
      </trkpt>
      <trkpt lat="44.28655" lon="2.66559">
        <ele>726.4133301</ele>
        <time>2014-03-29T06:32:55Z</time>
      </trkpt>
      <trkpt lat="44.28651" lon="2.66567">
        <ele>726.894043</ele>
        <time>2014-03-29T06:32:58Z</time>
      </trkpt>
      <trkpt lat="44.28642" lon="2.66578">
        <ele>727.3747559</ele>
        <time>2014-03-29T06:33:04Z</time>
      </trkpt>
      <trkpt lat="44.28637" lon="2.66585">
        <ele>729.2971191</ele>
        <time>2014-03-29T06:33:06Z</time>
      </trkpt>
      <trkpt lat="44.28627" lon="2.66596">
        <ele>728.8166504</ele>
        <time>2014-03-29T06:33:13Z</time>
      </trkpt>
      <trkpt lat="44.28626" lon="2.66599">
        <ele>729.777832</ele>
        <time>2014-03-29T06:33:14Z</time>
      </trkpt>
      <trkpt lat="44.28623" lon="2.66616">
        <ele>732.1813965</ele>
        <time>2014-03-29T06:33:20Z</time>
      </trkpt>
      <trkpt lat="44.2862" lon="2.66628">
        <ele>733.623291</ele>
        <time>2014-03-29T06:33:25Z</time>
      </trkpt>
      <trkpt lat="44.28613" lon="2.6664">
        <ele>735.0654297</ele>
        <time>2014-03-29T06:33:31Z</time>
      </trkpt>
      <trkpt lat="44.28606" lon="2.66652">
        <ele>736.0266113</ele>
        <time>2014-03-29T06:33:36Z</time>
      </trkpt>
      <trkpt lat="44.28598" lon="2.6667">
        <ele>739.3911133</ele>
        <time>2014-03-29T06:33:41Z</time>
      </trkpt>
      <trkpt lat="44.28591" lon="2.66686">
        <ele>741.7944336</ele>
        <time>2014-03-29T06:33:46Z</time>
      </trkpt>
      <trkpt lat="44.28587" lon="2.667">
        <ele>742.7558594</ele>
        <time>2014-03-29T06:33:51Z</time>
      </trkpt>
      <trkpt lat="44.28584" lon="2.66715">
        <ele>743.2363281</ele>
        <time>2014-03-29T06:33:56Z</time>
      </trkpt>
      <trkpt lat="44.28578" lon="2.66728">
        <ele>744.1977539</ele>
        <time>2014-03-29T06:34:01Z</time>
      </trkpt>
      <trkpt lat="44.28569" lon="2.66737">
        <ele>743.2363281</ele>
        <time>2014-03-29T06:34:06Z</time>
      </trkpt>
      <trkpt lat="44.28561" lon="2.66743">
        <ele>742.7558594</ele>
        <time>2014-03-29T06:34:12Z</time>
      </trkpt>
      <trkpt lat="44.28552" lon="2.66759">
        <ele>744.1977539</ele>
        <time>2014-03-29T06:34:19Z</time>
      </trkpt>
      <trkpt lat="44.28546" lon="2.66766">
        <ele>745.6396484</ele>
        <time>2014-03-29T06:34:23Z</time>
      </trkpt>
      <trkpt lat="44.28538" lon="2.66774">
        <ele>745.1589355</ele>
        <time>2014-03-29T06:34:30Z</time>
      </trkpt>
      <trkpt lat="44.2853" lon="2.6678">
        <ele>746.1203613</ele>
        <time>2014-03-29T06:34:37Z</time>
      </trkpt>
      <trkpt lat="44.28525" lon="2.66783">
        <ele>745.6396484</ele>
        <time>2014-03-29T06:34:42Z</time>
      </trkpt>
      <trkpt lat="44.28516" lon="2.6679">
        <ele>749.0043945</ele>
        <time>2014-03-29T06:34:48Z</time>
      </trkpt>
      <trkpt lat="44.28513" lon="2.66793">
        <ele>750.4465332</ele>
        <time>2014-03-29T06:34:50Z</time>
      </trkpt>
      <trkpt lat="44.28505" lon="2.66798">
        <ele>751.8884277</ele>
        <time>2014-03-29T06:34:56Z</time>
      </trkpt>
      <trkpt lat="44.28495" lon="2.66812">
        <ele>751.8884277</ele>
        <time>2014-03-29T06:35:03Z</time>
      </trkpt>
      <trkpt lat="44.28493" lon="2.66815">
        <ele>751.8884277</ele>
        <time>2014-03-29T06:35:04Z</time>
      </trkpt>
      <trkpt lat="44.28479" lon="2.66832">
        <ele>753.3303223</ele>
        <time>2014-03-29T06:35:12Z</time>
      </trkpt>
      <trkpt lat="44.2847" lon="2.66846">
        <ele>755.2529297</ele>
        <time>2014-03-29T06:35:18Z</time>
      </trkpt>
      <trkpt lat="44.2846" lon="2.66861">
        <ele>757.1755371</ele>
        <time>2014-03-29T06:35:25Z</time>
      </trkpt>
      <trkpt lat="44.28451" lon="2.66874">
        <ele>758.1369629</ele>
        <time>2014-03-29T06:35:30Z</time>
      </trkpt>
      <trkpt lat="44.28446" lon="2.66883">
        <ele>759.0981445</ele>
        <time>2014-03-29T06:35:34Z</time>
      </trkpt>
      <trkpt lat="44.28438" lon="2.66893">
        <ele>761.020752</ele>
        <time>2014-03-29T06:35:39Z</time>
      </trkpt>
      <trkpt lat="44.28433" lon="2.66905">
        <ele>762.4626465</ele>
        <time>2014-03-29T06:35:44Z</time>
      </trkpt>
      <trkpt lat="44.28425" lon="2.66918">
        <ele>764.385498</ele>
        <time>2014-03-29T06:35:51Z</time>
      </trkpt>
      <trkpt lat="44.28414" lon="2.66933">
        <ele>766.7888184</ele>
        <time>2014-03-29T06:35:58Z</time>
      </trkpt>
      <trkpt lat="44.28406" lon="2.66947">
        <ele>767.2695313</ele>
        <time>2014-03-29T06:36:04Z</time>
      </trkpt>
      <trkpt lat="44.28399" lon="2.6696">
        <ele>766.7888184</ele>
        <time>2014-03-29T06:36:10Z</time>
      </trkpt>
      <trkpt lat="44.28391" lon="2.66974">
        <ele>767.2695313</ele>
        <time>2014-03-29T06:36:16Z</time>
      </trkpt>
      <trkpt lat="44.28383" lon="2.66989">
        <ele>768.2307129</ele>
        <time>2014-03-29T06:36:22Z</time>
      </trkpt>
      <trkpt lat="44.28377" lon="2.66999">
        <ele>768.2307129</ele>
        <time>2014-03-29T06:36:26Z</time>
      </trkpt>
      <trkpt lat="44.28371" lon="2.67012">
        <ele>768.7114258</ele>
        <time>2014-03-29T06:36:31Z</time>
      </trkpt>
      <trkpt lat="44.28363" lon="2.67028">
        <ele>771.1147461</ele>
        <time>2014-03-29T06:36:37Z</time>
      </trkpt>
      <trkpt lat="44.28355" lon="2.67043">
        <ele>772.5566406</ele>
        <time>2014-03-29T06:36:43Z</time>
      </trkpt>
      <trkpt lat="44.28347" lon="2.67059">
        <ele>773.5180664</ele>
        <time>2014-03-29T06:36:49Z</time>
      </trkpt>
      <trkpt lat="44.28341" lon="2.67072">
        <ele>773.5180664</ele>
        <time>2014-03-29T06:36:54Z</time>
      </trkpt>
      <trkpt lat="44.28331" lon="2.6708">
        <ele>774.9599609</ele>
        <time>2014-03-29T06:37:00Z</time>
      </trkpt>
      <trkpt lat="44.28323" lon="2.67085">
        <ele>776.4018555</ele>
        <time>2014-03-29T06:37:06Z</time>
      </trkpt>
      <trkpt lat="44.28311" lon="2.67091">
        <ele>777.3632813</ele>
        <time>2014-03-29T06:37:14Z</time>
      </trkpt>
      <trkpt lat="44.28296" lon="2.67098">
        <ele>777.84375</ele>
        <time>2014-03-29T06:37:20Z</time>
      </trkpt>
      <trkpt lat="44.28282" lon="2.67105">
        <ele>778.3244629</ele>
        <time>2014-03-29T06:37:26Z</time>
      </trkpt>
      <trkpt lat="44.28268" lon="2.67112">
        <ele>778.3244629</ele>
        <time>2014-03-29T06:37:32Z</time>
      </trkpt>
      <trkpt lat="44.28255" lon="2.67115">
        <ele>778.3244629</ele>
        <time>2014-03-29T06:37:38Z</time>
      </trkpt>
      <trkpt lat="44.28243" lon="2.6712">
        <ele>777.84375</ele>
        <time>2014-03-29T06:37:43Z</time>
      </trkpt>
      <trkpt lat="44.28231" lon="2.67123">
        <ele>777.84375</ele>
        <time>2014-03-29T06:37:48Z</time>
      </trkpt>
      <trkpt lat="44.28218" lon="2.67129">
        <ele>778.3244629</ele>
        <time>2014-03-29T06:37:53Z</time>
      </trkpt>
      <trkpt lat="44.28205" lon="2.67137">
        <ele>776.8825684</ele>
        <time>2014-03-29T06:37:58Z</time>
      </trkpt>
      <trkpt lat="44.28195" lon="2.6715">
        <ele>778.8051758</ele>
        <time>2014-03-29T06:38:03Z</time>
      </trkpt>
      <trkpt lat="44.28182" lon="2.67168">
        <ele>777.84375</ele>
        <time>2014-03-29T06:38:09Z</time>
      </trkpt>
      <trkpt lat="44.2817" lon="2.67184">
        <ele>776.4018555</ele>
        <time>2014-03-29T06:38:15Z</time>
      </trkpt>
      <trkpt lat="44.28161" lon="2.67197">
        <ele>776.4018555</ele>
        <time>2014-03-29T06:38:20Z</time>
      </trkpt>
      <trkpt lat="44.28151" lon="2.67207">
        <ele>775.9211426</ele>
        <time>2014-03-29T06:38:25Z</time>
      </trkpt>
      <trkpt lat="44.28138" lon="2.67217">
        <ele>774.9599609</ele>
        <time>2014-03-29T06:38:31Z</time>
      </trkpt>
      <trkpt lat="44.28125" lon="2.67232">
        <ele>776.8825684</ele>
        <time>2014-03-29T06:38:37Z</time>
      </trkpt>
      <trkpt lat="44.28114" lon="2.67246">
        <ele>776.4018555</ele>
        <time>2014-03-29T06:38:43Z</time>
      </trkpt>
      <trkpt lat="44.28103" lon="2.67262">
        <ele>775.9211426</ele>
        <time>2014-03-29T06:38:49Z</time>
      </trkpt>
      <trkpt lat="44.28094" lon="2.6728">
        <ele>775.4404297</ele>
        <time>2014-03-29T06:38:55Z</time>
      </trkpt>
      <trkpt lat="44.28084" lon="2.67296">
        <ele>775.4404297</ele>
        <time>2014-03-29T06:39:01Z</time>
      </trkpt>
      <trkpt lat="44.28076" lon="2.67311">
        <ele>775.4404297</ele>
        <time>2014-03-29T06:39:06Z</time>
      </trkpt>
      <trkpt lat="44.28068" lon="2.67328">
        <ele>775.4404297</ele>
        <time>2014-03-29T06:39:12Z</time>
      </trkpt>
      <trkpt lat="44.28056" lon="2.67349">
        <ele>773.0373535</ele>
        <time>2014-03-29T06:39:19Z</time>
      </trkpt>
      <trkpt lat="44.28047" lon="2.67364">
        <ele>771.5952148</ele>
        <time>2014-03-29T06:39:24Z</time>
      </trkpt>
      <trkpt lat="44.28038" lon="2.67384">
        <ele>771.1147461</ele>
        <time>2014-03-29T06:39:30Z</time>
      </trkpt>
      <trkpt lat="44.28032" lon="2.67401">
        <ele>770.1533203</ele>
        <time>2014-03-29T06:39:35Z</time>
      </trkpt>
      <trkpt lat="44.28026" lon="2.67417">
        <ele>768.2307129</ele>
        <time>2014-03-29T06:39:40Z</time>
      </trkpt>
      <trkpt lat="44.28025" lon="2.67425">
        <ele>767.2695313</ele>
        <time>2014-03-29T06:39:42Z</time>
      </trkpt>
      <trkpt lat="44.28014" lon="2.67438">
        <ele>764.8662109</ele>
        <time>2014-03-29T06:39:47Z</time>
      </trkpt>
      <trkpt lat="44.28005" lon="2.67435">
        <ele>763.904541</ele>
        <time>2014-03-29T06:39:50Z</time>
      </trkpt>
      <trkpt lat="44.27987" lon="2.67422">
        <ele>762.9433594</ele>
        <time>2014-03-29T06:39:57Z</time>
      </trkpt>
      <trkpt lat="44.27975" lon="2.67412">
        <ele>762.9433594</ele>
        <time>2014-03-29T06:40:02Z</time>
      </trkpt>
      <trkpt lat="44.2796" lon="2.67397">
        <ele>761.020752</ele>
        <time>2014-03-29T06:40:08Z</time>
      </trkpt>
      <trkpt lat="44.27946" lon="2.67384">
        <ele>759.5788574</ele>
        <time>2014-03-29T06:40:14Z</time>
      </trkpt>
      <trkpt lat="44.27931" lon="2.67374">
        <ele>757.65625</ele>
        <time>2014-03-29T06:40:20Z</time>
      </trkpt>
      <trkpt lat="44.27916" lon="2.67363">
        <ele>755.2529297</ele>
        <time>2014-03-29T06:40:26Z</time>
      </trkpt>
      <trkpt lat="44.27903" lon="2.67355">
        <ele>753.3303223</ele>
        <time>2014-03-29T06:40:31Z</time>
      </trkpt>
      <trkpt lat="44.27892" lon="2.67347">
        <ele>751.4077148</ele>
        <time>2014-03-29T06:40:35Z</time>
      </trkpt>
      <trkpt lat="44.2789" lon="2.67345">
        <ele>751.4077148</ele>
        <time>2014-03-29T06:40:36Z</time>
      </trkpt>
      <trkpt lat="44.2788" lon="2.6733">
        <ele>751.4077148</ele>
        <time>2014-03-29T06:40:41Z</time>
      </trkpt>
      <trkpt lat="44.27871" lon="2.67316">
        <ele>751.8884277</ele>
        <time>2014-03-29T06:40:46Z</time>
      </trkpt>
      <trkpt lat="44.27866" lon="2.67302">
        <ele>750.927002</ele>
        <time>2014-03-29T06:40:50Z</time>
      </trkpt>
      <trkpt lat="44.27862" lon="2.6728">
        <ele>749.9658203</ele>
        <time>2014-03-29T06:40:56Z</time>
      </trkpt>
      <trkpt lat="44.27858" lon="2.67266">
        <ele>749.0043945</ele>
        <time>2014-03-29T06:41:00Z</time>
      </trkpt>
      <trkpt lat="44.27854" lon="2.67244">
        <ele>747.5622559</ele>
        <time>2014-03-29T06:41:06Z</time>
      </trkpt>
      <trkpt lat="44.27852" lon="2.67217">
        <ele>745.6396484</ele>
        <time>2014-03-29T06:41:13Z</time>
      </trkpt>
      <trkpt lat="44.2785" lon="2.67199">
        <ele>743.717041</ele>
        <time>2014-03-29T06:41:18Z</time>
      </trkpt>
      <trkpt lat="44.27847" lon="2.67193">
        <ele>742.7558594</ele>
        <time>2014-03-29T06:41:20Z</time>
      </trkpt>
      <trkpt lat="44.27835" lon="2.67194">
        <ele>740.3525391</ele>
        <time>2014-03-29T06:41:25Z</time>
      </trkpt>
      <trkpt lat="44.27831" lon="2.67198">
        <ele>739.8718262</ele>
        <time>2014-03-29T06:41:27Z</time>
      </trkpt>
      <trkpt lat="44.27821" lon="2.67214">
        <ele>737.9492188</ele>
        <time>2014-03-29T06:41:33Z</time>
      </trkpt>
      <trkpt lat="44.2781" lon="2.67232">
        <ele>736.987793</ele>
        <time>2014-03-29T06:41:39Z</time>
      </trkpt>
      <trkpt lat="44.27802" lon="2.67249">
        <ele>736.5073242</ele>
        <time>2014-03-29T06:41:44Z</time>
      </trkpt>
      <trkpt lat="44.27787" lon="2.67268">
        <ele>736.0266113</ele>
        <time>2014-03-29T06:41:51Z</time>
      </trkpt>
      <trkpt lat="44.27772" lon="2.67285">
        <ele>735.0654297</ele>
        <time>2014-03-29T06:41:58Z</time>
      </trkpt>
      <trkpt lat="44.27759" lon="2.67299">
        <ele>735.0654297</ele>
        <time>2014-03-29T06:42:04Z</time>
      </trkpt>
      <trkpt lat="44.27746" lon="2.67313">
        <ele>733.623291</ele>
        <time>2014-03-29T06:42:10Z</time>
      </trkpt>
      <trkpt lat="44.27738" lon="2.67326">
        <ele>733.1425781</ele>
        <time>2014-03-29T06:42:15Z</time>
      </trkpt>
      <trkpt lat="44.27736" lon="2.67329">
        <ele>733.623291</ele>
        <time>2014-03-29T06:42:16Z</time>
      </trkpt>
      <trkpt lat="44.27727" lon="2.67325">
        <ele>732.6621094</ele>
        <time>2014-03-29T06:42:20Z</time>
      </trkpt>
      <trkpt lat="44.27724" lon="2.67322">
        <ele>732.1813965</ele>
        <time>2014-03-29T06:42:21Z</time>
      </trkpt>
      <trkpt lat="44.27718" lon="2.6731">
        <ele>731.7004395</ele>
        <time>2014-03-29T06:42:25Z</time>
      </trkpt>
      <trkpt lat="44.27711" lon="2.67309">
        <ele>729.777832</ele>
        <time>2014-03-29T06:42:29Z</time>
      </trkpt>
      <trkpt lat="44.27701" lon="2.67321">
        <ele>725.9326172</ele>
        <time>2014-03-29T06:42:34Z</time>
      </trkpt>
      <trkpt lat="44.27693" lon="2.67341">
        <ele>723.529541</ele>
        <time>2014-03-29T06:42:40Z</time>
      </trkpt>
      <trkpt lat="44.27685" lon="2.67361">
        <ele>720.1647949</ele>
        <time>2014-03-29T06:42:46Z</time>
      </trkpt>
      <trkpt lat="44.27681" lon="2.67378">
        <ele>717.2810059</ele>
        <time>2014-03-29T06:42:51Z</time>
      </trkpt>
      <trkpt lat="44.27679" lon="2.67392">
        <ele>714.8774414</ele>
        <time>2014-03-29T06:42:55Z</time>
      </trkpt>
      <trkpt lat="44.27675" lon="2.67412">
        <ele>710.0708008</ele>
        <time>2014-03-29T06:43:01Z</time>
      </trkpt>
      <trkpt lat="44.27671" lon="2.67431">
        <ele>710.5515137</ele>
        <time>2014-03-29T06:43:06Z</time>
      </trkpt>
      <trkpt lat="44.27667" lon="2.67443">
        <ele>707.6677246</ele>
        <time>2014-03-29T06:43:11Z</time>
      </trkpt>
      <trkpt lat="44.27664" lon="2.67463">
        <ele>706.2255859</ele>
        <time>2014-03-29T06:43:16Z</time>
      </trkpt>
      <trkpt lat="44.27662" lon="2.6748">
        <ele>705.7451172</ele>
        <time>2014-03-29T06:43:20Z</time>
      </trkpt>
      <trkpt lat="44.2766" lon="2.675">
        <ele>705.7451172</ele>
        <time>2014-03-29T06:43:25Z</time>
      </trkpt>
      <trkpt lat="44.27656" lon="2.67517">
        <ele>705.2644043</ele>
        <time>2014-03-29T06:43:30Z</time>
      </trkpt>
      <trkpt lat="44.27649" lon="2.67529">
        <ele>706.2255859</ele>
        <time>2014-03-29T06:43:35Z</time>
      </trkpt>
      <trkpt lat="44.27636" lon="2.67539">
        <ele>705.7451172</ele>
        <time>2014-03-29T06:43:40Z</time>
      </trkpt>
      <trkpt lat="44.27633" lon="2.67542">
        <ele>705.7451172</ele>
        <time>2014-03-29T06:43:42Z</time>
      </trkpt>
      <trkpt lat="44.27633" lon="2.6755">
        <ele>706.2255859</ele>
        <time>2014-03-29T06:43:47Z</time>
      </trkpt>
      <trkpt lat="44.2764" lon="2.67551">
        <ele>704.7836914</ele>
        <time>2014-03-29T06:43:51Z</time>
      </trkpt>
      <trkpt lat="44.27642" lon="2.6755">
        <ele>704.3032227</ele>
        <time>2014-03-29T06:43:52Z</time>
      </trkpt>
      <trkpt lat="44.27657" lon="2.67549">
        <ele>701.4191895</ele>
        <time>2014-03-29T06:43:57Z</time>
      </trkpt>
      <trkpt lat="44.2767" lon="2.67547">
        <ele>698.5349121</ele>
        <time>2014-03-29T06:44:02Z</time>
      </trkpt>
      <trkpt lat="44.27684" lon="2.67547">
        <ele>698.0544434</ele>
        <time>2014-03-29T06:44:07Z</time>
      </trkpt>
      <trkpt lat="44.27687" lon="2.67548">
        <ele>698.0544434</ele>
        <time>2014-03-29T06:44:08Z</time>
      </trkpt>
      <trkpt lat="44.27699" lon="2.67561">
        <ele>696.1318359</ele>
        <time>2014-03-29T06:44:14Z</time>
      </trkpt>
      <trkpt lat="44.27712" lon="2.67574">
        <ele>688.9221191</ele>
        <time>2014-03-29T06:44:20Z</time>
      </trkpt>
      <trkpt lat="44.27725" lon="2.67583">
        <ele>683.6345215</ele>
        <time>2014-03-29T06:44:25Z</time>
      </trkpt>
      <trkpt lat="44.27735" lon="2.67586">
        <ele>684.1154785</ele>
        <time>2014-03-29T06:44:29Z</time>
      </trkpt>
      <trkpt lat="44.27737" lon="2.67586">
        <ele>684.5961914</ele>
        <time>2014-03-29T06:44:30Z</time>
      </trkpt>
      <trkpt lat="44.2775" lon="2.67593">
        <ele>688.4414063</ele>
        <time>2014-03-29T06:44:35Z</time>
      </trkpt>
      <trkpt lat="44.27756" lon="2.67598">
        <ele>689.4025879</ele>
        <time>2014-03-29T06:44:39Z</time>
      </trkpt>
      <trkpt lat="44.27764" lon="2.67606">
        <ele>689.8833008</ele>
        <time>2014-03-29T06:44:45Z</time>
      </trkpt>
      <trkpt lat="44.27769" lon="2.67613">
        <ele>690.8444824</ele>
        <time>2014-03-29T06:44:48Z</time>
      </trkpt>
      <trkpt lat="44.27772" lon="2.67626">
        <ele>692.2866211</ele>
        <time>2014-03-29T06:44:54Z</time>
      </trkpt>
      <trkpt lat="44.27772" lon="2.67632">
        <ele>693.2478027</ele>
        <time>2014-03-29T06:44:56Z</time>
      </trkpt>
      <trkpt lat="44.27771" lon="2.67644">
        <ele>692.767334</ele>
        <time>2014-03-29T06:45:01Z</time>
      </trkpt>
      <trkpt lat="44.27769" lon="2.67648">
        <ele>692.767334</ele>
        <time>2014-03-29T06:45:03Z</time>
      </trkpt>
      <trkpt lat="44.27764" lon="2.67649">
        <ele>689.4025879</ele>
        <time>2014-03-29T06:45:08Z</time>
      </trkpt>
      <trkpt lat="44.27754" lon="2.67651">
        <ele>685.0769043</ele>
        <time>2014-03-29T06:45:14Z</time>
      </trkpt>
      <trkpt lat="44.27749" lon="2.67653">
        <ele>682.192627</ele>
        <time>2014-03-29T06:45:18Z</time>
      </trkpt>
      <trkpt lat="44.27745" lon="2.67654">
        <ele>681.2314453</ele>
        <time>2014-03-29T06:45:20Z</time>
      </trkpt>
      <trkpt lat="44.27734" lon="2.67662">
        <ele>680.2700195</ele>
        <time>2014-03-29T06:45:25Z</time>
      </trkpt>
      <trkpt lat="44.27725" lon="2.67667">
        <ele>679.3085938</ele>
        <time>2014-03-29T06:45:29Z</time>
      </trkpt>
      <trkpt lat="44.27717" lon="2.67668">
        <ele>675.9440918</ele>
        <time>2014-03-29T06:45:33Z</time>
      </trkpt>
      <trkpt lat="44.27706" lon="2.67669">
        <ele>673.5410156</ele>
        <time>2014-03-29T06:45:38Z</time>
      </trkpt>
      <trkpt lat="44.27697" lon="2.67675">
        <ele>671.6181641</ele>
        <time>2014-03-29T06:45:42Z</time>
      </trkpt>
      <trkpt lat="44.27693" lon="2.67678">
        <ele>669.6958008</ele>
        <time>2014-03-29T06:45:44Z</time>
      </trkpt>
      <trkpt lat="44.27687" lon="2.67687">
        <ele>663.4470215</ele>
        <time>2014-03-29T06:45:50Z</time>
      </trkpt>
      <trkpt lat="44.27681" lon="2.67695">
        <ele>660.5629883</ele>
        <time>2014-03-29T06:45:54Z</time>
      </trkpt>
      <trkpt lat="44.2767" lon="2.67706">
        <ele>658.6403809</ele>
        <time>2014-03-29T06:45:59Z</time>
      </trkpt>
      <trkpt lat="44.27659" lon="2.67714">
        <ele>656.7177734</ele>
        <time>2014-03-29T06:46:05Z</time>
      </trkpt>
      <trkpt lat="44.27653" lon="2.67717">
        <ele>655.2758789</ele>
        <time>2014-03-29T06:46:08Z</time>
      </trkpt>
      <trkpt lat="44.27643" lon="2.67725">
        <ele>653.8339844</ele>
        <time>2014-03-29T06:46:13Z</time>
      </trkpt>
      <trkpt lat="44.27634" lon="2.67732">
        <ele>652.8725586</ele>
        <time>2014-03-29T06:46:17Z</time>
      </trkpt>
      <trkpt lat="44.27623" lon="2.67738">
        <ele>653.8339844</ele>
        <time>2014-03-29T06:46:22Z</time>
      </trkpt>
      <trkpt lat="44.27615" lon="2.67743">
        <ele>654.3146973</ele>
        <time>2014-03-29T06:46:27Z</time>
      </trkpt>
      <trkpt lat="44.2761" lon="2.67747">
        <ele>651.9111328</ele>
        <time>2014-03-29T06:46:29Z</time>
      </trkpt>
      <trkpt lat="44.276" lon="2.67763">
        <ele>648.065918</ele>
        <time>2014-03-29T06:46:34Z</time>
      </trkpt>
      <trkpt lat="44.27593" lon="2.67769">
        <ele>647.5852051</ele>
        <time>2014-03-29T06:46:38Z</time>
      </trkpt>
      <trkpt lat="44.27581" lon="2.67782">
        <ele>644.7011719</ele>
        <time>2014-03-29T06:46:44Z</time>
      </trkpt>
      <trkpt lat="44.27575" lon="2.67788">
        <ele>643.2592773</ele>
        <time>2014-03-29T06:46:47Z</time>
      </trkpt>
      <trkpt lat="44.27564" lon="2.67792">
        <ele>641.3366699</ele>
        <time>2014-03-29T06:46:52Z</time>
      </trkpt>
      <trkpt lat="44.27553" lon="2.67795">
        <ele>642.7788086</ele>
        <time>2014-03-29T06:46:57Z</time>
      </trkpt>
      <trkpt lat="44.27542" lon="2.67803">
        <ele>640.3754883</ele>
        <time>2014-03-29T06:47:02Z</time>
      </trkpt>
      <trkpt lat="44.27531" lon="2.67817">
        <ele>638.4528809</ele>
        <time>2014-03-29T06:47:08Z</time>
      </trkpt>
      <trkpt lat="44.27528" lon="2.67822">
        <ele>638.4528809</ele>
        <time>2014-03-29T06:47:10Z</time>
      </trkpt>
      <trkpt lat="44.27519" lon="2.67826">
        <ele>640.855957</ele>
        <time>2014-03-29T06:47:15Z</time>
      </trkpt>
      <trkpt lat="44.27517" lon="2.67826">
        <ele>641.3366699</ele>
        <time>2014-03-29T06:47:16Z</time>
      </trkpt>
      <trkpt lat="44.27499" lon="2.6782">
        <ele>641.8173828</ele>
        <time>2014-03-29T06:47:23Z</time>
      </trkpt>
      <trkpt lat="44.27488" lon="2.67819">
        <ele>642.2980957</ele>
        <time>2014-03-29T06:47:27Z</time>
      </trkpt>
      <trkpt lat="44.27471" lon="2.67821">
        <ele>643.2592773</ele>
        <time>2014-03-29T06:47:33Z</time>
      </trkpt>
      <trkpt lat="44.27463" lon="2.67822">
        <ele>641.8173828</ele>
        <time>2014-03-29T06:47:36Z</time>
      </trkpt>
      <trkpt lat="44.27451" lon="2.67818">
        <ele>639.4140625</ele>
        <time>2014-03-29T06:47:41Z</time>
      </trkpt>
      <trkpt lat="44.27433" lon="2.67813">
        <ele>636.0495605</ele>
        <time>2014-03-29T06:47:47Z</time>
      </trkpt>
      <trkpt lat="44.27421" lon="2.67811">
        <ele>633.1652832</ele>
        <time>2014-03-29T06:47:51Z</time>
      </trkpt>
      <trkpt lat="44.27414" lon="2.67809">
        <ele>631.7233887</ele>
        <time>2014-03-29T06:47:55Z</time>
      </trkpt>
      <trkpt lat="44.27412" lon="2.67811">
        <ele>631.2429199</ele>
        <time>2014-03-29T06:48:02Z</time>
      </trkpt>
      <trkpt lat="44.27413" lon="2.6781">
        <ele>633.1652832</ele>
        <time>2014-03-29T06:48:20Z</time>
      </trkpt>
      <trkpt lat="44.27402" lon="2.67814">
        <ele>630.762207</ele>
        <time>2014-03-29T06:48:25Z</time>
      </trkpt>
      <trkpt lat="44.274" lon="2.67831">
        <ele>627.3977051</ele>
        <time>2014-03-29T06:48:29Z</time>
      </trkpt>
      <trkpt lat="44.27402" lon="2.67838">
        <ele>624.5136719</ele>
        <time>2014-03-29T06:48:31Z</time>
      </trkpt>
      <trkpt lat="44.27411" lon="2.67858">
        <ele>618.2648926</ele>
        <time>2014-03-29T06:48:37Z</time>
      </trkpt>
      <trkpt lat="44.2742" lon="2.67873">
        <ele>613.9389648</ele>
        <time>2014-03-29T06:48:42Z</time>
      </trkpt>
      <trkpt lat="44.27426" lon="2.67888">
        <ele>611.0551758</ele>
        <time>2014-03-29T06:48:47Z</time>
      </trkpt>
      <trkpt lat="44.2743" lon="2.67907">
        <ele>607.2099609</ele>
        <time>2014-03-29T06:48:52Z</time>
      </trkpt>
      <trkpt lat="44.27437" lon="2.67925">
        <ele>604.8066406</ele>
        <time>2014-03-29T06:48:57Z</time>
      </trkpt>
      <trkpt lat="44.27443" lon="2.67937">
        <ele>602.8837891</ele>
        <time>2014-03-29T06:49:01Z</time>
      </trkpt>
      <trkpt lat="44.27449" lon="2.6795">
        <ele>601.9226074</ele>
        <time>2014-03-29T06:49:05Z</time>
      </trkpt>
      <trkpt lat="44.27444" lon="2.67962">
        <ele>601.4418945</ele>
        <time>2014-03-29T06:49:09Z</time>
      </trkpt>
      <trkpt lat="44.27434" lon="2.67966">
        <ele>601.9226074</ele>
        <time>2014-03-29T06:49:12Z</time>
      </trkpt>
      <trkpt lat="44.27419" lon="2.6797">
        <ele>603.8452148</ele>
        <time>2014-03-29T06:49:18Z</time>
      </trkpt>
      <trkpt lat="44.27409" lon="2.67971">
        <ele>601.9226074</ele>
        <time>2014-03-29T06:49:22Z</time>
      </trkpt>
      <trkpt lat="44.27396" lon="2.67968">
        <ele>605.2873535</ele>
        <time>2014-03-29T06:49:26Z</time>
      </trkpt>
      <trkpt lat="44.27384" lon="2.67968">
        <ele>608.1713867</ele>
        <time>2014-03-29T06:49:31Z</time>
      </trkpt>
      <trkpt lat="44.27371" lon="2.67968">
        <ele>609.6132813</ele>
        <time>2014-03-29T06:49:36Z</time>
      </trkpt>
      <trkpt lat="44.27357" lon="2.67966">
        <ele>610.09375</ele>
        <time>2014-03-29T06:49:41Z</time>
      </trkpt>
      <trkpt lat="44.27347" lon="2.67957">
        <ele>610.5744629</ele>
        <time>2014-03-29T06:49:47Z</time>
      </trkpt>
      <trkpt lat="44.2734" lon="2.67948">
        <ele>611.5358887</ele>
        <time>2014-03-29T06:49:52Z</time>
      </trkpt>
      <trkpt lat="44.27332" lon="2.67939">
        <ele>612.4970703</ele>
        <time>2014-03-29T06:49:58Z</time>
      </trkpt>
      <trkpt lat="44.27329" lon="2.67936">
        <ele>611.5358887</ele>
        <time>2014-03-29T06:50:02Z</time>
      </trkpt>
      <trkpt lat="44.27327" lon="2.67938">
        <ele>610.5744629</ele>
        <time>2014-03-29T06:50:08Z</time>
      </trkpt>
      <trkpt lat="44.27326" lon="2.67938">
        <ele>610.5744629</ele>
        <time>2014-03-29T06:50:26Z</time>
      </trkpt>
      <trkpt lat="44.27325" lon="2.67935">
        <ele>610.09375</ele>
        <time>2014-03-29T06:50:39Z</time>
      </trkpt>
      <trkpt lat="44.27325" lon="2.67935">
        <ele>611.0551758</ele>
        <time>2014-03-29T06:50:46Z</time>
      </trkpt>
      <trkpt lat="44.27325" lon="2.67935">
        <ele>611.5358887</ele>
        <time>2014-03-29T06:50:54Z</time>
      </trkpt>
      <trkpt lat="44.27325" lon="2.67934">
        <ele>611.0551758</ele>
        <time>2014-03-29T06:51:06Z</time>
      </trkpt>
      <trkpt lat="44.27324" lon="2.67934">
        <ele>610.5744629</ele>
        <time>2014-03-29T06:51:13Z</time>
      </trkpt>
      <trkpt lat="44.27324" lon="2.67933">
        <ele>610.5744629</ele>
        <time>2014-03-29T06:51:20Z</time>
      </trkpt>
      <trkpt lat="44.27324" lon="2.67932">
        <ele>609.1325684</ele>
        <time>2014-03-29T06:51:29Z</time>
      </trkpt>
      <trkpt lat="44.27324" lon="2.67931">
        <ele>612.9777832</ele>
        <time>2014-03-29T06:51:47Z</time>
      </trkpt>
      <trkpt lat="44.27325" lon="2.67932">
        <ele>615.8618164</ele>
        <time>2014-03-29T06:51:54Z</time>
      </trkpt>
      <trkpt lat="44.27325" lon="2.67932">
        <ele>615.8618164</ele>
        <time>2014-03-29T06:52:00Z</time>
      </trkpt>
      <trkpt lat="44.27325" lon="2.67933">
        <ele>613.9389648</ele>
        <time>2014-03-29T06:52:09Z</time>
      </trkpt>
      <trkpt lat="44.27325" lon="2.67933">
        <ele>613.9389648</ele>
        <time>2014-03-29T06:52:16Z</time>
      </trkpt>
      <trkpt lat="44.27324" lon="2.67935">
        <ele>612.9777832</ele>
        <time>2014-03-29T06:52:25Z</time>
      </trkpt>
      <trkpt lat="44.27323" lon="2.67932">
        <ele>612.4970703</ele>
        <time>2014-03-29T06:52:30Z</time>
      </trkpt>
      <trkpt lat="44.27321" lon="2.6793">
        <ele>612.0166016</ele>
        <time>2014-03-29T06:52:32Z</time>
      </trkpt>
      <trkpt lat="44.27314" lon="2.67919">
        <ele>611.5358887</ele>
        <time>2014-03-29T06:52:40Z</time>
      </trkpt>
      <trkpt lat="44.27307" lon="2.6791">
        <ele>610.5744629</ele>
        <time>2014-03-29T06:52:47Z</time>
      </trkpt>
      <trkpt lat="44.27301" lon="2.67906">
        <ele>610.09375</ele>
        <time>2014-03-29T06:52:52Z</time>
      </trkpt>
      <trkpt lat="44.27294" lon="2.67898">
        <ele>610.5744629</ele>
        <time>2014-03-29T06:53:01Z</time>
      </trkpt>
      <trkpt lat="44.27289" lon="2.67892">
        <ele>610.09375</ele>
        <time>2014-03-29T06:53:09Z</time>
      </trkpt>
      <trkpt lat="44.2729" lon="2.67892">
        <ele>611.0551758</ele>
        <time>2014-03-29T06:53:11Z</time>
      </trkpt>
      <trkpt lat="44.27292" lon="2.67896">
        <ele>612.4970703</ele>
        <time>2014-03-29T06:53:17Z</time>
      </trkpt>
      <trkpt lat="44.27291" lon="2.67895">
        <ele>612.9777832</ele>
        <time>2014-03-29T06:53:32Z</time>
      </trkpt>
      <trkpt lat="44.2729" lon="2.67893">
        <ele>609.6132813</ele>
        <time>2014-03-29T06:53:56Z</time>
      </trkpt>
      <trkpt lat="44.27291" lon="2.67894">
        <ele>612.0166016</ele>
        <time>2014-03-29T06:54:06Z</time>
      </trkpt>
      <trkpt lat="44.27293" lon="2.67894">
        <ele>614.9003906</ele>
        <time>2014-03-29T06:54:31Z</time>
      </trkpt>
      <trkpt lat="44.27293" lon="2.67893">
        <ele>614.9003906</ele>
        <time>2014-03-29T06:54:39Z</time>
      </trkpt>
      <trkpt lat="44.27291" lon="2.67892">
        <ele>613.4584961</ele>
        <time>2014-03-29T06:54:52Z</time>
      </trkpt>
      <trkpt lat="44.27283" lon="2.6788">
        <ele>614.9003906</ele>
        <time>2014-03-29T06:54:57Z</time>
      </trkpt>
      <trkpt lat="44.27273" lon="2.67867">
        <ele>616.822998</ele>
        <time>2014-03-29T06:55:02Z</time>
      </trkpt>
      <trkpt lat="44.27272" lon="2.67864">
        <ele>617.3037109</ele>
        <time>2014-03-29T06:55:03Z</time>
      </trkpt>
      <trkpt lat="44.27264" lon="2.6785">
        <ele>620.1877441</ele>
        <time>2014-03-29T06:55:08Z</time>
      </trkpt>
      <trkpt lat="44.27261" lon="2.67844">
        <ele>621.1491699</ele>
        <time>2014-03-29T06:55:10Z</time>
      </trkpt>
      <trkpt lat="44.27256" lon="2.67827">
        <ele>622.1103516</ele>
        <time>2014-03-29T06:55:16Z</time>
      </trkpt>
      <trkpt lat="44.27255" lon="2.67824">
        <ele>622.5910645</ele>
        <time>2014-03-29T06:55:17Z</time>
      </trkpt>
      <trkpt lat="44.27253" lon="2.6783">
        <ele>623.5524902</ele>
        <time>2014-03-29T06:55:21Z</time>
      </trkpt>
      <trkpt lat="44.27257" lon="2.67846">
        <ele>624.9943848</ele>
        <time>2014-03-29T06:55:26Z</time>
      </trkpt>
      <trkpt lat="44.27259" lon="2.6786">
        <ele>627.8781738</ele>
        <time>2014-03-29T06:55:31Z</time>
      </trkpt>
      <trkpt lat="44.27259" lon="2.67864">
        <ele>628.8395996</ele>
        <time>2014-03-29T06:55:32Z</time>
      </trkpt>
      <trkpt lat="44.27261" lon="2.67882">
        <ele>632.2041016</ele>
        <time>2014-03-29T06:55:39Z</time>
      </trkpt>
      <trkpt lat="44.27262" lon="2.67888">
        <ele>633.1652832</ele>
        <time>2014-03-29T06:55:42Z</time>
      </trkpt>
      <trkpt lat="44.27264" lon="2.67901">
        <ele>632.6848145</ele>
        <time>2014-03-29T06:55:48Z</time>
      </trkpt>
      <trkpt lat="44.27265" lon="2.67904">
        <ele>633.1652832</ele>
        <time>2014-03-29T06:55:49Z</time>
      </trkpt>
      <trkpt lat="44.27271" lon="2.67919">
        <ele>632.6848145</ele>
        <time>2014-03-29T06:55:54Z</time>
      </trkpt>
      <trkpt lat="44.27276" lon="2.67932">
        <ele>632.2041016</ele>
        <time>2014-03-29T06:55:58Z</time>
      </trkpt>
      <trkpt lat="44.27283" lon="2.67947">
        <ele>631.2429199</ele>
        <time>2014-03-29T06:56:03Z</time>
      </trkpt>
      <trkpt lat="44.27293" lon="2.67964">
        <ele>629.3200684</ele>
        <time>2014-03-29T06:56:09Z</time>
      </trkpt>
      <trkpt lat="44.27302" lon="2.67981">
        <ele>628.8395996</ele>
        <time>2014-03-29T06:56:15Z</time>
      </trkpt>
      <trkpt lat="44.27306" lon="2.67986">
        <ele>628.3588867</ele>
        <time>2014-03-29T06:56:17Z</time>
      </trkpt>
      <trkpt lat="44.27315" lon="2.68003">
        <ele>626.9169922</ele>
        <time>2014-03-29T06:56:23Z</time>
      </trkpt>
      <trkpt lat="44.27323" lon="2.68024">
        <ele>623.5524902</ele>
        <time>2014-03-29T06:56:30Z</time>
      </trkpt>
      <trkpt lat="44.27328" lon="2.6805">
        <ele>623.0717773</ele>
        <time>2014-03-29T06:56:38Z</time>
      </trkpt>
      <trkpt lat="44.27329" lon="2.68073">
        <ele>622.5910645</ele>
        <time>2014-03-29T06:56:45Z</time>
      </trkpt>
      <trkpt lat="44.27328" lon="2.68093">
        <ele>622.5910645</ele>
        <time>2014-03-29T06:56:51Z</time>
      </trkpt>
      <trkpt lat="44.27323" lon="2.68113">
        <ele>620.668457</ele>
        <time>2014-03-29T06:56:57Z</time>
      </trkpt>
      <trkpt lat="44.27319" lon="2.68126">
        <ele>620.1877441</ele>
        <time>2014-03-29T06:57:01Z</time>
      </trkpt>
      <trkpt lat="44.2731" lon="2.68145">
        <ele>618.2648926</ele>
        <time>2014-03-29T06:57:07Z</time>
      </trkpt>
      <trkpt lat="44.273" lon="2.68162">
        <ele>617.3037109</ele>
        <time>2014-03-29T06:57:12Z</time>
      </trkpt>
      <trkpt lat="44.27293" lon="2.68174">
        <ele>616.3422852</ele>
        <time>2014-03-29T06:57:16Z</time>
      </trkpt>
      <trkpt lat="44.27287" lon="2.68186">
        <ele>614.9003906</ele>
        <time>2014-03-29T06:57:20Z</time>
      </trkpt>
      <trkpt lat="44.2728" lon="2.68196">
        <ele>614.9003906</ele>
        <time>2014-03-29T06:57:24Z</time>
      </trkpt>
      <trkpt lat="44.27272" lon="2.68208">
        <ele>615.3811035</ele>
        <time>2014-03-29T06:57:28Z</time>
      </trkpt>
      <trkpt lat="44.27262" lon="2.6822">
        <ele>614.9003906</ele>
        <time>2014-03-29T06:57:33Z</time>
      </trkpt>
      <trkpt lat="44.27251" lon="2.68235">
        <ele>616.822998</ele>
        <time>2014-03-29T06:57:38Z</time>
      </trkpt>
      <trkpt lat="44.27245" lon="2.68251">
        <ele>616.822998</ele>
        <time>2014-03-29T06:57:43Z</time>
      </trkpt>
      <trkpt lat="44.27242" lon="2.68262">
        <ele>616.3422852</ele>
        <time>2014-03-29T06:57:46Z</time>
      </trkpt>
      <trkpt lat="44.27238" lon="2.6827">
        <ele>616.3422852</ele>
        <time>2014-03-29T06:57:49Z</time>
      </trkpt>
      <trkpt lat="44.27233" lon="2.68279">
        <ele>616.822998</ele>
        <time>2014-03-29T06:57:53Z</time>
      </trkpt>
      <trkpt lat="44.27227" lon="2.6829">
        <ele>620.1877441</ele>
        <time>2014-03-29T06:57:59Z</time>
      </trkpt>
      <trkpt lat="44.27226" lon="2.68292">
        <ele>620.668457</ele>
        <time>2014-03-29T06:58:00Z</time>
      </trkpt>
      <trkpt lat="44.27224" lon="2.68299">
        <ele>623.5524902</ele>
        <time>2014-03-29T06:58:03Z</time>
      </trkpt>
      <trkpt lat="44.27223" lon="2.68308">
        <ele>625.9555664</ele>
        <time>2014-03-29T06:58:08Z</time>
      </trkpt>
      <trkpt lat="44.27219" lon="2.68315">
        <ele>627.3977051</ele>
        <time>2014-03-29T06:58:12Z</time>
      </trkpt>
      <trkpt lat="44.27211" lon="2.68326">
        <ele>628.8395996</ele>
        <time>2014-03-29T06:58:18Z</time>
      </trkpt>
      <trkpt lat="44.2721" lon="2.68328">
        <ele>629.8007813</ele>
        <time>2014-03-29T06:58:19Z</time>
      </trkpt>
      <trkpt lat="44.27204" lon="2.68341">
        <ele>630.762207</ele>
        <time>2014-03-29T06:58:25Z</time>
      </trkpt>
      <trkpt lat="44.27197" lon="2.68353">
        <ele>631.7233887</ele>
        <time>2014-03-29T06:58:31Z</time>
      </trkpt>
      <trkpt lat="44.27191" lon="2.68364">
        <ele>631.2429199</ele>
        <time>2014-03-29T06:58:36Z</time>
      </trkpt>
      <trkpt lat="44.27186" lon="2.68379">
        <ele>630.762207</ele>
        <time>2014-03-29T06:58:41Z</time>
      </trkpt>
      <trkpt lat="44.27181" lon="2.68394">
        <ele>629.3200684</ele>
        <time>2014-03-29T06:58:46Z</time>
      </trkpt>
      <trkpt lat="44.27176" lon="2.6841">
        <ele>628.8395996</ele>
        <time>2014-03-29T06:58:51Z</time>
      </trkpt>
      <trkpt lat="44.2717" lon="2.68428">
        <ele>626.4362793</ele>
        <time>2014-03-29T06:58:56Z</time>
      </trkpt>
      <trkpt lat="44.27167" lon="2.68448">
        <ele>624.5136719</ele>
        <time>2014-03-29T06:59:01Z</time>
      </trkpt>
      <trkpt lat="44.27164" lon="2.68461">
        <ele>624.032959</ele>
        <time>2014-03-29T06:59:05Z</time>
      </trkpt>
      <trkpt lat="44.27167" lon="2.68481">
        <ele>628.8395996</ele>
        <time>2014-03-29T06:59:11Z</time>
      </trkpt>
      <trkpt lat="44.27171" lon="2.68495">
        <ele>632.2041016</ele>
        <time>2014-03-29T06:59:15Z</time>
      </trkpt>
      <trkpt lat="44.27176" lon="2.68508">
        <ele>635.5686035</ele>
        <time>2014-03-29T06:59:19Z</time>
      </trkpt>
      <trkpt lat="44.27186" lon="2.6852">
        <ele>639.8947754</ele>
        <time>2014-03-29T06:59:23Z</time>
      </trkpt>
      <trkpt lat="44.27189" lon="2.68531">
        <ele>641.3366699</ele>
        <time>2014-03-29T06:59:27Z</time>
      </trkpt>
      <trkpt lat="44.2719" lon="2.68533">
        <ele>642.2980957</ele>
        <time>2014-03-29T06:59:28Z</time>
      </trkpt>
      <trkpt lat="44.27197" lon="2.68545">
        <ele>643.2592773</ele>
        <time>2014-03-29T06:59:33Z</time>
      </trkpt>
      <trkpt lat="44.27202" lon="2.68553">
        <ele>639.4140625</ele>
        <time>2014-03-29T06:59:37Z</time>
      </trkpt>
      <trkpt lat="44.27209" lon="2.68565">
        <ele>636.5302734</ele>
        <time>2014-03-29T06:59:42Z</time>
      </trkpt>
      <trkpt lat="44.27216" lon="2.68574">
        <ele>631.2429199</ele>
        <time>2014-03-29T06:59:47Z</time>
      </trkpt>
      <trkpt lat="44.27226" lon="2.68585">
        <ele>621.1491699</ele>
        <time>2014-03-29T06:59:52Z</time>
      </trkpt>
      <trkpt lat="44.27237" lon="2.68598">
        <ele>619.7070313</ele>
        <time>2014-03-29T06:59:59Z</time>
      </trkpt>
      <trkpt lat="44.2724" lon="2.68601">
        <ele>618.7456055</ele>
        <time>2014-03-29T07:00:01Z</time>
      </trkpt>
      <trkpt lat="44.27246" lon="2.68606">
        <ele>618.7456055</ele>
        <time>2014-03-29T07:00:04Z</time>
      </trkpt>
      <trkpt lat="44.27249" lon="2.68608">
        <ele>615.3811035</ele>
        <time>2014-03-29T07:00:09Z</time>
      </trkpt>
      <trkpt lat="44.2726" lon="2.6861">
        <ele>616.3422852</ele>
        <time>2014-03-29T07:00:14Z</time>
      </trkpt>
      <trkpt lat="44.2727" lon="2.68609">
        <ele>618.2648926</ele>
        <time>2014-03-29T07:00:19Z</time>
      </trkpt>
      <trkpt lat="44.27272" lon="2.68609">
        <ele>617.3037109</ele>
        <time>2014-03-29T07:00:20Z</time>
      </trkpt>
      <trkpt lat="44.27284" lon="2.68603">
        <ele>622.5910645</ele>
        <time>2014-03-29T07:00:26Z</time>
      </trkpt>
      <trkpt lat="44.27297" lon="2.68591">
        <ele>632.6848145</ele>
        <time>2014-03-29T07:00:32Z</time>
      </trkpt>
      <trkpt lat="44.27306" lon="2.68587">
        <ele>635.5686035</ele>
        <time>2014-03-29T07:00:36Z</time>
      </trkpt>
      <trkpt lat="44.27317" lon="2.68583">
        <ele>637.972168</ele>
        <time>2014-03-29T07:00:42Z</time>
      </trkpt>
      <trkpt lat="44.27321" lon="2.68583">
        <ele>635.0881348</ele>
        <time>2014-03-29T07:00:46Z</time>
      </trkpt>
      <trkpt lat="44.27327" lon="2.68583">
        <ele>635.5686035</ele>
        <time>2014-03-29T07:00:50Z</time>
      </trkpt>
      <trkpt lat="44.27334" lon="2.68581">
        <ele>637.4914551</ele>
        <time>2014-03-29T07:00:55Z</time>
      </trkpt>
      <trkpt lat="44.27338" lon="2.68579">
        <ele>637.4914551</ele>
        <time>2014-03-29T07:00:58Z</time>
      </trkpt>
      <trkpt lat="44.27345" lon="2.68575">
        <ele>637.972168</ele>
        <time>2014-03-29T07:01:04Z</time>
      </trkpt>
      <trkpt lat="44.27352" lon="2.68571">
        <ele>638.4528809</ele>
        <time>2014-03-29T07:01:09Z</time>
      </trkpt>
      <trkpt lat="44.27355" lon="2.6857">
        <ele>637.4914551</ele>
        <time>2014-03-29T07:01:11Z</time>
      </trkpt>
      <trkpt lat="44.2736" lon="2.68573">
        <ele>639.4140625</ele>
        <time>2014-03-29T07:01:16Z</time>
      </trkpt>
      <trkpt lat="44.27354" lon="2.68583">
        <ele>639.8947754</ele>
        <time>2014-03-29T07:01:23Z</time>
      </trkpt>
      <trkpt lat="44.2735" lon="2.6859">
        <ele>641.3366699</ele>
        <time>2014-03-29T07:01:28Z</time>
      </trkpt>
      <trkpt lat="44.2735" lon="2.68593">
        <ele>640.855957</ele>
        <time>2014-03-29T07:01:30Z</time>
      </trkpt>
      <trkpt lat="44.27347" lon="2.68598">
        <ele>639.4140625</ele>
        <time>2014-03-29T07:01:34Z</time>
      </trkpt>
      <trkpt lat="44.27342" lon="2.68607">
        <ele>639.4140625</ele>
        <time>2014-03-29T07:01:40Z</time>
      </trkpt>
      <trkpt lat="44.27336" lon="2.68613">
        <ele>640.3754883</ele>
        <time>2014-03-29T07:01:45Z</time>
      </trkpt>
      <trkpt lat="44.27331" lon="2.68621">
        <ele>642.7788086</ele>
        <time>2014-03-29T07:01:50Z</time>
      </trkpt>
      <trkpt lat="44.27325" lon="2.6863">
        <ele>644.2207031</ele>
        <time>2014-03-29T07:01:56Z</time>
      </trkpt>
      <trkpt lat="44.2732" lon="2.68635">
        <ele>644.2207031</ele>
        <time>2014-03-29T07:02:00Z</time>
      </trkpt>
      <trkpt lat="44.27312" lon="2.68643">
        <ele>643.2592773</ele>
        <time>2014-03-29T07:02:07Z</time>
      </trkpt>
      <trkpt lat="44.27307" lon="2.68647">
        <ele>643.2592773</ele>
        <time>2014-03-29T07:02:12Z</time>
      </trkpt>
      <trkpt lat="44.273" lon="2.68652">
        <ele>642.7788086</ele>
        <time>2014-03-29T07:02:19Z</time>
      </trkpt>
      <trkpt lat="44.27295" lon="2.68659">
        <ele>646.6240234</ele>
        <time>2014-03-29T07:02:25Z</time>
      </trkpt>
      <trkpt lat="44.27296" lon="2.68665">
        <ele>646.6240234</ele>
        <time>2014-03-29T07:02:29Z</time>
      </trkpt>
      <trkpt lat="44.27301" lon="2.68666">
        <ele>647.5852051</ele>
        <time>2014-03-29T07:02:37Z</time>
      </trkpt>
      <trkpt lat="44.27301" lon="2.68661">
        <ele>654.3146973</ele>
        <time>2014-03-29T07:02:50Z</time>
      </trkpt>
      <trkpt lat="44.27302" lon="2.6866">
        <ele>655.2758789</ele>
        <time>2014-03-29T07:02:51Z</time>
      </trkpt>
      <trkpt lat="44.27313" lon="2.68656">
        <ele>657.6791992</ele>
        <time>2014-03-29T07:02:59Z</time>
      </trkpt>
      <trkpt lat="44.27322" lon="2.68653">
        <ele>658.1599121</ele>
        <time>2014-03-29T07:03:06Z</time>
      </trkpt>
      <trkpt lat="44.27329" lon="2.6865">
        <ele>662.005127</ele>
        <time>2014-03-29T07:03:12Z</time>
      </trkpt>
      <trkpt lat="44.27338" lon="2.68645">
        <ele>664.888916</ele>
        <time>2014-03-29T07:03:18Z</time>
      </trkpt>
      <trkpt lat="44.27345" lon="2.68642">
        <ele>664.888916</ele>
        <time>2014-03-29T07:03:23Z</time>
      </trkpt>
      <trkpt lat="44.27349" lon="2.68638">
        <ele>664.888916</ele>
        <time>2014-03-29T07:03:27Z</time>
      </trkpt>
      <trkpt lat="44.27358" lon="2.68634">
        <ele>663.4470215</ele>
        <time>2014-03-29T07:03:34Z</time>
      </trkpt>
      <trkpt lat="44.27366" lon="2.68629">
        <ele>665.8503418</ele>
        <time>2014-03-29T07:03:41Z</time>
      </trkpt>
      <trkpt lat="44.27372" lon="2.68627">
        <ele>664.888916</ele>
        <time>2014-03-29T07:03:46Z</time>
      </trkpt>
      <trkpt lat="44.27381" lon="2.68621">
        <ele>667.2922363</ele>
        <time>2014-03-29T07:03:53Z</time>
      </trkpt>
      <trkpt lat="44.27389" lon="2.68616">
        <ele>669.6958008</ele>
        <time>2014-03-29T07:03:58Z</time>
      </trkpt>
      <trkpt lat="44.27402" lon="2.68609">
        <ele>669.6958008</ele>
        <time>2014-03-29T07:04:03Z</time>
      </trkpt>
      <trkpt lat="44.27411" lon="2.68603">
        <ele>670.1762695</ele>
        <time>2014-03-29T07:04:07Z</time>
      </trkpt>
      <trkpt lat="44.27422" lon="2.68597">
        <ele>670.6569824</ele>
        <time>2014-03-29T07:04:12Z</time>
      </trkpt>
      <trkpt lat="44.27431" lon="2.68586">
        <ele>671.1376953</ele>
        <time>2014-03-29T07:04:17Z</time>
      </trkpt>
      <trkpt lat="44.2744" lon="2.68578">
        <ele>670.6569824</ele>
        <time>2014-03-29T07:04:22Z</time>
      </trkpt>
      <trkpt lat="44.27449" lon="2.68569">
        <ele>674.9829102</ele>
        <time>2014-03-29T07:04:26Z</time>
      </trkpt>
      <trkpt lat="44.27452" lon="2.68567">
        <ele>674.9829102</ele>
        <time>2014-03-29T07:04:28Z</time>
      </trkpt>
      <trkpt lat="44.27461" lon="2.68565">
        <ele>674.9829102</ele>
        <time>2014-03-29T07:04:33Z</time>
      </trkpt>
      <trkpt lat="44.27471" lon="2.68563">
        <ele>673.5410156</ele>
        <time>2014-03-29T07:04:38Z</time>
      </trkpt>
      <trkpt lat="44.27479" lon="2.6856">
        <ele>674.0214844</ele>
        <time>2014-03-29T07:04:42Z</time>
      </trkpt>
      <trkpt lat="44.27483" lon="2.68564">
        <ele>674.0214844</ele>
        <time>2014-03-29T07:04:44Z</time>
      </trkpt>
      <trkpt lat="44.27485" lon="2.68583">
        <ele>674.5021973</ele>
        <time>2014-03-29T07:04:50Z</time>
      </trkpt>
      <trkpt lat="44.27485" lon="2.68591">
        <ele>675.4633789</ele>
        <time>2014-03-29T07:04:53Z</time>
      </trkpt>
      <trkpt lat="44.27488" lon="2.68602">
        <ele>674.5021973</ele>
        <time>2014-03-29T07:04:58Z</time>
      </trkpt>
      <trkpt lat="44.27488" lon="2.68605">
        <ele>674.5021973</ele>
        <time>2014-03-29T07:04:59Z</time>
      </trkpt>
      <trkpt lat="44.27493" lon="2.68625">
        <ele>678.3474121</ele>
        <time>2014-03-29T07:05:05Z</time>
      </trkpt>
      <trkpt lat="44.2749" lon="2.68638">
        <ele>681.2314453</ele>
        <time>2014-03-29T07:05:10Z</time>
      </trkpt>
      <trkpt lat="44.27484" lon="2.68647">
        <ele>683.1538086</ele>
        <time>2014-03-29T07:05:15Z</time>
      </trkpt>
      <trkpt lat="44.2748" lon="2.68652">
        <ele>686.5187988</ele>
        <time>2014-03-29T07:05:19Z</time>
      </trkpt>
      <trkpt lat="44.27473" lon="2.68658">
        <ele>687.9606934</ele>
        <time>2014-03-29T07:05:23Z</time>
      </trkpt>
      <trkpt lat="44.27459" lon="2.68665">
        <ele>687.9606934</ele>
        <time>2014-03-29T07:05:29Z</time>
      </trkpt>
      <trkpt lat="44.27447" lon="2.68672">
        <ele>687.9606934</ele>
        <time>2014-03-29T07:05:34Z</time>
      </trkpt>
      <trkpt lat="44.27441" lon="2.68675">
        <ele>689.8833008</ele>
        <time>2014-03-29T07:05:37Z</time>
      </trkpt>
      <trkpt lat="44.27428" lon="2.68683">
        <ele>689.4025879</ele>
        <time>2014-03-29T07:05:44Z</time>
      </trkpt>
      <trkpt lat="44.27421" lon="2.6869">
        <ele>689.4025879</ele>
        <time>2014-03-29T07:05:47Z</time>
      </trkpt>
      <trkpt lat="44.27408" lon="2.68698">
        <ele>689.4025879</ele>
        <time>2014-03-29T07:05:52Z</time>
      </trkpt>
      <trkpt lat="44.27399" lon="2.687">
        <ele>689.8833008</ele>
        <time>2014-03-29T07:05:56Z</time>
      </trkpt>
      <trkpt lat="44.27393" lon="2.68702">
        <ele>689.4025879</ele>
        <time>2014-03-29T07:05:59Z</time>
      </trkpt>
      <trkpt lat="44.27379" lon="2.68712">
        <ele>688.9221191</ele>
        <time>2014-03-29T07:06:05Z</time>
      </trkpt>
      <trkpt lat="44.27366" lon="2.68721">
        <ele>688.4414063</ele>
        <time>2014-03-29T07:06:10Z</time>
      </trkpt>
      <trkpt lat="44.27356" lon="2.68729">
        <ele>688.9221191</ele>
        <time>2014-03-29T07:06:15Z</time>
      </trkpt>
      <trkpt lat="44.27343" lon="2.68736">
        <ele>688.4414063</ele>
        <time>2014-03-29T07:06:21Z</time>
      </trkpt>
      <trkpt lat="44.27331" lon="2.68743">
        <ele>688.4414063</ele>
        <time>2014-03-29T07:06:26Z</time>
      </trkpt>
      <trkpt lat="44.27321" lon="2.68747">
        <ele>688.4414063</ele>
        <time>2014-03-29T07:06:31Z</time>
      </trkpt>
      <trkpt lat="44.27317" lon="2.68748">
        <ele>687.9606934</ele>
        <time>2014-03-29T07:06:33Z</time>
      </trkpt>
      <trkpt lat="44.27308" lon="2.68749">
        <ele>688.9221191</ele>
        <time>2014-03-29T07:06:38Z</time>
      </trkpt>
      <trkpt lat="44.27304" lon="2.68751">
        <ele>689.4025879</ele>
        <time>2014-03-29T07:06:40Z</time>
      </trkpt>
      <trkpt lat="44.27292" lon="2.68757">
        <ele>691.3251953</ele>
        <time>2014-03-29T07:06:46Z</time>
      </trkpt>
      <trkpt lat="44.27281" lon="2.68764">
        <ele>693.2478027</ele>
        <time>2014-03-29T07:06:51Z</time>
      </trkpt>
      <trkpt lat="44.27273" lon="2.6877">
        <ele>697.0930176</ele>
        <time>2014-03-29T07:06:55Z</time>
      </trkpt>
      <trkpt lat="44.27265" lon="2.68772">
        <ele>699.9770508</ele>
        <time>2014-03-29T07:07:00Z</time>
      </trkpt>
      <trkpt lat="44.27254" lon="2.68779">
        <ele>702.3803711</ele>
        <time>2014-03-29T07:07:06Z</time>
      </trkpt>
      <trkpt lat="44.27243" lon="2.68785">
        <ele>703.3417969</ele>
        <time>2014-03-29T07:07:14Z</time>
      </trkpt>
      <trkpt lat="44.27237" lon="2.68787">
        <ele>702.3803711</ele>
        <time>2014-03-29T07:07:19Z</time>
      </trkpt>
      <trkpt lat="44.2723" lon="2.68789">
        <ele>703.8225098</ele>
        <time>2014-03-29T07:07:24Z</time>
      </trkpt>
      <trkpt lat="44.27223" lon="2.68787">
        <ele>704.7836914</ele>
        <time>2014-03-29T07:07:28Z</time>
      </trkpt>
      <trkpt lat="44.27219" lon="2.68784">
        <ele>705.2644043</ele>
        <time>2014-03-29T07:07:32Z</time>
      </trkpt>
      <trkpt lat="44.27214" lon="2.68782">
        <ele>706.7062988</ele>
        <time>2014-03-29T07:07:36Z</time>
      </trkpt>
      <trkpt lat="44.27209" lon="2.68779">
        <ele>706.7062988</ele>
        <time>2014-03-29T07:07:40Z</time>
      </trkpt>
      <trkpt lat="44.27202" lon="2.68777">
        <ele>709.1096191</ele>
        <time>2014-03-29T07:07:47Z</time>
      </trkpt>
      <trkpt lat="44.27199" lon="2.68781">
        <ele>710.5515137</ele>
        <time>2014-03-29T07:07:52Z</time>
      </trkpt>
      <trkpt lat="44.27195" lon="2.68789">
        <ele>713.4355469</ele>
        <time>2014-03-29T07:07:58Z</time>
      </trkpt>
      <trkpt lat="44.27192" lon="2.68798">
        <ele>715.8388672</ele>
        <time>2014-03-29T07:08:03Z</time>
      </trkpt>
      <trkpt lat="44.27189" lon="2.68807">
        <ele>718.7229004</ele>
        <time>2014-03-29T07:08:08Z</time>
      </trkpt>
      <trkpt lat="44.27186" lon="2.68814">
        <ele>719.2036133</ele>
        <time>2014-03-29T07:08:12Z</time>
      </trkpt>
      <trkpt lat="44.2718" lon="2.68821">
        <ele>717.2810059</ele>
        <time>2014-03-29T07:08:17Z</time>
      </trkpt>
      <trkpt lat="44.27174" lon="2.68829">
        <ele>716.800293</ele>
        <time>2014-03-29T07:08:24Z</time>
      </trkpt>
      <trkpt lat="44.27172" lon="2.68833">
        <ele>716.800293</ele>
        <time>2014-03-29T07:08:27Z</time>
      </trkpt>
      <trkpt lat="44.2717" lon="2.6884">
        <ele>718.7229004</ele>
        <time>2014-03-29T07:08:32Z</time>
      </trkpt>
      <trkpt lat="44.27167" lon="2.68847">
        <ele>720.6455078</ele>
        <time>2014-03-29T07:08:36Z</time>
      </trkpt>
      <trkpt lat="44.27164" lon="2.68852">
        <ele>722.0874023</ele>
        <time>2014-03-29T07:08:40Z</time>
      </trkpt>
      <trkpt lat="44.27164" lon="2.68856">
        <ele>724.4907227</ele>
        <time>2014-03-29T07:08:43Z</time>
      </trkpt>
      <trkpt lat="44.27161" lon="2.68867">
        <ele>727.3747559</ele>
        <time>2014-03-29T07:08:50Z</time>
      </trkpt>
      <trkpt lat="44.27154" lon="2.68879">
        <ele>725.9326172</ele>
        <time>2014-03-29T07:08:55Z</time>
      </trkpt>
      <trkpt lat="44.2715" lon="2.68886">
        <ele>724.9714355</ele>
        <time>2014-03-29T07:08:59Z</time>
      </trkpt>
      <trkpt lat="44.27145" lon="2.68895">
        <ele>725.9326172</ele>
        <time>2014-03-29T07:09:05Z</time>
      </trkpt>
      <trkpt lat="44.2714" lon="2.68908">
        <ele>726.4133301</ele>
        <time>2014-03-29T07:09:12Z</time>
      </trkpt>
      <trkpt lat="44.27138" lon="2.68917">
        <ele>727.8552246</ele>
        <time>2014-03-29T07:09:16Z</time>
      </trkpt>
      <trkpt lat="44.27131" lon="2.68922">
        <ele>729.777832</ele>
        <time>2014-03-29T07:09:23Z</time>
      </trkpt>
      <trkpt lat="44.27128" lon="2.68913">
        <ele>729.2971191</ele>
        <time>2014-03-29T07:09:28Z</time>
      </trkpt>
      <trkpt lat="44.27126" lon="2.68908">
        <ele>728.8166504</ele>
        <time>2014-03-29T07:09:31Z</time>
      </trkpt>
      <trkpt lat="44.27124" lon="2.68897">
        <ele>726.4133301</ele>
        <time>2014-03-29T07:09:37Z</time>
      </trkpt>
      <trkpt lat="44.27122" lon="2.68888">
        <ele>726.894043</ele>
        <time>2014-03-29T07:09:42Z</time>
      </trkpt>
      <trkpt lat="44.2712" lon="2.68874">
        <ele>728.8166504</ele>
        <time>2014-03-29T07:09:49Z</time>
      </trkpt>
      <trkpt lat="44.27118" lon="2.68865">
        <ele>729.777832</ele>
        <time>2014-03-29T07:09:54Z</time>
      </trkpt>
      <trkpt lat="44.27116" lon="2.68853">
        <ele>731.7004395</ele>
        <time>2014-03-29T07:10:00Z</time>
      </trkpt>
      <trkpt lat="44.27114" lon="2.68842">
        <ele>733.1425781</ele>
        <time>2014-03-29T07:10:05Z</time>
      </trkpt>
      <trkpt lat="44.27109" lon="2.68832">
        <ele>736.0266113</ele>
        <time>2014-03-29T07:10:11Z</time>
      </trkpt>
      <trkpt lat="44.27109" lon="2.6883">
        <ele>736.5073242</ele>
        <time>2014-03-29T07:10:12Z</time>
      </trkpt>
      <trkpt lat="44.27105" lon="2.68825">
        <ele>737.4685059</ele>
        <time>2014-03-29T07:10:16Z</time>
      </trkpt>
      <trkpt lat="44.27096" lon="2.68817">
        <ele>738.9106445</ele>
        <time>2014-03-29T07:10:24Z</time>
      </trkpt>
      <trkpt lat="44.27095" lon="2.68815">
        <ele>739.3911133</ele>
        <time>2014-03-29T07:10:25Z</time>
      </trkpt>
      <trkpt lat="44.27089" lon="2.6881">
        <ele>740.8330078</ele>
        <time>2014-03-29T07:10:31Z</time>
      </trkpt>
      <trkpt lat="44.27084" lon="2.68801">
        <ele>742.2751465</ele>
        <time>2014-03-29T07:10:37Z</time>
      </trkpt>
      <trkpt lat="44.27079" lon="2.6879">
        <ele>743.2363281</ele>
        <time>2014-03-29T07:10:43Z</time>
      </trkpt>
      <trkpt lat="44.27074" lon="2.6878">
        <ele>744.1977539</ele>
        <time>2014-03-29T07:10:47Z</time>
      </trkpt>
      <trkpt lat="44.27069" lon="2.68767">
        <ele>745.1589355</ele>
        <time>2014-03-29T07:10:52Z</time>
      </trkpt>
      <trkpt lat="44.27063" lon="2.68753">
        <ele>745.1589355</ele>
        <time>2014-03-29T07:10:57Z</time>
      </trkpt>
      <trkpt lat="44.27062" lon="2.6875">
        <ele>745.1589355</ele>
        <time>2014-03-29T07:10:58Z</time>
      </trkpt>
      <trkpt lat="44.2705" lon="2.68737">
        <ele>747.081543</ele>
        <time>2014-03-29T07:11:05Z</time>
      </trkpt>
      <trkpt lat="44.27042" lon="2.68733">
        <ele>748.0432129</ele>
        <time>2014-03-29T07:11:09Z</time>
      </trkpt>
      <trkpt lat="44.27034" lon="2.68733">
        <ele>748.5236816</ele>
        <time>2014-03-29T07:11:13Z</time>
      </trkpt>
      <trkpt lat="44.27024" lon="2.68734">
        <ele>749.0043945</ele>
        <time>2014-03-29T07:11:18Z</time>
      </trkpt>
      <trkpt lat="44.27012" lon="2.68735">
        <ele>749.9658203</ele>
        <time>2014-03-29T07:11:24Z</time>
      </trkpt>
      <trkpt lat="44.27002" lon="2.68736">
        <ele>750.4465332</ele>
        <time>2014-03-29T07:11:30Z</time>
      </trkpt>
      <trkpt lat="44.26993" lon="2.68736">
        <ele>752.3688965</ele>
        <time>2014-03-29T07:11:36Z</time>
      </trkpt>
      <trkpt lat="44.26991" lon="2.68736">
        <ele>752.3688965</ele>
        <time>2014-03-29T07:11:37Z</time>
      </trkpt>
      <trkpt lat="44.26987" lon="2.68735">
        <ele>754.7722168</ele>
        <time>2014-03-29T07:11:41Z</time>
      </trkpt>
      <trkpt lat="44.26979" lon="2.68736">
        <ele>757.1755371</ele>
        <time>2014-03-29T07:11:46Z</time>
      </trkpt>
      <trkpt lat="44.26971" lon="2.68735">
        <ele>759.5788574</ele>
        <time>2014-03-29T07:11:52Z</time>
      </trkpt>
      <trkpt lat="44.26964" lon="2.68735">
        <ele>760.5400391</ele>
        <time>2014-03-29T07:11:57Z</time>
      </trkpt>
      <trkpt lat="44.26956" lon="2.68735">
        <ele>762.4626465</ele>
        <time>2014-03-29T07:12:03Z</time>
      </trkpt>
      <trkpt lat="44.26954" lon="2.68735">
        <ele>762.4626465</ele>
        <time>2014-03-29T07:12:04Z</time>
      </trkpt>
      <trkpt lat="44.26948" lon="2.68736">
        <ele>763.4240723</ele>
        <time>2014-03-29T07:12:09Z</time>
      </trkpt>
      <trkpt lat="44.26942" lon="2.68737">
        <ele>765.3469238</ele>
        <time>2014-03-29T07:12:14Z</time>
      </trkpt>
      <trkpt lat="44.26941" lon="2.68737">
        <ele>765.3469238</ele>
        <time>2014-03-29T07:12:15Z</time>
      </trkpt>
      <trkpt lat="44.26938" lon="2.68737">
        <ele>765.8276367</ele>
        <time>2014-03-29T07:12:17Z</time>
      </trkpt>
      <trkpt lat="44.26931" lon="2.68738">
        <ele>766.7888184</ele>
        <time>2014-03-29T07:12:23Z</time>
      </trkpt>
      <trkpt lat="44.26923" lon="2.68739">
        <ele>767.75</ele>
        <time>2014-03-29T07:12:29Z</time>
      </trkpt>
      <trkpt lat="44.26922" lon="2.68739">
        <ele>767.75</ele>
        <time>2014-03-29T07:12:30Z</time>
      </trkpt>
      <trkpt lat="44.26913" lon="2.68737">
        <ele>769.6728516</ele>
        <time>2014-03-29T07:12:37Z</time>
      </trkpt>
      <trkpt lat="44.26906" lon="2.68734">
        <ele>771.1147461</ele>
        <time>2014-03-29T07:12:42Z</time>
      </trkpt>
      <trkpt lat="44.26901" lon="2.68728">
        <ele>771.1147461</ele>
        <time>2014-03-29T07:12:46Z</time>
      </trkpt>
      <trkpt lat="44.26892" lon="2.68721">
        <ele>771.5952148</ele>
        <time>2014-03-29T07:12:51Z</time>
      </trkpt>
      <trkpt lat="44.26883" lon="2.68711">
        <ele>772.5566406</ele>
        <time>2014-03-29T07:12:57Z</time>
      </trkpt>
      <trkpt lat="44.26876" lon="2.68703">
        <ele>773.5180664</ele>
        <time>2014-03-29T07:13:03Z</time>
      </trkpt>
      <trkpt lat="44.26869" lon="2.68694">
        <ele>774.479248</ele>
        <time>2014-03-29T07:13:09Z</time>
      </trkpt>
      <trkpt lat="44.26866" lon="2.68689">
        <ele>775.4404297</ele>
        <time>2014-03-29T07:13:13Z</time>
      </trkpt>
      <trkpt lat="44.26864" lon="2.68687">
        <ele>774.9599609</ele>
        <time>2014-03-29T07:13:21Z</time>
      </trkpt>
      <trkpt lat="44.26863" lon="2.68687">
        <ele>773.9985352</ele>
        <time>2014-03-29T07:13:40Z</time>
      </trkpt>
      <trkpt lat="44.26861" lon="2.68684">
        <ele>773.0373535</ele>
        <time>2014-03-29T07:13:53Z</time>
      </trkpt>
      <trkpt lat="44.26853" lon="2.68674">
        <ele>774.479248</ele>
        <time>2014-03-29T07:13:58Z</time>
      </trkpt>
      <trkpt lat="44.26846" lon="2.68662">
        <ele>775.9211426</ele>
        <time>2014-03-29T07:14:03Z</time>
      </trkpt>
      <trkpt lat="44.26837" lon="2.6865">
        <ele>776.8825684</ele>
        <time>2014-03-29T07:14:08Z</time>
      </trkpt>
      <trkpt lat="44.26826" lon="2.68635">
        <ele>776.8825684</ele>
        <time>2014-03-29T07:14:14Z</time>
      </trkpt>
      <trkpt lat="44.26817" lon="2.68622">
        <ele>776.8825684</ele>
        <time>2014-03-29T07:14:19Z</time>
      </trkpt>
      <trkpt lat="44.26804" lon="2.68608">
        <ele>776.4018555</ele>
        <time>2014-03-29T07:14:25Z</time>
      </trkpt>
      <trkpt lat="44.26796" lon="2.68601">
        <ele>776.4018555</ele>
        <time>2014-03-29T07:14:29Z</time>
      </trkpt>
      <trkpt lat="44.26785" lon="2.68591">
        <ele>776.4018555</ele>
        <time>2014-03-29T07:14:34Z</time>
      </trkpt>
      <trkpt lat="44.26768" lon="2.68576">
        <ele>777.3632813</ele>
        <time>2014-03-29T07:14:41Z</time>
      </trkpt>
      <trkpt lat="44.26753" lon="2.68564">
        <ele>776.8825684</ele>
        <time>2014-03-29T07:14:47Z</time>
      </trkpt>
      <trkpt lat="44.26743" lon="2.68555">
        <ele>776.4018555</ele>
        <time>2014-03-29T07:14:51Z</time>
      </trkpt>
      <trkpt lat="44.26729" lon="2.68544">
        <ele>776.8825684</ele>
        <time>2014-03-29T07:14:57Z</time>
      </trkpt>
      <trkpt lat="44.26716" lon="2.68541">
        <ele>776.8825684</ele>
        <time>2014-03-29T07:15:02Z</time>
      </trkpt>
      <trkpt lat="44.26709" lon="2.68543">
        <ele>777.84375</ele>
        <time>2014-03-29T07:15:05Z</time>
      </trkpt>
      <trkpt lat="44.26704" lon="2.68549">
        <ele>777.84375</ele>
        <time>2014-03-29T07:15:10Z</time>
      </trkpt>
      <trkpt lat="44.26702" lon="2.68554">
        <ele>778.3244629</ele>
        <time>2014-03-29T07:15:14Z</time>
      </trkpt>
      <trkpt lat="44.26699" lon="2.68562">
        <ele>780.2473145</ele>
        <time>2014-03-29T07:15:20Z</time>
      </trkpt>
      <trkpt lat="44.26696" lon="2.68568">
        <ele>781.2087402</ele>
        <time>2014-03-29T07:15:25Z</time>
      </trkpt>
      <trkpt lat="44.26693" lon="2.68577">
        <ele>782.6506348</ele>
        <time>2014-03-29T07:15:31Z</time>
      </trkpt>
      <trkpt lat="44.2669" lon="2.68587">
        <ele>784.5732422</ele>
        <time>2014-03-29T07:15:37Z</time>
      </trkpt>
      <trkpt lat="44.26689" lon="2.68589">
        <ele>785.0539551</ele>
        <time>2014-03-29T07:15:38Z</time>
      </trkpt>
      <trkpt lat="44.26688" lon="2.68603">
        <ele>786.4958496</ele>
        <time>2014-03-29T07:15:46Z</time>
      </trkpt>
      <trkpt lat="44.26687" lon="2.68614">
        <ele>787.4570313</ele>
        <time>2014-03-29T07:15:52Z</time>
      </trkpt>
      <trkpt lat="44.26684" lon="2.68632">
        <ele>789.8603516</ele>
        <time>2014-03-29T07:16:01Z</time>
      </trkpt>
      <trkpt lat="44.26682" lon="2.68643">
        <ele>791.3022461</ele>
        <time>2014-03-29T07:16:07Z</time>
      </trkpt>
      <trkpt lat="44.2668" lon="2.68653">
        <ele>792.2636719</ele>
        <time>2014-03-29T07:16:12Z</time>
      </trkpt>
      <trkpt lat="44.26674" lon="2.68665">
        <ele>794.1862793</ele>
        <time>2014-03-29T07:16:19Z</time>
      </trkpt>
      <trkpt lat="44.2667" lon="2.68675">
        <ele>795.1474609</ele>
        <time>2014-03-29T07:16:25Z</time>
      </trkpt>
      <trkpt lat="44.26666" lon="2.68683">
        <ele>795.1474609</ele>
        <time>2014-03-29T07:16:30Z</time>
      </trkpt>
      <trkpt lat="44.26659" lon="2.68693">
        <ele>796.1091309</ele>
        <time>2014-03-29T07:16:37Z</time>
      </trkpt>
      <trkpt lat="44.26649" lon="2.68707">
        <ele>796.5898438</ele>
        <time>2014-03-29T07:16:44Z</time>
      </trkpt>
      <trkpt lat="44.26638" lon="2.68727">
        <ele>797.5510254</ele>
        <time>2014-03-29T07:16:52Z</time>
      </trkpt>
      <trkpt lat="44.26631" lon="2.68741">
        <ele>797.5510254</ele>
        <time>2014-03-29T07:16:57Z</time>
      </trkpt>
      <trkpt lat="44.26629" lon="2.68747">
        <ele>798.0317383</ele>
        <time>2014-03-29T07:16:59Z</time>
      </trkpt>
      <trkpt lat="44.26626" lon="2.68764">
        <ele>798.512207</ele>
        <time>2014-03-29T07:17:05Z</time>
      </trkpt>
      <trkpt lat="44.26626" lon="2.68779">
        <ele>799.4736328</ele>
        <time>2014-03-29T07:17:10Z</time>
      </trkpt>
      <trkpt lat="44.26626" lon="2.68797">
        <ele>801.3962402</ele>
        <time>2014-03-29T07:17:15Z</time>
      </trkpt>
      <trkpt lat="44.26624" lon="2.68812">
        <ele>802.8381348</ele>
        <time>2014-03-29T07:17:20Z</time>
      </trkpt>
      <trkpt lat="44.26622" lon="2.68818">
        <ele>802.8381348</ele>
        <time>2014-03-29T07:17:22Z</time>
      </trkpt>
      <trkpt lat="44.26618" lon="2.68827">
        <ele>803.7995605</ele>
        <time>2014-03-29T07:17:26Z</time>
      </trkpt>
      <trkpt lat="44.26607" lon="2.68846">
        <ele>805.2414551</ele>
        <time>2014-03-29T07:17:34Z</time>
      </trkpt>
      <trkpt lat="44.26599" lon="2.68856">
        <ele>805.2414551</ele>
        <time>2014-03-29T07:17:39Z</time>
      </trkpt>
      <trkpt lat="44.26594" lon="2.68865">
        <ele>806.6833496</ele>
        <time>2014-03-29T07:17:43Z</time>
      </trkpt>
      <trkpt lat="44.26586" lon="2.68874">
        <ele>807.1640625</ele>
        <time>2014-03-29T07:17:48Z</time>
      </trkpt>
      <trkpt lat="44.26581" lon="2.68877">
        <ele>807.6447754</ele>
        <time>2014-03-29T07:17:50Z</time>
      </trkpt>
      <trkpt lat="44.26569" lon="2.68883">
        <ele>808.605957</ele>
        <time>2014-03-29T07:17:55Z</time>
      </trkpt>
      <trkpt lat="44.2656" lon="2.6889">
        <ele>809.0866699</ele>
        <time>2014-03-29T07:18:00Z</time>
      </trkpt>
      <trkpt lat="44.26548" lon="2.68899">
        <ele>810.0478516</ele>
        <time>2014-03-29T07:18:05Z</time>
      </trkpt>
      <trkpt lat="44.26537" lon="2.68905">
        <ele>810.0478516</ele>
        <time>2014-03-29T07:18:10Z</time>
      </trkpt>
      <trkpt lat="44.26524" lon="2.68914">
        <ele>810.0478516</ele>
        <time>2014-03-29T07:18:16Z</time>
      </trkpt>
      <trkpt lat="44.26514" lon="2.68922">
        <ele>809.5673828</ele>
        <time>2014-03-29T07:18:21Z</time>
      </trkpt>
      <trkpt lat="44.26503" lon="2.68933">
        <ele>808.605957</ele>
        <time>2014-03-29T07:18:27Z</time>
      </trkpt>
      <trkpt lat="44.26491" lon="2.68946">
        <ele>807.6447754</ele>
        <time>2014-03-29T07:18:33Z</time>
      </trkpt>
      <trkpt lat="44.26481" lon="2.68962">
        <ele>808.605957</ele>
        <time>2014-03-29T07:18:39Z</time>
      </trkpt>
      <trkpt lat="44.26468" lon="2.68979">
        <ele>809.0866699</ele>
        <time>2014-03-29T07:18:46Z</time>
      </trkpt>
      <trkpt lat="44.26457" lon="2.68992">
        <ele>809.5673828</ele>
        <time>2014-03-29T07:18:52Z</time>
      </trkpt>
      <trkpt lat="44.26448" lon="2.69002">
        <ele>810.0478516</ele>
        <time>2014-03-29T07:18:57Z</time>
      </trkpt>
      <trkpt lat="44.26439" lon="2.69014">
        <ele>810.5285645</ele>
        <time>2014-03-29T07:19:02Z</time>
      </trkpt>
      <trkpt lat="44.26429" lon="2.69026">
        <ele>812.451416</ele>
        <time>2014-03-29T07:19:08Z</time>
      </trkpt>
      <trkpt lat="44.26424" lon="2.69031">
        <ele>812.451416</ele>
        <time>2014-03-29T07:19:11Z</time>
      </trkpt>
      <trkpt lat="44.26417" lon="2.69038">
        <ele>813.4128418</ele>
        <time>2014-03-29T07:19:15Z</time>
      </trkpt>
      <trkpt lat="44.26411" lon="2.69043">
        <ele>814.3740234</ele>
        <time>2014-03-29T07:19:18Z</time>
      </trkpt>
      <trkpt lat="44.26404" lon="2.69045">
        <ele>815.3354492</ele>
        <time>2014-03-29T07:19:22Z</time>
      </trkpt>
      <trkpt lat="44.2639" lon="2.69053">
        <ele>816.2966309</ele>
        <time>2014-03-29T07:19:29Z</time>
      </trkpt>
      <trkpt lat="44.26379" lon="2.69055">
        <ele>816.7773438</ele>
        <time>2014-03-29T07:19:34Z</time>
      </trkpt>
      <trkpt lat="44.26366" lon="2.69059">
        <ele>818.6999512</ele>
        <time>2014-03-29T07:19:40Z</time>
      </trkpt>
      <trkpt lat="44.26356" lon="2.69064">
        <ele>818.6999512</ele>
        <time>2014-03-29T07:19:44Z</time>
      </trkpt>
      <trkpt lat="44.2634" lon="2.69071">
        <ele>819.661377</ele>
        <time>2014-03-29T07:19:50Z</time>
      </trkpt>
      <trkpt lat="44.26332" lon="2.69073">
        <ele>818.6999512</ele>
        <time>2014-03-29T07:19:54Z</time>
      </trkpt>
      <trkpt lat="44.26319" lon="2.69079">
        <ele>819.661377</ele>
        <time>2014-03-29T07:19:59Z</time>
      </trkpt>
      <trkpt lat="44.2631" lon="2.6908">
        <ele>820.1418457</ele>
        <time>2014-03-29T07:20:03Z</time>
      </trkpt>
      <trkpt lat="44.26301" lon="2.69082">
        <ele>817.7385254</ele>
        <time>2014-03-29T07:20:07Z</time>
      </trkpt>
      <trkpt lat="44.26288" lon="2.6909">
        <ele>819.1806641</ele>
        <time>2014-03-29T07:20:13Z</time>
      </trkpt>
      <trkpt lat="44.26284" lon="2.69092">
        <ele>819.661377</ele>
        <time>2014-03-29T07:20:14Z</time>
      </trkpt>
      <trkpt lat="44.26278" lon="2.69093">
        <ele>820.6225586</ele>
        <time>2014-03-29T07:20:17Z</time>
      </trkpt>
      <trkpt lat="44.26273" lon="2.69095">
        <ele>822.545166</ele>
        <time>2014-03-29T07:20:20Z</time>
      </trkpt>
      <trkpt lat="44.26259" lon="2.69106">
        <ele>825.4289551</ele>
        <time>2014-03-29T07:20:27Z</time>
      </trkpt>
      <trkpt lat="44.26244" lon="2.69119">
        <ele>823.9870605</ele>
        <time>2014-03-29T07:20:32Z</time>
      </trkpt>
      <trkpt lat="44.26223" lon="2.69132">
        <ele>823.9870605</ele>
        <time>2014-03-29T07:20:39Z</time>
      </trkpt>
      <trkpt lat="44.26215" lon="2.69139">
        <ele>822.545166</ele>
        <time>2014-03-29T07:20:43Z</time>
      </trkpt>
      <trkpt lat="44.26203" lon="2.69148">
        <ele>822.545166</ele>
        <time>2014-03-29T07:20:48Z</time>
      </trkpt>
      <trkpt lat="44.26194" lon="2.69155">
        <ele>822.545166</ele>
        <time>2014-03-29T07:20:52Z</time>
      </trkpt>
      <trkpt lat="44.26182" lon="2.69163">
        <ele>821.5837402</ele>
        <time>2014-03-29T07:20:57Z</time>
      </trkpt>
      <trkpt lat="44.26178" lon="2.69167">
        <ele>822.0644531</ele>
        <time>2014-03-29T07:20:59Z</time>
      </trkpt>
      <trkpt lat="44.2617" lon="2.69172">
        <ele>822.545166</ele>
        <time>2014-03-29T07:21:03Z</time>
      </trkpt>
      <trkpt lat="44.26163" lon="2.69174">
        <ele>824.4677734</ele>
        <time>2014-03-29T07:21:06Z</time>
      </trkpt>
      <trkpt lat="44.26148" lon="2.69174">
        <ele>823.5065918</ele>
        <time>2014-03-29T07:21:12Z</time>
      </trkpt>
      <trkpt lat="44.26137" lon="2.69179">
        <ele>825.909668</ele>
        <time>2014-03-29T07:21:17Z</time>
      </trkpt>
      <trkpt lat="44.26133" lon="2.69181">
        <ele>825.909668</ele>
        <time>2014-03-29T07:21:19Z</time>
      </trkpt>
      <trkpt lat="44.26122" lon="2.69188">
        <ele>824.9484863</ele>
        <time>2014-03-29T07:21:25Z</time>
      </trkpt>
      <trkpt lat="44.26102" lon="2.69205">
        <ele>822.545166</ele>
        <time>2014-03-29T07:21:32Z</time>
      </trkpt>
      <trkpt lat="44.26098" lon="2.69209">
        <ele>821.1032715</ele>
        <time>2014-03-29T07:21:34Z</time>
      </trkpt>
      <trkpt lat="44.26099" lon="2.69226">
        <ele>821.5837402</ele>
        <time>2014-03-29T07:21:39Z</time>
      </trkpt>
      <trkpt lat="44.26106" lon="2.69243">
        <ele>822.0644531</ele>
        <time>2014-03-29T07:21:44Z</time>
      </trkpt>
      <trkpt lat="44.26114" lon="2.69259">
        <ele>821.5837402</ele>
        <time>2014-03-29T07:21:49Z</time>
      </trkpt>
      <trkpt lat="44.26125" lon="2.69272">
        <ele>822.0644531</ele>
        <time>2014-03-29T07:21:54Z</time>
      </trkpt>
      <trkpt lat="44.26136" lon="2.6928">
        <ele>822.0644531</ele>
        <time>2014-03-29T07:21:59Z</time>
      </trkpt>
      <trkpt lat="44.2615" lon="2.6929">
        <ele>820.1418457</ele>
        <time>2014-03-29T07:22:05Z</time>
      </trkpt>
      <trkpt lat="44.26163" lon="2.69302">
        <ele>818.6999512</ele>
        <time>2014-03-29T07:22:10Z</time>
      </trkpt>
      <trkpt lat="44.26174" lon="2.69315">
        <ele>815.8161621</ele>
        <time>2014-03-29T07:22:15Z</time>
      </trkpt>
      <trkpt lat="44.26188" lon="2.69332">
        <ele>813.8933105</ele>
        <time>2014-03-29T07:22:21Z</time>
      </trkpt>
      <trkpt lat="44.26197" lon="2.69344">
        <ele>811.9707031</ele>
        <time>2014-03-29T07:22:25Z</time>
      </trkpt>
      <trkpt lat="44.26208" lon="2.69357">
        <ele>808.1254883</ele>
        <time>2014-03-29T07:22:30Z</time>
      </trkpt>
      <trkpt lat="44.2622" lon="2.69368">
        <ele>807.1640625</ele>
        <time>2014-03-29T07:22:35Z</time>
      </trkpt>
      <trkpt lat="44.2623" lon="2.69375">
        <ele>806.2026367</ele>
        <time>2014-03-29T07:22:39Z</time>
      </trkpt>
      <trkpt lat="44.26241" lon="2.69387">
        <ele>806.2026367</ele>
        <time>2014-03-29T07:22:44Z</time>
      </trkpt>
      <trkpt lat="44.26249" lon="2.69401">
        <ele>807.1640625</ele>
        <time>2014-03-29T07:22:49Z</time>
      </trkpt>
      <trkpt lat="44.26257" lon="2.69414">
        <ele>805.2414551</ele>
        <time>2014-03-29T07:22:53Z</time>
      </trkpt>
      <trkpt lat="44.26266" lon="2.69427">
        <ele>805.2414551</ele>
        <time>2014-03-29T07:22:57Z</time>
      </trkpt>
      <trkpt lat="44.26272" lon="2.69441">
        <ele>805.722168</ele>
        <time>2014-03-29T07:23:01Z</time>
      </trkpt>
      <trkpt lat="44.26273" lon="2.69454">
        <ele>806.6833496</ele>
        <time>2014-03-29T07:23:05Z</time>
      </trkpt>
      <trkpt lat="44.26282" lon="2.69474">
        <ele>803.7995605</ele>
        <time>2014-03-29T07:23:12Z</time>
      </trkpt>
      <trkpt lat="44.26295" lon="2.69494">
        <ele>802.3574219</ele>
        <time>2014-03-29T07:23:18Z</time>
      </trkpt>
      <trkpt lat="44.26303" lon="2.69503">
        <ele>799.4736328</ele>
        <time>2014-03-29T07:23:22Z</time>
      </trkpt>
      <trkpt lat="44.2631" lon="2.69513">
        <ele>798.0317383</ele>
        <time>2014-03-29T07:23:26Z</time>
      </trkpt>
      <trkpt lat="44.26322" lon="2.6953">
        <ele>798.512207</ele>
        <time>2014-03-29T07:23:31Z</time>
      </trkpt>
      <trkpt lat="44.26331" lon="2.69539">
        <ele>798.0317383</ele>
        <time>2014-03-29T07:23:35Z</time>
      </trkpt>
      <trkpt lat="44.26339" lon="2.69555">
        <ele>798.512207</ele>
        <time>2014-03-29T07:23:40Z</time>
      </trkpt>
      <trkpt lat="44.26349" lon="2.69572">
        <ele>796.5898438</ele>
        <time>2014-03-29T07:23:45Z</time>
      </trkpt>
      <trkpt lat="44.26353" lon="2.69577">
        <ele>797.0703125</ele>
        <time>2014-03-29T07:23:47Z</time>
      </trkpt>
      <trkpt lat="44.26368" lon="2.69598">
        <ele>798.512207</ele>
        <time>2014-03-29T07:23:54Z</time>
      </trkpt>
      <trkpt lat="44.26376" lon="2.69611">
        <ele>798.512207</ele>
        <time>2014-03-29T07:23:59Z</time>
      </trkpt>
      <trkpt lat="44.26388" lon="2.69626">
        <ele>798.512207</ele>
        <time>2014-03-29T07:24:05Z</time>
      </trkpt>
      <trkpt lat="44.26399" lon="2.69638">
        <ele>796.5898438</ele>
        <time>2014-03-29T07:24:10Z</time>
      </trkpt>
      <trkpt lat="44.26408" lon="2.69645">
        <ele>794.1862793</ele>
        <time>2014-03-29T07:24:14Z</time>
      </trkpt>
      <trkpt lat="44.2642" lon="2.69657">
        <ele>793.2248535</ele>
        <time>2014-03-29T07:24:19Z</time>
      </trkpt>
      <trkpt lat="44.26432" lon="2.69671">
        <ele>791.782959</ele>
        <time>2014-03-29T07:24:24Z</time>
      </trkpt>
      <trkpt lat="44.26444" lon="2.69682">
        <ele>786.9763184</ele>
        <time>2014-03-29T07:24:29Z</time>
      </trkpt>
      <trkpt lat="44.26456" lon="2.69692">
        <ele>783.6118164</ele>
        <time>2014-03-29T07:24:34Z</time>
      </trkpt>
      <trkpt lat="44.2647" lon="2.697">
        <ele>786.0151367</ele>
        <time>2014-03-29T07:24:39Z</time>
      </trkpt>
      <trkpt lat="44.26479" lon="2.69709">
        <ele>785.5344238</ele>
        <time>2014-03-29T07:24:43Z</time>
      </trkpt>
      <trkpt lat="44.26491" lon="2.6972">
        <ele>781.689209</ele>
        <time>2014-03-29T07:24:48Z</time>
      </trkpt>
      <trkpt lat="44.26502" lon="2.69726">
        <ele>781.689209</ele>
        <time>2014-03-29T07:24:52Z</time>
      </trkpt>
      <trkpt lat="44.26516" lon="2.69732">
        <ele>778.3244629</ele>
        <time>2014-03-29T07:24:57Z</time>
      </trkpt>
      <trkpt lat="44.26532" lon="2.69737">
        <ele>775.9211426</ele>
        <time>2014-03-29T07:25:02Z</time>
      </trkpt>
      <trkpt lat="44.26545" lon="2.69743">
        <ele>773.0373535</ele>
        <time>2014-03-29T07:25:07Z</time>
      </trkpt>
      <trkpt lat="44.26559" lon="2.69752">
        <ele>764.385498</ele>
        <time>2014-03-29T07:25:12Z</time>
      </trkpt>
      <trkpt lat="44.26573" lon="2.69759">
        <ele>761.9821777</ele>
        <time>2014-03-29T07:25:17Z</time>
      </trkpt>
      <trkpt lat="44.26586" lon="2.69769">
        <ele>759.0981445</ele>
        <time>2014-03-29T07:25:21Z</time>
      </trkpt>
      <trkpt lat="44.26595" lon="2.69778">
        <ele>760.0593262</ele>
        <time>2014-03-29T07:25:26Z</time>
      </trkpt>
      <trkpt lat="44.26611" lon="2.69789">
        <ele>761.020752</ele>
        <time>2014-03-29T07:25:32Z</time>
      </trkpt>
      <trkpt lat="44.26627" lon="2.69805">
        <ele>755.2529297</ele>
        <time>2014-03-29T07:25:38Z</time>
      </trkpt>
      <trkpt lat="44.26637" lon="2.69813">
        <ele>755.7336426</ele>
        <time>2014-03-29T07:25:43Z</time>
      </trkpt>
      <trkpt lat="44.26646" lon="2.69822">
        <ele>754.291748</ele>
        <time>2014-03-29T07:25:47Z</time>
      </trkpt>
      <trkpt lat="44.26657" lon="2.6983">
        <ele>753.3303223</ele>
        <time>2014-03-29T07:25:51Z</time>
      </trkpt>
      <trkpt lat="44.26662" lon="2.69834">
        <ele>752.3688965</ele>
        <time>2014-03-29T07:25:53Z</time>
      </trkpt>
      <trkpt lat="44.26676" lon="2.69845">
        <ele>750.927002</ele>
        <time>2014-03-29T07:25:58Z</time>
      </trkpt>
      <trkpt lat="44.26688" lon="2.6986">
        <ele>745.6396484</ele>
        <time>2014-03-29T07:26:03Z</time>
      </trkpt>
      <trkpt lat="44.267" lon="2.69877">
        <ele>738.4299316</ele>
        <time>2014-03-29T07:26:08Z</time>
      </trkpt>
      <trkpt lat="44.26702" lon="2.6988">
        <ele>736.987793</ele>
        <time>2014-03-29T07:26:09Z</time>
      </trkpt>
      <trkpt lat="44.26716" lon="2.69891">
        <ele>735.5458984</ele>
        <time>2014-03-29T07:26:15Z</time>
      </trkpt>
      <trkpt lat="44.26733" lon="2.69897">
        <ele>734.1040039</ele>
        <time>2014-03-29T07:26:20Z</time>
      </trkpt>
      <trkpt lat="44.26738" lon="2.69899">
        <ele>733.1425781</ele>
        <time>2014-03-29T07:26:22Z</time>
      </trkpt>
      <trkpt lat="44.26754" lon="2.69907">
        <ele>730.7392578</ele>
        <time>2014-03-29T07:26:28Z</time>
      </trkpt>
      <trkpt lat="44.2677" lon="2.69916">
        <ele>724.9714355</ele>
        <time>2014-03-29T07:26:34Z</time>
      </trkpt>
      <trkpt lat="44.26783" lon="2.69929">
        <ele>720.6455078</ele>
        <time>2014-03-29T07:26:39Z</time>
      </trkpt>
      <trkpt lat="44.26795" lon="2.6994">
        <ele>718.2421875</ele>
        <time>2014-03-29T07:26:44Z</time>
      </trkpt>
      <trkpt lat="44.26806" lon="2.69949">
        <ele>715.3581543</ele>
        <time>2014-03-29T07:26:48Z</time>
      </trkpt>
      <trkpt lat="44.2682" lon="2.69955">
        <ele>712.954834</ele>
        <time>2014-03-29T07:26:53Z</time>
      </trkpt>
      <trkpt lat="44.26833" lon="2.6996">
        <ele>710.0708008</ele>
        <time>2014-03-29T07:26:58Z</time>
      </trkpt>
      <trkpt lat="44.26848" lon="2.69972">
        <ele>711.9936523</ele>
        <time>2014-03-29T07:27:03Z</time>
      </trkpt>
      <trkpt lat="44.26864" lon="2.69982">
        <ele>711.5129395</ele>
        <time>2014-03-29T07:27:09Z</time>
      </trkpt>
      <trkpt lat="44.26879" lon="2.69992">
        <ele>709.1096191</ele>
        <time>2014-03-29T07:27:15Z</time>
      </trkpt>
      <trkpt lat="44.26898" lon="2.69999">
        <ele>707.1870117</ele>
        <time>2014-03-29T07:27:21Z</time>
      </trkpt>
      <trkpt lat="44.26914" lon="2.70007">
        <ele>701.8999023</ele>
        <time>2014-03-29T07:27:26Z</time>
      </trkpt>
      <trkpt lat="44.2693" lon="2.70012">
        <ele>699.4963379</ele>
        <time>2014-03-29T07:27:31Z</time>
      </trkpt>
      <trkpt lat="44.26933" lon="2.70011">
        <ele>699.9770508</ele>
        <time>2014-03-29T07:27:32Z</time>
      </trkpt>
      <trkpt lat="44.26944" lon="2.70007">
        <ele>699.9770508</ele>
        <time>2014-03-29T07:27:36Z</time>
      </trkpt>
      <trkpt lat="44.26949" lon="2.70005">
        <ele>699.015625</ele>
        <time>2014-03-29T07:27:38Z</time>
      </trkpt>
      <trkpt lat="44.26961" lon="2.69998">
        <ele>699.015625</ele>
        <time>2014-03-29T07:27:42Z</time>
      </trkpt>
      <trkpt lat="44.26974" lon="2.69989">
        <ele>697.5737305</ele>
        <time>2014-03-29T07:27:47Z</time>
      </trkpt>
      <trkpt lat="44.26984" lon="2.69969">
        <ele>693.7285156</ele>
        <time>2014-03-29T07:27:53Z</time>
      </trkpt>
      <trkpt lat="44.26987" lon="2.6996">
        <ele>691.3251953</ele>
        <time>2014-03-29T07:27:56Z</time>
      </trkpt>
      <trkpt lat="44.26996" lon="2.6994">
        <ele>685.0769043</ele>
        <time>2014-03-29T07:28:02Z</time>
      </trkpt>
      <trkpt lat="44.26999" lon="2.69936">
        <ele>683.1538086</ele>
        <time>2014-03-29T07:28:04Z</time>
      </trkpt>
      <trkpt lat="44.27009" lon="2.69928">
        <ele>679.3085938</ele>
        <time>2014-03-29T07:28:09Z</time>
      </trkpt>
      <trkpt lat="44.27023" lon="2.69928">
        <ele>675.4633789</ele>
        <time>2014-03-29T07:28:15Z</time>
      </trkpt>
      <trkpt lat="44.2704" lon="2.69925">
        <ele>675.4633789</ele>
        <time>2014-03-29T07:28:20Z</time>
      </trkpt>
      <trkpt lat="44.27045" lon="2.69923">
        <ele>675.4633789</ele>
        <time>2014-03-29T07:28:22Z</time>
      </trkpt>
      <trkpt lat="44.2705" lon="2.69924">
        <ele>673.0603027</ele>
        <time>2014-03-29T07:28:26Z</time>
      </trkpt>
      <trkpt lat="44.27042" lon="2.69929">
        <ele>668.734375</ele>
        <time>2014-03-29T07:28:30Z</time>
      </trkpt>
      <trkpt lat="44.27032" lon="2.69936">
        <ele>668.2536621</ele>
        <time>2014-03-29T07:28:34Z</time>
      </trkpt>
      <trkpt lat="44.27027" lon="2.6995">
        <ele>671.1376953</ele>
        <time>2014-03-29T07:28:39Z</time>
      </trkpt>
      <trkpt lat="44.27024" lon="2.69956">
        <ele>671.6181641</ele>
        <time>2014-03-29T07:28:41Z</time>
      </trkpt>
      <trkpt lat="44.27018" lon="2.69968">
        <ele>671.1376953</ele>
        <time>2014-03-29T07:28:45Z</time>
      </trkpt>
      <trkpt lat="44.27025" lon="2.6996">
        <ele>667.2922363</ele>
        <time>2014-03-29T07:28:50Z</time>
      </trkpt>
      <trkpt lat="44.27037" lon="2.69954">
        <ele>664.888916</ele>
        <time>2014-03-29T07:28:55Z</time>
      </trkpt>
      <trkpt lat="44.27046" lon="2.69957">
        <ele>658.6403809</ele>
        <time>2014-03-29T07:29:00Z</time>
      </trkpt>
      <trkpt lat="44.27046" lon="2.69958">
        <ele>656.2370605</ele>
        <time>2014-03-29T07:29:02Z</time>
      </trkpt>
      <trkpt lat="44.27036" lon="2.69968">
        <ele>650.4692383</ele>
        <time>2014-03-29T07:29:07Z</time>
      </trkpt>
      <trkpt lat="44.27022" lon="2.69993">
        <ele>645.1818848</ele>
        <time>2014-03-29T07:29:14Z</time>
      </trkpt>
      <trkpt lat="44.27019" lon="2.70001">
        <ele>643.7399902</ele>
        <time>2014-03-29T07:29:17Z</time>
      </trkpt>
      <trkpt lat="44.27021" lon="2.70003">
        <ele>640.855957</ele>
        <time>2014-03-29T07:29:22Z</time>
      </trkpt>
      <trkpt lat="44.27028" lon="2.69993">
        <ele>637.972168</ele>
        <time>2014-03-29T07:29:27Z</time>
      </trkpt>
      <trkpt lat="44.27037" lon="2.69991">
        <ele>634.6074219</ele>
        <time>2014-03-29T07:29:31Z</time>
      </trkpt>
      <trkpt lat="44.2704" lon="2.69992">
        <ele>632.2041016</ele>
        <time>2014-03-29T07:29:33Z</time>
      </trkpt>
      <trkpt lat="44.27047" lon="2.70001">
        <ele>629.3200684</ele>
        <time>2014-03-29T07:29:39Z</time>
      </trkpt>
      <trkpt lat="44.2706" lon="2.70008">
        <ele>635.5686035</ele>
        <time>2014-03-29T07:29:46Z</time>
      </trkpt>
      <trkpt lat="44.27065" lon="2.70013">
        <ele>635.0881348</ele>
        <time>2014-03-29T07:29:50Z</time>
      </trkpt>
      <trkpt lat="44.27071" lon="2.70019">
        <ele>634.6074219</ele>
        <time>2014-03-29T07:29:57Z</time>
      </trkpt>
      <trkpt lat="44.27074" lon="2.7002">
        <ele>637.4914551</ele>
        <time>2014-03-29T07:30:06Z</time>
      </trkpt>
      <trkpt lat="44.27076" lon="2.70022">
        <ele>643.2592773</ele>
        <time>2014-03-29T07:30:23Z</time>
      </trkpt>
      <trkpt lat="44.27076" lon="2.70027">
        <ele>643.2592773</ele>
        <time>2014-03-29T07:30:26Z</time>
      </trkpt>
      <trkpt lat="44.27082" lon="2.70035">
        <ele>644.7011719</ele>
        <time>2014-03-29T07:30:32Z</time>
      </trkpt>
      <trkpt lat="44.27086" lon="2.70038">
        <ele>645.6625977</ele>
        <time>2014-03-29T07:30:37Z</time>
      </trkpt>
      <trkpt lat="44.27092" lon="2.70038">
        <ele>649.0270996</ele>
        <time>2014-03-29T07:30:44Z</time>
      </trkpt>
      <trkpt lat="44.27099" lon="2.70039">
        <ele>649.5078125</ele>
        <time>2014-03-29T07:30:49Z</time>
      </trkpt>
      <trkpt lat="44.27107" lon="2.7004">
        <ele>650.949707</ele>
        <time>2014-03-29T07:30:55Z</time>
      </trkpt>
      <trkpt lat="44.27116" lon="2.70042">
        <ele>652.8725586</ele>
        <time>2014-03-29T07:31:02Z</time>
      </trkpt>
      <trkpt lat="44.27122" lon="2.70045">
        <ele>652.8725586</ele>
        <time>2014-03-29T07:31:07Z</time>
      </trkpt>
      <trkpt lat="44.27129" lon="2.70046">
        <ele>653.8339844</ele>
        <time>2014-03-29T07:31:12Z</time>
      </trkpt>
      <trkpt lat="44.27134" lon="2.70047">
        <ele>654.3146973</ele>
        <time>2014-03-29T07:31:16Z</time>
      </trkpt>
      <trkpt lat="44.27141" lon="2.70046">
        <ele>656.7177734</ele>
        <time>2014-03-29T07:31:21Z</time>
      </trkpt>
      <trkpt lat="44.27142" lon="2.70047">
        <ele>656.7177734</ele>
        <time>2014-03-29T07:31:22Z</time>
      </trkpt>
      <trkpt lat="44.27147" lon="2.70046">
        <ele>657.6791992</ele>
        <time>2014-03-29T07:31:27Z</time>
      </trkpt>
      <trkpt lat="44.27142" lon="2.70041">
        <ele>662.005127</ele>
        <time>2014-03-29T07:31:34Z</time>
      </trkpt>
      <trkpt lat="44.27136" lon="2.70037">
        <ele>664.888916</ele>
        <time>2014-03-29T07:31:40Z</time>
      </trkpt>
      <trkpt lat="44.27133" lon="2.7003">
        <ele>666.3308105</ele>
        <time>2014-03-29T07:31:45Z</time>
      </trkpt>
      <trkpt lat="44.2713" lon="2.70022">
        <ele>667.7727051</ele>
        <time>2014-03-29T07:31:51Z</time>
      </trkpt>
      <trkpt lat="44.27134" lon="2.70014">
        <ele>668.734375</ele>
        <time>2014-03-29T07:31:57Z</time>
      </trkpt>
      <trkpt lat="44.27137" lon="2.70009">
        <ele>668.734375</ele>
        <time>2014-03-29T07:32:01Z</time>
      </trkpt>
      <trkpt lat="44.27143" lon="2.70011">
        <ele>671.6181641</ele>
        <time>2014-03-29T07:32:08Z</time>
      </trkpt>
      <trkpt lat="44.27147" lon="2.70016">
        <ele>672.098877</ele>
        <time>2014-03-29T07:32:12Z</time>
      </trkpt>
      <trkpt lat="44.2715" lon="2.70017">
        <ele>672.098877</ele>
        <time>2014-03-29T07:32:15Z</time>
      </trkpt>
      <trkpt lat="44.27152" lon="2.70018">
        <ele>672.5795898</ele>
        <time>2014-03-29T07:32:17Z</time>
      </trkpt>
      <trkpt lat="44.27156" lon="2.70019">
        <ele>673.5410156</ele>
        <time>2014-03-29T07:32:21Z</time>
      </trkpt>
      <trkpt lat="44.27164" lon="2.70021">
        <ele>674.9829102</ele>
        <time>2014-03-29T07:32:27Z</time>
      </trkpt>
      <trkpt lat="44.27169" lon="2.70023">
        <ele>676.4248047</ele>
        <time>2014-03-29T07:32:31Z</time>
      </trkpt>
      <trkpt lat="44.27174" lon="2.70022">
        <ele>676.9055176</ele>
        <time>2014-03-29T07:32:35Z</time>
      </trkpt>
      <trkpt lat="44.27178" lon="2.70019">
        <ele>677.8666992</ele>
        <time>2014-03-29T07:32:39Z</time>
      </trkpt>
      <trkpt lat="44.27179" lon="2.70012">
        <ele>679.3085938</ele>
        <time>2014-03-29T07:32:43Z</time>
      </trkpt>
      <trkpt lat="44.2718" lon="2.70008">
        <ele>679.3085938</ele>
        <time>2014-03-29T07:32:45Z</time>
      </trkpt>
      <trkpt lat="44.27187" lon="2.70005">
        <ele>681.2314453</ele>
        <time>2014-03-29T07:32:51Z</time>
      </trkpt>
      <trkpt lat="44.27189" lon="2.70007">
        <ele>681.7119141</ele>
        <time>2014-03-29T07:32:53Z</time>
      </trkpt>
      <trkpt lat="44.27194" lon="2.7001">
        <ele>682.6733398</ele>
        <time>2014-03-29T07:32:59Z</time>
      </trkpt>
      <trkpt lat="44.27199" lon="2.70013">
        <ele>684.5961914</ele>
        <time>2014-03-29T07:33:05Z</time>
      </trkpt>
      <trkpt lat="44.27206" lon="2.70015">
        <ele>686.0380859</ele>
        <time>2014-03-29T07:33:10Z</time>
      </trkpt>
      <trkpt lat="44.2721" lon="2.70017">
        <ele>686.9992676</ele>
        <time>2014-03-29T07:33:13Z</time>
      </trkpt>
      <trkpt lat="44.27212" lon="2.70016">
        <ele>687.4799805</ele>
        <time>2014-03-29T07:33:15Z</time>
      </trkpt>
      <trkpt lat="44.27214" lon="2.70013">
        <ele>687.9606934</ele>
        <time>2014-03-29T07:33:18Z</time>
      </trkpt>
      <trkpt lat="44.27216" lon="2.70006">
        <ele>689.8833008</ele>
        <time>2014-03-29T07:33:24Z</time>
      </trkpt>
      <trkpt lat="44.27219" lon="2.7">
        <ele>692.767334</ele>
        <time>2014-03-29T07:33:30Z</time>
      </trkpt>
      <trkpt lat="44.27222" lon="2.69996">
        <ele>694.6896973</ele>
        <time>2014-03-29T07:33:35Z</time>
      </trkpt>
      <trkpt lat="44.27223" lon="2.6999">
        <ele>694.2092285</ele>
        <time>2014-03-29T07:33:39Z</time>
      </trkpt>
      <trkpt lat="44.27226" lon="2.69988">
        <ele>694.2092285</ele>
        <time>2014-03-29T07:33:41Z</time>
      </trkpt>
      <trkpt lat="44.27234" lon="2.69987">
        <ele>695.651123</ele>
        <time>2014-03-29T07:33:48Z</time>
      </trkpt>
      <trkpt lat="44.27235" lon="2.69983">
        <ele>696.6125488</ele>
        <time>2014-03-29T07:33:51Z</time>
      </trkpt>
      <trkpt lat="44.27236" lon="2.69981">
        <ele>696.6125488</ele>
        <time>2014-03-29T07:33:53Z</time>
      </trkpt>
      <trkpt lat="44.27242" lon="2.69976">
        <ele>697.0930176</ele>
        <time>2014-03-29T07:33:57Z</time>
      </trkpt>
      <trkpt lat="44.27253" lon="2.69969">
        <ele>696.6125488</ele>
        <time>2014-03-29T07:34:03Z</time>
      </trkpt>
      <trkpt lat="44.27259" lon="2.69955">
        <ele>696.6125488</ele>
        <time>2014-03-29T07:34:09Z</time>
      </trkpt>
      <trkpt lat="44.27258" lon="2.69952">
        <ele>697.0930176</ele>
        <time>2014-03-29T07:34:10Z</time>
      </trkpt>
      <trkpt lat="44.27262" lon="2.69942">
        <ele>697.5737305</ele>
        <time>2014-03-29T07:34:14Z</time>
      </trkpt>
      <trkpt lat="44.27266" lon="2.69928">
        <ele>697.5737305</ele>
        <time>2014-03-29T07:34:20Z</time>
      </trkpt>
      <trkpt lat="44.27271" lon="2.69917">
        <ele>699.015625</ele>
        <time>2014-03-29T07:34:27Z</time>
      </trkpt>
      <trkpt lat="44.27275" lon="2.69912">
        <ele>699.4963379</ele>
        <time>2014-03-29T07:34:31Z</time>
      </trkpt>
      <trkpt lat="44.2728" lon="2.69899">
        <ele>702.3803711</ele>
        <time>2014-03-29T07:34:38Z</time>
      </trkpt>
      <trkpt lat="44.27279" lon="2.69886">
        <ele>705.2644043</ele>
        <time>2014-03-29T07:34:44Z</time>
      </trkpt>
      <trkpt lat="44.27283" lon="2.69878">
        <ele>706.7062988</ele>
        <time>2014-03-29T07:34:49Z</time>
      </trkpt>
      <trkpt lat="44.27283" lon="2.69876">
        <ele>706.7062988</ele>
        <time>2014-03-29T07:34:50Z</time>
      </trkpt>
      <trkpt lat="44.27287" lon="2.69868">
        <ele>706.7062988</ele>
        <time>2014-03-29T07:34:55Z</time>
      </trkpt>
      <trkpt lat="44.27288" lon="2.69864">
        <ele>706.7062988</ele>
        <time>2014-03-29T07:34:57Z</time>
      </trkpt>
      <trkpt lat="44.27288" lon="2.6985">
        <ele>708.1484375</ele>
        <time>2014-03-29T07:35:04Z</time>
      </trkpt>
      <trkpt lat="44.27289" lon="2.69837">
        <ele>710.5515137</ele>
        <time>2014-03-29T07:35:10Z</time>
      </trkpt>
      <trkpt lat="44.27288" lon="2.69816">
        <ele>711.5129395</ele>
        <time>2014-03-29T07:35:20Z</time>
      </trkpt>
      <trkpt lat="44.27286" lon="2.69798">
        <ele>715.3581543</ele>
        <time>2014-03-29T07:35:29Z</time>
      </trkpt>
      <trkpt lat="44.27285" lon="2.69779">
        <ele>716.3195801</ele>
        <time>2014-03-29T07:35:38Z</time>
      </trkpt>
      <trkpt lat="44.27285" lon="2.69774">
        <ele>716.3195801</ele>
        <time>2014-03-29T07:35:40Z</time>
      </trkpt>
      <trkpt lat="44.27292" lon="2.69765">
        <ele>715.3581543</ele>
        <time>2014-03-29T07:35:48Z</time>
      </trkpt>
      <trkpt lat="44.27295" lon="2.69763">
        <ele>714.8774414</ele>
        <time>2014-03-29T07:35:52Z</time>
      </trkpt>
      <trkpt lat="44.27302" lon="2.6976">
        <ele>714.8774414</ele>
        <time>2014-03-29T07:35:59Z</time>
      </trkpt>
      <trkpt lat="44.27311" lon="2.69762">
        <ele>713.4355469</ele>
        <time>2014-03-29T07:36:06Z</time>
      </trkpt>
      <trkpt lat="44.2732" lon="2.69765">
        <ele>712.954834</ele>
        <time>2014-03-29T07:36:13Z</time>
      </trkpt>
      <trkpt lat="44.27326" lon="2.69762">
        <ele>711.5129395</ele>
        <time>2014-03-29T07:36:17Z</time>
      </trkpt>
      <trkpt lat="44.27332" lon="2.69755">
        <ele>712.4741211</ele>
        <time>2014-03-29T07:36:22Z</time>
      </trkpt>
      <trkpt lat="44.27341" lon="2.6974">
        <ele>711.9936523</ele>
        <time>2014-03-29T07:36:28Z</time>
      </trkpt>
      <trkpt lat="44.27349" lon="2.69721">
        <ele>712.954834</ele>
        <time>2014-03-29T07:36:34Z</time>
      </trkpt>
      <trkpt lat="44.2736" lon="2.69708">
        <ele>715.3581543</ele>
        <time>2014-03-29T07:36:39Z</time>
      </trkpt>
      <trkpt lat="44.2737" lon="2.69704">
        <ele>716.800293</ele>
        <time>2014-03-29T07:36:44Z</time>
      </trkpt>
      <trkpt lat="44.27372" lon="2.69704">
        <ele>717.7614746</ele>
        <time>2014-03-29T07:36:45Z</time>
      </trkpt>
      <trkpt lat="44.27384" lon="2.69703">
        <ele>722.0874023</ele>
        <time>2014-03-29T07:36:51Z</time>
      </trkpt>
      <trkpt lat="44.27394" lon="2.69702">
        <ele>724.4907227</ele>
        <time>2014-03-29T07:36:56Z</time>
      </trkpt>
      <trkpt lat="44.27407" lon="2.69698">
        <ele>725.9326172</ele>
        <time>2014-03-29T07:37:01Z</time>
      </trkpt>
      <trkpt lat="44.27411" lon="2.69696">
        <ele>725.9326172</ele>
        <time>2014-03-29T07:37:03Z</time>
      </trkpt>
      <trkpt lat="44.27416" lon="2.6968">
        <ele>724.0100098</ele>
        <time>2014-03-29T07:37:09Z</time>
      </trkpt>
      <trkpt lat="44.27426" lon="2.69659">
        <ele>720.1647949</ele>
        <time>2014-03-29T07:37:15Z</time>
      </trkpt>
      <trkpt lat="44.27435" lon="2.69646">
        <ele>719.6843262</ele>
        <time>2014-03-29T07:37:19Z</time>
      </trkpt>
      <trkpt lat="44.27443" lon="2.69635">
        <ele>718.2421875</ele>
        <time>2014-03-29T07:37:23Z</time>
      </trkpt>
      <trkpt lat="44.2745" lon="2.69622">
        <ele>718.2421875</ele>
        <time>2014-03-29T07:37:27Z</time>
      </trkpt>
      <trkpt lat="44.2746" lon="2.69604">
        <ele>714.3967285</ele>
        <time>2014-03-29T07:37:32Z</time>
      </trkpt>
      <trkpt lat="44.27468" lon="2.6959">
        <ele>713.4355469</ele>
        <time>2014-03-29T07:37:36Z</time>
      </trkpt>
      <trkpt lat="44.27479" lon="2.69569">
        <ele>712.4741211</ele>
        <time>2014-03-29T07:37:42Z</time>
      </trkpt>
      <trkpt lat="44.2749" lon="2.6955">
        <ele>710.0708008</ele>
        <time>2014-03-29T07:37:47Z</time>
      </trkpt>
      <trkpt lat="44.27495" lon="2.69536">
        <ele>708.1484375</ele>
        <time>2014-03-29T07:37:51Z</time>
      </trkpt>
      <trkpt lat="44.27503" lon="2.6952">
        <ele>708.1484375</ele>
        <time>2014-03-29T07:37:55Z</time>
      </trkpt>
      <trkpt lat="44.27512" lon="2.69501">
        <ele>706.7062988</ele>
        <time>2014-03-29T07:38:00Z</time>
      </trkpt>
      <trkpt lat="44.27517" lon="2.69481">
        <ele>705.2644043</ele>
        <time>2014-03-29T07:38:05Z</time>
      </trkpt>
      <trkpt lat="44.27522" lon="2.69462">
        <ele>703.8225098</ele>
        <time>2014-03-29T07:38:09Z</time>
      </trkpt>
      <trkpt lat="44.27531" lon="2.69443">
        <ele>702.861084</ele>
        <time>2014-03-29T07:38:14Z</time>
      </trkpt>
      <trkpt lat="44.27541" lon="2.69425">
        <ele>704.3032227</ele>
        <time>2014-03-29T07:38:19Z</time>
      </trkpt>
      <trkpt lat="44.27555" lon="2.69412">
        <ele>703.8225098</ele>
        <time>2014-03-29T07:38:24Z</time>
      </trkpt>
      <trkpt lat="44.27568" lon="2.69406">
        <ele>703.3417969</ele>
        <time>2014-03-29T07:38:28Z</time>
      </trkpt>
      <trkpt lat="44.27579" lon="2.69403">
        <ele>702.3803711</ele>
        <time>2014-03-29T07:38:31Z</time>
      </trkpt>
      <trkpt lat="44.27593" lon="2.69394">
        <ele>701.8999023</ele>
        <time>2014-03-29T07:38:36Z</time>
      </trkpt>
      <trkpt lat="44.27605" lon="2.69379">
        <ele>700.4580078</ele>
        <time>2014-03-29T07:38:41Z</time>
      </trkpt>
      <trkpt lat="44.27615" lon="2.69371">
        <ele>699.015625</ele>
        <time>2014-03-29T07:38:45Z</time>
      </trkpt>
      <trkpt lat="44.27629" lon="2.69361">
        <ele>699.015625</ele>
        <time>2014-03-29T07:38:50Z</time>
      </trkpt>
      <trkpt lat="44.27639" lon="2.69347">
        <ele>700.4580078</ele>
        <time>2014-03-29T07:38:54Z</time>
      </trkpt>
      <trkpt lat="44.27652" lon="2.69332">
        <ele>699.9770508</ele>
        <time>2014-03-29T07:38:59Z</time>
      </trkpt>
      <trkpt lat="44.27659" lon="2.69323">
        <ele>700.9384766</ele>
        <time>2014-03-29T07:39:02Z</time>
      </trkpt>
      <trkpt lat="44.27663" lon="2.69308">
        <ele>699.015625</ele>
        <time>2014-03-29T07:39:07Z</time>
      </trkpt>
      <trkpt lat="44.27661" lon="2.69293">
        <ele>697.5737305</ele>
        <time>2014-03-29T07:39:12Z</time>
      </trkpt>
      <trkpt lat="44.27658" lon="2.69281">
        <ele>696.1318359</ele>
        <time>2014-03-29T07:39:16Z</time>
      </trkpt>
      <trkpt lat="44.27649" lon="2.6926">
        <ele>693.7285156</ele>
        <time>2014-03-29T07:39:22Z</time>
      </trkpt>
      <trkpt lat="44.27648" lon="2.69235">
        <ele>686.9992676</ele>
        <time>2014-03-29T07:39:28Z</time>
      </trkpt>
      <trkpt lat="44.27648" lon="2.69221">
        <ele>683.6345215</ele>
        <time>2014-03-29T07:39:31Z</time>
      </trkpt>
      <trkpt lat="44.27645" lon="2.69197">
        <ele>679.7893066</ele>
        <time>2014-03-29T07:39:37Z</time>
      </trkpt>
      <trkpt lat="44.27642" lon="2.69176">
        <ele>676.4248047</ele>
        <time>2014-03-29T07:39:42Z</time>
      </trkpt>
      <trkpt lat="44.27638" lon="2.69165">
        <ele>674.5021973</ele>
        <time>2014-03-29T07:39:46Z</time>
      </trkpt>
      <trkpt lat="44.27629" lon="2.69146">
        <ele>672.098877</ele>
        <time>2014-03-29T07:39:52Z</time>
      </trkpt>
      <trkpt lat="44.27625" lon="2.6913">
        <ele>669.2150879</ele>
        <time>2014-03-29T07:39:56Z</time>
      </trkpt>
      <trkpt lat="44.27622" lon="2.69124">
        <ele>669.2150879</ele>
        <time>2014-03-29T07:39:58Z</time>
      </trkpt>
      <trkpt lat="44.27617" lon="2.69115">
        <ele>667.7727051</ele>
        <time>2014-03-29T07:40:03Z</time>
      </trkpt>
      <trkpt lat="44.27612" lon="2.6911">
        <ele>666.8115234</ele>
        <time>2014-03-29T07:40:07Z</time>
      </trkpt>
      <trkpt lat="44.27605" lon="2.69106">
        <ele>664.4082031</ele>
        <time>2014-03-29T07:40:11Z</time>
      </trkpt>
      <trkpt lat="44.27597" lon="2.69092">
        <ele>662.4855957</ele>
        <time>2014-03-29T07:40:16Z</time>
      </trkpt>
      <trkpt lat="44.27593" lon="2.69084">
        <ele>662.9663086</ele>
        <time>2014-03-29T07:40:18Z</time>
      </trkpt>
      <trkpt lat="44.27582" lon="2.69066">
        <ele>661.0437012</ele>
        <time>2014-03-29T07:40:23Z</time>
      </trkpt>
      <trkpt lat="44.27574" lon="2.69055">
        <ele>659.6018066</ele>
        <time>2014-03-29T07:40:27Z</time>
      </trkpt>
      <trkpt lat="44.27566" lon="2.69039">
        <ele>658.1599121</ele>
        <time>2014-03-29T07:40:32Z</time>
      </trkpt>
      <trkpt lat="44.27561" lon="2.69021">
        <ele>654.795166</ele>
        <time>2014-03-29T07:40:37Z</time>
      </trkpt>
      <trkpt lat="44.27556" lon="2.69002">
        <ele>652.8725586</ele>
        <time>2014-03-29T07:40:42Z</time>
      </trkpt>
      <trkpt lat="44.27551" lon="2.68988">
        <ele>651.4304199</ele>
        <time>2014-03-29T07:40:46Z</time>
      </trkpt>
      <trkpt lat="44.27549" lon="2.68974">
        <ele>648.5463867</ele>
        <time>2014-03-29T07:40:50Z</time>
      </trkpt>
      <trkpt lat="44.27558" lon="2.68954">
        <ele>646.6240234</ele>
        <time>2014-03-29T07:40:55Z</time>
      </trkpt>
      <trkpt lat="44.27566" lon="2.68946">
        <ele>646.6240234</ele>
        <time>2014-03-29T07:40:58Z</time>
      </trkpt>
      <trkpt lat="44.27573" lon="2.68926">
        <ele>649.0270996</ele>
        <time>2014-03-29T07:41:03Z</time>
      </trkpt>
      <trkpt lat="44.2758" lon="2.68915">
        <ele>648.065918</ele>
        <time>2014-03-29T07:41:07Z</time>
      </trkpt>
      <trkpt lat="44.27588" lon="2.68896">
        <ele>645.1818848</ele>
        <time>2014-03-29T07:41:14Z</time>
      </trkpt>
      <trkpt lat="44.27596" lon="2.68885">
        <ele>639.8947754</ele>
        <time>2014-03-29T07:41:18Z</time>
      </trkpt>
      <trkpt lat="44.27603" lon="2.68874">
        <ele>637.4914551</ele>
        <time>2014-03-29T07:41:22Z</time>
      </trkpt>
      <trkpt lat="44.27611" lon="2.68867">
        <ele>637.972168</ele>
        <time>2014-03-29T07:41:26Z</time>
      </trkpt>
      <trkpt lat="44.27621" lon="2.68866">
        <ele>637.972168</ele>
        <time>2014-03-29T07:41:32Z</time>
      </trkpt>
      <trkpt lat="44.27633" lon="2.68865">
        <ele>640.3754883</ele>
        <time>2014-03-29T07:41:41Z</time>
      </trkpt>
      <trkpt lat="44.2764" lon="2.68862">
        <ele>643.2592773</ele>
        <time>2014-03-29T07:41:47Z</time>
      </trkpt>
      <trkpt lat="44.27643" lon="2.68861">
        <ele>643.2592773</ele>
        <time>2014-03-29T07:41:50Z</time>
      </trkpt>
      <trkpt lat="44.27648" lon="2.68859">
        <ele>644.7011719</ele>
        <time>2014-03-29T07:41:54Z</time>
      </trkpt>
      <trkpt lat="44.27654" lon="2.68858">
        <ele>646.1433105</ele>
        <time>2014-03-29T07:42:00Z</time>
      </trkpt>
      <trkpt lat="44.27663" lon="2.68855">
        <ele>647.1044922</ele>
        <time>2014-03-29T07:42:08Z</time>
      </trkpt>
      <trkpt lat="44.2767" lon="2.68851">
        <ele>648.5463867</ele>
        <time>2014-03-29T07:42:14Z</time>
      </trkpt>
      <trkpt lat="44.27674" lon="2.68849">
        <ele>648.5463867</ele>
        <time>2014-03-29T07:42:19Z</time>
      </trkpt>
      <trkpt lat="44.27681" lon="2.68847">
        <ele>649.0270996</ele>
        <time>2014-03-29T07:42:25Z</time>
      </trkpt>
      <trkpt lat="44.27685" lon="2.68845">
        <ele>649.9885254</ele>
        <time>2014-03-29T07:42:29Z</time>
      </trkpt>
      <trkpt lat="44.27689" lon="2.68842">
        <ele>650.4692383</ele>
        <time>2014-03-29T07:42:33Z</time>
      </trkpt>
      <trkpt lat="44.27692" lon="2.6884">
        <ele>651.9111328</ele>
        <time>2014-03-29T07:42:36Z</time>
      </trkpt>
      <trkpt lat="44.27695" lon="2.68837">
        <ele>653.8339844</ele>
        <time>2014-03-29T07:42:41Z</time>
      </trkpt>
      <trkpt lat="44.27701" lon="2.68836">
        <ele>654.795166</ele>
        <time>2014-03-29T07:42:46Z</time>
      </trkpt>
      <trkpt lat="44.27704" lon="2.68836">
        <ele>655.7565918</ele>
        <time>2014-03-29T07:42:49Z</time>
      </trkpt>
      <trkpt lat="44.2771" lon="2.68835">
        <ele>657.6791992</ele>
        <time>2014-03-29T07:42:54Z</time>
      </trkpt>
      <trkpt lat="44.27716" lon="2.68833">
        <ele>661.0437012</ele>
        <time>2014-03-29T07:43:00Z</time>
      </trkpt>
      <trkpt lat="44.2772" lon="2.68831">
        <ele>664.888916</ele>
        <time>2014-03-29T07:43:03Z</time>
      </trkpt>
      <trkpt lat="44.27723" lon="2.68828">
        <ele>667.7727051</ele>
        <time>2014-03-29T07:43:06Z</time>
      </trkpt>
      <trkpt lat="44.27727" lon="2.6882">
        <ele>670.6569824</ele>
        <time>2014-03-29T07:43:12Z</time>
      </trkpt>
      <trkpt lat="44.27729" lon="2.68814">
        <ele>668.734375</ele>
        <time>2014-03-29T07:43:17Z</time>
      </trkpt>
      <trkpt lat="44.2773" lon="2.68808">
        <ele>666.3308105</ele>
        <time>2014-03-29T07:43:22Z</time>
      </trkpt>
      <trkpt lat="44.27731" lon="2.68804">
        <ele>666.3308105</ele>
        <time>2014-03-29T07:43:24Z</time>
      </trkpt>
      <trkpt lat="44.27733" lon="2.68798">
        <ele>666.3308105</ele>
        <time>2014-03-29T07:43:29Z</time>
      </trkpt>
      <trkpt lat="44.27738" lon="2.68792">
        <ele>667.2922363</ele>
        <time>2014-03-29T07:43:34Z</time>
      </trkpt>
      <trkpt lat="44.27739" lon="2.6879">
        <ele>667.7727051</ele>
        <time>2014-03-29T07:43:36Z</time>
      </trkpt>
      <trkpt lat="44.27744" lon="2.6878">
        <ele>670.6569824</ele>
        <time>2014-03-29T07:43:43Z</time>
      </trkpt>
      <trkpt lat="44.2775" lon="2.68771">
        <ele>671.6181641</ele>
        <time>2014-03-29T07:43:49Z</time>
      </trkpt>
      <trkpt lat="44.2776" lon="2.6876">
        <ele>673.0603027</ele>
        <time>2014-03-29T07:43:58Z</time>
      </trkpt>
      <trkpt lat="44.27764" lon="2.68753">
        <ele>673.5410156</ele>
        <time>2014-03-29T07:44:03Z</time>
      </trkpt>
      <trkpt lat="44.27765" lon="2.68751">
        <ele>674.0214844</ele>
        <time>2014-03-29T07:44:04Z</time>
      </trkpt>
      <trkpt lat="44.27769" lon="2.68746">
        <ele>673.0603027</ele>
        <time>2014-03-29T07:44:08Z</time>
      </trkpt>
      <trkpt lat="44.27783" lon="2.68732">
        <ele>673.0603027</ele>
        <time>2014-03-29T07:44:15Z</time>
      </trkpt>
      <trkpt lat="44.27792" lon="2.68722">
        <ele>674.0214844</ele>
        <time>2014-03-29T07:44:20Z</time>
      </trkpt>
      <trkpt lat="44.278" lon="2.68716">
        <ele>673.5410156</ele>
        <time>2014-03-29T07:44:24Z</time>
      </trkpt>
      <trkpt lat="44.27801" lon="2.68714">
        <ele>674.0214844</ele>
        <time>2014-03-29T07:44:25Z</time>
      </trkpt>
      <trkpt lat="44.27804" lon="2.68704">
        <ele>675.4633789</ele>
        <time>2014-03-29T07:44:29Z</time>
      </trkpt>
      <trkpt lat="44.27812" lon="2.68698">
        <ele>676.9055176</ele>
        <time>2014-03-29T07:44:33Z</time>
      </trkpt>
      <trkpt lat="44.27818" lon="2.68693">
        <ele>676.9055176</ele>
        <time>2014-03-29T07:44:36Z</time>
      </trkpt>
      <trkpt lat="44.27824" lon="2.68688">
        <ele>677.8666992</ele>
        <time>2014-03-29T07:44:40Z</time>
      </trkpt>
      <trkpt lat="44.27827" lon="2.68685">
        <ele>677.8666992</ele>
        <time>2014-03-29T07:44:42Z</time>
      </trkpt>
      <trkpt lat="44.27835" lon="2.68681">
        <ele>677.8666992</ele>
        <time>2014-03-29T07:44:48Z</time>
      </trkpt>
      <trkpt lat="44.27842" lon="2.68672">
        <ele>682.192627</ele>
        <time>2014-03-29T07:44:55Z</time>
      </trkpt>
      <trkpt lat="44.27849" lon="2.68666">
        <ele>687.9606934</ele>
        <time>2014-03-29T07:45:01Z</time>
      </trkpt>
      <trkpt lat="44.27852" lon="2.68664">
        <ele>690.8444824</ele>
        <time>2014-03-29T07:45:03Z</time>
      </trkpt>
      <trkpt lat="44.27858" lon="2.68663">
        <ele>695.1704102</ele>
        <time>2014-03-29T07:45:08Z</time>
      </trkpt>
      <trkpt lat="44.27866" lon="2.68662">
        <ele>696.1318359</ele>
        <time>2014-03-29T07:45:14Z</time>
      </trkpt>
      <trkpt lat="44.27873" lon="2.68663">
        <ele>697.0930176</ele>
        <time>2014-03-29T07:45:19Z</time>
      </trkpt>
      <trkpt lat="44.27874" lon="2.68663">
        <ele>697.5737305</ele>
        <time>2014-03-29T07:45:20Z</time>
      </trkpt>
      <trkpt lat="44.2788" lon="2.68658">
        <ele>696.1318359</ele>
        <time>2014-03-29T07:45:25Z</time>
      </trkpt>
      <trkpt lat="44.27882" lon="2.68656">
        <ele>697.0930176</ele>
        <time>2014-03-29T07:45:27Z</time>
      </trkpt>
      <trkpt lat="44.27884" lon="2.68652">
        <ele>699.9770508</ele>
        <time>2014-03-29T07:45:30Z</time>
      </trkpt>
      <trkpt lat="44.27892" lon="2.68647">
        <ele>699.4963379</ele>
        <time>2014-03-29T07:45:36Z</time>
      </trkpt>
      <trkpt lat="44.27899" lon="2.68646">
        <ele>699.4963379</ele>
        <time>2014-03-29T07:45:41Z</time>
      </trkpt>
      <trkpt lat="44.27901" lon="2.68646">
        <ele>700.4580078</ele>
        <time>2014-03-29T07:45:42Z</time>
      </trkpt>
      <trkpt lat="44.27907" lon="2.68642">
        <ele>707.6677246</ele>
        <time>2014-03-29T07:45:48Z</time>
      </trkpt>
      <trkpt lat="44.27908" lon="2.68641">
        <ele>708.6289063</ele>
        <time>2014-03-29T07:45:49Z</time>
      </trkpt>
      <trkpt lat="44.27911" lon="2.68637">
        <ele>713.4355469</ele>
        <time>2014-03-29T07:45:53Z</time>
      </trkpt>
      <trkpt lat="44.27919" lon="2.68634">
        <ele>715.8388672</ele>
        <time>2014-03-29T07:45:59Z</time>
      </trkpt>
      <trkpt lat="44.27924" lon="2.68635">
        <ele>717.2810059</ele>
        <time>2014-03-29T07:46:03Z</time>
      </trkpt>
      <trkpt lat="44.27926" lon="2.68634">
        <ele>718.2421875</ele>
        <time>2014-03-29T07:46:04Z</time>
      </trkpt>
      <trkpt lat="44.27931" lon="2.68632">
        <ele>720.6455078</ele>
        <time>2014-03-29T07:46:08Z</time>
      </trkpt>
      <trkpt lat="44.27937" lon="2.68631">
        <ele>722.0874023</ele>
        <time>2014-03-29T07:46:13Z</time>
      </trkpt>
      <trkpt lat="44.27937" lon="2.68626">
        <ele>721.6066895</ele>
        <time>2014-03-29T07:46:19Z</time>
      </trkpt>
      <trkpt lat="44.27936" lon="2.68621">
        <ele>724.0100098</ele>
        <time>2014-03-29T07:46:25Z</time>
      </trkpt>
      <trkpt lat="44.27931" lon="2.68617">
        <ele>722.0874023</ele>
        <time>2014-03-29T07:46:31Z</time>
      </trkpt>
      <trkpt lat="44.27931" lon="2.68615">
        <ele>721.6066895</ele>
        <time>2014-03-29T07:46:32Z</time>
      </trkpt>
      <trkpt lat="44.27924" lon="2.68609">
        <ele>720.1647949</ele>
        <time>2014-03-29T07:46:39Z</time>
      </trkpt>
      <trkpt lat="44.27922" lon="2.68608">
        <ele>720.1647949</ele>
        <time>2014-03-29T07:46:41Z</time>
      </trkpt>
      <trkpt lat="44.27915" lon="2.68602">
        <ele>721.1262207</ele>
        <time>2014-03-29T07:46:49Z</time>
      </trkpt>
      <trkpt lat="44.27915" lon="2.68596">
        <ele>721.1262207</ele>
        <time>2014-03-29T07:46:53Z</time>
      </trkpt>
      <trkpt lat="44.2792" lon="2.68595">
        <ele>721.1262207</ele>
        <time>2014-03-29T07:46:58Z</time>
      </trkpt>
      <trkpt lat="44.27922" lon="2.68595">
        <ele>721.6066895</ele>
        <time>2014-03-29T07:47:00Z</time>
      </trkpt>
      <trkpt lat="44.27928" lon="2.68596">
        <ele>724.0100098</ele>
        <time>2014-03-29T07:47:04Z</time>
      </trkpt>
      <trkpt lat="44.27938" lon="2.68597">
        <ele>727.8552246</ele>
        <time>2014-03-29T07:47:10Z</time>
      </trkpt>
      <trkpt lat="44.2795" lon="2.68601">
        <ele>729.2971191</ele>
        <time>2014-03-29T07:47:16Z</time>
      </trkpt>
      <trkpt lat="44.27957" lon="2.68602">
        <ele>727.8552246</ele>
        <time>2014-03-29T07:47:22Z</time>
      </trkpt>
      <trkpt lat="44.27964" lon="2.68603">
        <ele>726.894043</ele>
        <time>2014-03-29T07:47:27Z</time>
      </trkpt>
      <trkpt lat="44.2797" lon="2.68604">
        <ele>728.3359375</ele>
        <time>2014-03-29T07:47:32Z</time>
      </trkpt>
      <trkpt lat="44.27976" lon="2.6861">
        <ele>727.8552246</ele>
        <time>2014-03-29T07:47:37Z</time>
      </trkpt>
      <trkpt lat="44.27984" lon="2.68616">
        <ele>726.894043</ele>
        <time>2014-03-29T07:47:44Z</time>
      </trkpt>
      <trkpt lat="44.27988" lon="2.68619">
        <ele>727.3747559</ele>
        <time>2014-03-29T07:47:48Z</time>
      </trkpt>
      <trkpt lat="44.27997" lon="2.68623">
        <ele>729.777832</ele>
        <time>2014-03-29T07:47:55Z</time>
      </trkpt>
      <trkpt lat="44.28003" lon="2.68627">
        <ele>730.7392578</ele>
        <time>2014-03-29T07:48:00Z</time>
      </trkpt>
      <trkpt lat="44.2801" lon="2.6863">
        <ele>731.7004395</ele>
        <time>2014-03-29T07:48:05Z</time>
      </trkpt>
      <trkpt lat="44.28016" lon="2.68633">
        <ele>732.6621094</ele>
        <time>2014-03-29T07:48:10Z</time>
      </trkpt>
      <trkpt lat="44.28023" lon="2.68638">
        <ele>730.2585449</ele>
        <time>2014-03-29T07:48:16Z</time>
      </trkpt>
      <trkpt lat="44.28029" lon="2.6864">
        <ele>731.2199707</ele>
        <time>2014-03-29T07:48:21Z</time>
      </trkpt>
      <trkpt lat="44.28036" lon="2.68645">
        <ele>729.777832</ele>
        <time>2014-03-29T07:48:27Z</time>
      </trkpt>
      <trkpt lat="44.28045" lon="2.6865">
        <ele>729.2971191</ele>
        <time>2014-03-29T07:48:34Z</time>
      </trkpt>
      <trkpt lat="44.28048" lon="2.68652">
        <ele>728.8166504</ele>
        <time>2014-03-29T07:48:37Z</time>
      </trkpt>
      <trkpt lat="44.28054" lon="2.68654">
        <ele>730.2585449</ele>
        <time>2014-03-29T07:48:42Z</time>
      </trkpt>
      <trkpt lat="44.28062" lon="2.68656">
        <ele>731.2199707</ele>
        <time>2014-03-29T07:48:49Z</time>
      </trkpt>
      <trkpt lat="44.28063" lon="2.68657">
        <ele>731.2199707</ele>
        <time>2014-03-29T07:48:50Z</time>
      </trkpt>
      <trkpt lat="44.2807" lon="2.68658">
        <ele>733.1425781</ele>
        <time>2014-03-29T07:48:56Z</time>
      </trkpt>
      <trkpt lat="44.28074" lon="2.68659">
        <ele>734.5847168</ele>
        <time>2014-03-29T07:49:00Z</time>
      </trkpt>
      <trkpt lat="44.28079" lon="2.68659">
        <ele>737.9492188</ele>
        <time>2014-03-29T07:49:04Z</time>
      </trkpt>
      <trkpt lat="44.28081" lon="2.68659">
        <ele>738.4299316</ele>
        <time>2014-03-29T07:49:05Z</time>
      </trkpt>
      <trkpt lat="44.28083" lon="2.6866">
        <ele>738.4299316</ele>
        <time>2014-03-29T07:49:07Z</time>
      </trkpt>
      <trkpt lat="44.28088" lon="2.68659">
        <ele>740.8330078</ele>
        <time>2014-03-29T07:49:11Z</time>
      </trkpt>
      <trkpt lat="44.28092" lon="2.6866">
        <ele>741.7944336</ele>
        <time>2014-03-29T07:49:16Z</time>
      </trkpt>
      <trkpt lat="44.28098" lon="2.6866">
        <ele>741.7944336</ele>
        <time>2014-03-29T07:49:21Z</time>
      </trkpt>
      <trkpt lat="44.28103" lon="2.68658">
        <ele>744.1977539</ele>
        <time>2014-03-29T07:49:26Z</time>
      </trkpt>
      <trkpt lat="44.28109" lon="2.68661">
        <ele>745.6396484</ele>
        <time>2014-03-29T07:49:32Z</time>
      </trkpt>
      <trkpt lat="44.28114" lon="2.68663">
        <ele>747.5622559</ele>
        <time>2014-03-29T07:49:38Z</time>
      </trkpt>
      <trkpt lat="44.28121" lon="2.68662">
        <ele>751.4077148</ele>
        <time>2014-03-29T07:49:46Z</time>
      </trkpt>
      <trkpt lat="44.28127" lon="2.68661">
        <ele>755.2529297</ele>
        <time>2014-03-29T07:49:51Z</time>
      </trkpt>
      <trkpt lat="44.28136" lon="2.68656">
        <ele>757.1755371</ele>
        <time>2014-03-29T07:50:00Z</time>
      </trkpt>
      <trkpt lat="44.28139" lon="2.68655">
        <ele>757.1755371</ele>
        <time>2014-03-29T07:50:03Z</time>
      </trkpt>
      <trkpt lat="44.2814" lon="2.68654">
        <ele>757.65625</ele>
        <time>2014-03-29T07:50:05Z</time>
      </trkpt>
      <trkpt lat="44.28148" lon="2.68649">
        <ele>758.1369629</ele>
        <time>2014-03-29T07:50:12Z</time>
      </trkpt>
      <trkpt lat="44.28152" lon="2.68648">
        <ele>758.1369629</ele>
        <time>2014-03-29T07:50:15Z</time>
      </trkpt>
      <trkpt lat="44.28159" lon="2.68648">
        <ele>757.1755371</ele>
        <time>2014-03-29T07:50:21Z</time>
      </trkpt>
      <trkpt lat="44.28167" lon="2.68647">
        <ele>757.65625</ele>
        <time>2014-03-29T07:50:26Z</time>
      </trkpt>
      <trkpt lat="44.28176" lon="2.68646">
        <ele>759.0981445</ele>
        <time>2014-03-29T07:50:32Z</time>
      </trkpt>
      <trkpt lat="44.28185" lon="2.68644">
        <ele>759.5788574</ele>
        <time>2014-03-29T07:50:39Z</time>
      </trkpt>
      <trkpt lat="44.28187" lon="2.68644">
        <ele>759.5788574</ele>
        <time>2014-03-29T07:50:41Z</time>
      </trkpt>
      <trkpt lat="44.28198" lon="2.68642">
        <ele>762.4626465</ele>
        <time>2014-03-29T07:50:48Z</time>
      </trkpt>
      <trkpt lat="44.28201" lon="2.68642">
        <ele>762.9433594</ele>
        <time>2014-03-29T07:50:50Z</time>
      </trkpt>
      <trkpt lat="44.28205" lon="2.68642">
        <ele>764.385498</ele>
        <time>2014-03-29T07:50:53Z</time>
      </trkpt>
      <trkpt lat="44.28215" lon="2.68636">
        <ele>764.8662109</ele>
        <time>2014-03-29T07:51:00Z</time>
      </trkpt>
      <trkpt lat="44.28222" lon="2.68629">
        <ele>764.385498</ele>
        <time>2014-03-29T07:51:05Z</time>
      </trkpt>
      <trkpt lat="44.28231" lon="2.68621">
        <ele>764.385498</ele>
        <time>2014-03-29T07:51:09Z</time>
      </trkpt>
      <trkpt lat="44.2824" lon="2.68613">
        <ele>765.3469238</ele>
        <time>2014-03-29T07:51:14Z</time>
      </trkpt>
      <trkpt lat="44.28251" lon="2.68604">
        <ele>766.7888184</ele>
        <time>2014-03-29T07:51:20Z</time>
      </trkpt>
      <trkpt lat="44.28264" lon="2.68597">
        <ele>768.7114258</ele>
        <time>2014-03-29T07:51:26Z</time>
      </trkpt>
      <trkpt lat="44.28274" lon="2.68594">
        <ele>771.1147461</ele>
        <time>2014-03-29T07:51:31Z</time>
      </trkpt>
      <trkpt lat="44.28283" lon="2.68589">
        <ele>771.1147461</ele>
        <time>2014-03-29T07:51:38Z</time>
      </trkpt>
      <trkpt lat="44.2829" lon="2.68584">
        <ele>772.5566406</ele>
        <time>2014-03-29T07:51:44Z</time>
      </trkpt>
      <trkpt lat="44.28299" lon="2.68579">
        <ele>771.1147461</ele>
        <time>2014-03-29T07:51:51Z</time>
      </trkpt>
      <trkpt lat="44.28311" lon="2.68572">
        <ele>772.5566406</ele>
        <time>2014-03-29T07:52:00Z</time>
      </trkpt>
      <trkpt lat="44.28321" lon="2.68567">
        <ele>773.9985352</ele>
        <time>2014-03-29T07:52:05Z</time>
      </trkpt>
      <trkpt lat="44.28323" lon="2.68566">
        <ele>774.479248</ele>
        <time>2014-03-29T07:52:06Z</time>
      </trkpt>
      <trkpt lat="44.28338" lon="2.68567">
        <ele>777.3632813</ele>
        <time>2014-03-29T07:52:12Z</time>
      </trkpt>
      <trkpt lat="44.28348" lon="2.68576">
        <ele>777.84375</ele>
        <time>2014-03-29T07:52:17Z</time>
      </trkpt>
      <trkpt lat="44.28355" lon="2.68579">
        <ele>778.8051758</ele>
        <time>2014-03-29T07:52:20Z</time>
      </trkpt>
      <trkpt lat="44.28359" lon="2.6857">
        <ele>779.7663574</ele>
        <time>2014-03-29T07:52:25Z</time>
      </trkpt>
      <trkpt lat="44.28358" lon="2.68557">
        <ele>779.2856445</ele>
        <time>2014-03-29T07:52:29Z</time>
      </trkpt>
      <trkpt lat="44.28356" lon="2.68548">
        <ele>778.8051758</ele>
        <time>2014-03-29T07:52:32Z</time>
      </trkpt>
      <trkpt lat="44.28354" lon="2.6853">
        <ele>778.3244629</ele>
        <time>2014-03-29T07:52:38Z</time>
      </trkpt>
      <trkpt lat="44.28352" lon="2.68513">
        <ele>777.84375</ele>
        <time>2014-03-29T07:52:43Z</time>
      </trkpt>
      <trkpt lat="44.2835" lon="2.68498">
        <ele>776.8825684</ele>
        <time>2014-03-29T07:52:47Z</time>
      </trkpt>
      <trkpt lat="44.2835" lon="2.68479">
        <ele>777.3632813</ele>
        <time>2014-03-29T07:52:52Z</time>
      </trkpt>
      <trkpt lat="44.28347" lon="2.68463">
        <ele>776.8825684</ele>
        <time>2014-03-29T07:52:57Z</time>
      </trkpt>
      <trkpt lat="44.28347" lon="2.68461">
        <ele>776.4018555</ele>
        <time>2014-03-29T07:52:58Z</time>
      </trkpt>
      <trkpt lat="44.28346" lon="2.68439">
        <ele>775.9211426</ele>
        <time>2014-03-29T07:53:05Z</time>
      </trkpt>
      <trkpt lat="44.28343" lon="2.68424">
        <ele>776.8825684</ele>
        <time>2014-03-29T07:53:10Z</time>
      </trkpt>
      <trkpt lat="44.28343" lon="2.68398">
        <ele>777.84375</ele>
        <time>2014-03-29T07:53:15Z</time>
      </trkpt>
      <trkpt lat="44.28345" lon="2.68381">
        <ele>777.3632813</ele>
        <time>2014-03-29T07:53:19Z</time>
      </trkpt>
      <trkpt lat="44.28347" lon="2.68364">
        <ele>776.4018555</ele>
        <time>2014-03-29T07:53:23Z</time>
      </trkpt>
      <trkpt lat="44.28349" lon="2.6834">
        <ele>774.9599609</ele>
        <time>2014-03-29T07:53:29Z</time>
      </trkpt>
      <trkpt lat="44.2835" lon="2.68322">
        <ele>773.9985352</ele>
        <time>2014-03-29T07:53:33Z</time>
      </trkpt>
      <trkpt lat="44.28352" lon="2.68308">
        <ele>773.0373535</ele>
        <time>2014-03-29T07:53:36Z</time>
      </trkpt>
      <trkpt lat="44.28354" lon="2.68285">
        <ele>771.5952148</ele>
        <time>2014-03-29T07:53:41Z</time>
      </trkpt>
      <trkpt lat="44.28357" lon="2.68264">
        <ele>770.6340332</ele>
        <time>2014-03-29T07:53:46Z</time>
      </trkpt>
      <trkpt lat="44.28357" lon="2.68241">
        <ele>770.6340332</ele>
        <time>2014-03-29T07:53:51Z</time>
      </trkpt>
      <trkpt lat="44.2836" lon="2.68221">
        <ele>769.1921387</ele>
        <time>2014-03-29T07:53:56Z</time>
      </trkpt>
      <trkpt lat="44.28361" lon="2.68212">
        <ele>769.1921387</ele>
        <time>2014-03-29T07:54:00Z</time>
      </trkpt>
      <trkpt lat="44.28362" lon="2.68211">
        <ele>769.6728516</ele>
        <time>2014-03-29T07:54:05Z</time>
      </trkpt>
      <trkpt lat="44.28362" lon="2.68212">
        <ele>769.1921387</ele>
        <time>2014-03-29T07:54:12Z</time>
      </trkpt>
      <trkpt lat="44.28362" lon="2.68205">
        <ele>770.6340332</ele>
        <time>2014-03-29T07:54:18Z</time>
      </trkpt>
      <trkpt lat="44.28364" lon="2.68186">
        <ele>769.1921387</ele>
        <time>2014-03-29T07:54:23Z</time>
      </trkpt>
      <trkpt lat="44.28367" lon="2.68172">
        <ele>768.2307129</ele>
        <time>2014-03-29T07:54:27Z</time>
      </trkpt>
      <trkpt lat="44.28366" lon="2.68151">
        <ele>767.2695313</ele>
        <time>2014-03-29T07:54:32Z</time>
      </trkpt>
      <trkpt lat="44.28363" lon="2.68135">
        <ele>767.75</ele>
        <time>2014-03-29T07:54:36Z</time>
      </trkpt>
      <trkpt lat="44.28358" lon="2.68111">
        <ele>766.7888184</ele>
        <time>2014-03-29T07:54:42Z</time>
      </trkpt>
      <trkpt lat="44.28358" lon="2.68089">
        <ele>766.3081055</ele>
        <time>2014-03-29T07:54:47Z</time>
      </trkpt>
      <trkpt lat="44.2836" lon="2.68067">
        <ele>764.385498</ele>
        <time>2014-03-29T07:54:52Z</time>
      </trkpt>
      <trkpt lat="44.28363" lon="2.6805">
        <ele>763.904541</ele>
        <time>2014-03-29T07:54:56Z</time>
      </trkpt>
      <trkpt lat="44.28366" lon="2.68031">
        <ele>761.9821777</ele>
        <time>2014-03-29T07:55:01Z</time>
      </trkpt>
      <trkpt lat="44.2837" lon="2.68008">
        <ele>761.9821777</ele>
        <time>2014-03-29T07:55:07Z</time>
      </trkpt>
      <trkpt lat="44.28375" lon="2.67994">
        <ele>761.020752</ele>
        <time>2014-03-29T07:55:11Z</time>
      </trkpt>
      <trkpt lat="44.28382" lon="2.67973">
        <ele>762.4626465</ele>
        <time>2014-03-29T07:55:17Z</time>
      </trkpt>
      <trkpt lat="44.28385" lon="2.67961">
        <ele>762.4626465</ele>
        <time>2014-03-29T07:55:20Z</time>
      </trkpt>
      <trkpt lat="44.28393" lon="2.67939">
        <ele>760.0593262</ele>
        <time>2014-03-29T07:55:26Z</time>
      </trkpt>
      <trkpt lat="44.284" lon="2.67921">
        <ele>759.0981445</ele>
        <time>2014-03-29T07:55:31Z</time>
      </trkpt>
      <trkpt lat="44.28408" lon="2.67903">
        <ele>757.65625</ele>
        <time>2014-03-29T07:55:36Z</time>
      </trkpt>
      <trkpt lat="44.28417" lon="2.67885">
        <ele>756.2141113</ele>
        <time>2014-03-29T07:55:41Z</time>
      </trkpt>
      <trkpt lat="44.28424" lon="2.67868">
        <ele>756.6948242</ele>
        <time>2014-03-29T07:55:46Z</time>
      </trkpt>
      <trkpt lat="44.28425" lon="2.67848">
        <ele>756.6948242</ele>
        <time>2014-03-29T07:55:51Z</time>
      </trkpt>
      <trkpt lat="44.28421" lon="2.67833">
        <ele>757.65625</ele>
        <time>2014-03-29T07:55:55Z</time>
      </trkpt>
      <trkpt lat="44.28418" lon="2.67814">
        <ele>757.1755371</ele>
        <time>2014-03-29T07:56:00Z</time>
      </trkpt>
      <trkpt lat="44.28413" lon="2.67791">
        <ele>757.65625</ele>
        <time>2014-03-29T07:56:06Z</time>
      </trkpt>
      <trkpt lat="44.28404" lon="2.67774">
        <ele>759.5788574</ele>
        <time>2014-03-29T07:56:11Z</time>
      </trkpt>
      <trkpt lat="44.28391" lon="2.67754">
        <ele>762.4626465</ele>
        <time>2014-03-29T07:56:18Z</time>
      </trkpt>
      <trkpt lat="44.28384" lon="2.6774">
        <ele>764.385498</ele>
        <time>2014-03-29T07:56:23Z</time>
      </trkpt>
      <trkpt lat="44.28379" lon="2.6773">
        <ele>763.904541</ele>
        <time>2014-03-29T07:56:26Z</time>
      </trkpt>
      <trkpt lat="44.28373" lon="2.67719">
        <ele>764.8662109</ele>
        <time>2014-03-29T07:56:31Z</time>
      </trkpt>
      <trkpt lat="44.2837" lon="2.67712">
        <ele>764.8662109</ele>
        <time>2014-03-29T07:56:37Z</time>
      </trkpt>
      <trkpt lat="44.28367" lon="2.67702">
        <ele>764.8662109</ele>
        <time>2014-03-29T07:56:43Z</time>
      </trkpt>
      <trkpt lat="44.28365" lon="2.677">
        <ele>764.385498</ele>
        <time>2014-03-29T07:56:45Z</time>
      </trkpt>
      <trkpt lat="44.28356" lon="2.67686">
        <ele>766.3081055</ele>
        <time>2014-03-29T07:56:52Z</time>
      </trkpt>
      <trkpt lat="44.28351" lon="2.67681">
        <ele>766.3081055</ele>
        <time>2014-03-29T07:56:54Z</time>
      </trkpt>
      <trkpt lat="44.28343" lon="2.67658">
        <ele>766.7888184</ele>
        <time>2014-03-29T07:57:02Z</time>
      </trkpt>
      <trkpt lat="44.28341" lon="2.67644">
        <ele>765.8276367</ele>
        <time>2014-03-29T07:57:06Z</time>
      </trkpt>
      <trkpt lat="44.28339" lon="2.67635">
        <ele>764.385498</ele>
        <time>2014-03-29T07:57:10Z</time>
      </trkpt>
      <trkpt lat="44.28339" lon="2.67633">
        <ele>763.4240723</ele>
        <time>2014-03-29T07:57:11Z</time>
      </trkpt>
      <trkpt lat="44.28329" lon="2.67611">
        <ele>767.75</ele>
        <time>2014-03-29T07:57:17Z</time>
      </trkpt>
      <trkpt lat="44.28324" lon="2.67591">
        <ele>765.8276367</ele>
        <time>2014-03-29T07:57:23Z</time>
      </trkpt>
      <trkpt lat="44.28318" lon="2.67572">
        <ele>765.8276367</ele>
        <time>2014-03-29T07:57:29Z</time>
      </trkpt>
      <trkpt lat="44.28317" lon="2.67562">
        <ele>763.904541</ele>
        <time>2014-03-29T07:57:32Z</time>
      </trkpt>
      <trkpt lat="44.28312" lon="2.6754">
        <ele>763.4240723</ele>
        <time>2014-03-29T07:57:38Z</time>
      </trkpt>
      <trkpt lat="44.28309" lon="2.67519">
        <ele>764.385498</ele>
        <time>2014-03-29T07:57:44Z</time>
      </trkpt>
      <trkpt lat="44.28305" lon="2.67495">
        <ele>766.7888184</ele>
        <time>2014-03-29T07:57:50Z</time>
      </trkpt>
      <trkpt lat="44.28299" lon="2.67475">
        <ele>768.2307129</ele>
        <time>2014-03-29T07:57:56Z</time>
      </trkpt>
      <trkpt lat="44.28295" lon="2.67458">
        <ele>770.1533203</ele>
        <time>2014-03-29T07:58:01Z</time>
      </trkpt>
      <trkpt lat="44.28292" lon="2.67436">
        <ele>771.1147461</ele>
        <time>2014-03-29T07:58:07Z</time>
      </trkpt>
      <trkpt lat="44.28293" lon="2.67418">
        <ele>770.1533203</ele>
        <time>2014-03-29T07:58:12Z</time>
      </trkpt>
      <trkpt lat="44.28293" lon="2.67399">
        <ele>768.7114258</ele>
        <time>2014-03-29T07:58:18Z</time>
      </trkpt>
      <trkpt lat="44.28292" lon="2.67385">
        <ele>769.6728516</ele>
        <time>2014-03-29T07:58:23Z</time>
      </trkpt>
      <trkpt lat="44.28292" lon="2.67382">
        <ele>769.6728516</ele>
        <time>2014-03-29T07:58:24Z</time>
      </trkpt>
      <trkpt lat="44.28291" lon="2.67366">
        <ele>770.6340332</ele>
        <time>2014-03-29T07:58:29Z</time>
      </trkpt>
      <trkpt lat="44.2829" lon="2.67363">
        <ele>771.1147461</ele>
        <time>2014-03-29T07:58:30Z</time>
      </trkpt>
      <trkpt lat="44.28288" lon="2.67347">
        <ele>772.0759277</ele>
        <time>2014-03-29T07:58:35Z</time>
      </trkpt>
      <trkpt lat="44.28285" lon="2.67333">
        <ele>772.5566406</ele>
        <time>2014-03-29T07:58:39Z</time>
      </trkpt>
      <trkpt lat="44.28283" lon="2.67322">
        <ele>773.5180664</ele>
        <time>2014-03-29T07:58:42Z</time>
      </trkpt>
      <trkpt lat="44.28281" lon="2.67309">
        <ele>774.479248</ele>
        <time>2014-03-29T07:58:47Z</time>
      </trkpt>
      <trkpt lat="44.2828" lon="2.67298">
        <ele>775.9211426</ele>
        <time>2014-03-29T07:58:50Z</time>
      </trkpt>
      <trkpt lat="44.28275" lon="2.67281">
        <ele>778.3244629</ele>
        <time>2014-03-29T07:58:55Z</time>
      </trkpt>
      <trkpt lat="44.28273" lon="2.6726">
        <ele>779.2856445</ele>
        <time>2014-03-29T07:59:01Z</time>
      </trkpt>
      <trkpt lat="44.28272" lon="2.67244">
        <ele>779.2856445</ele>
        <time>2014-03-29T07:59:06Z</time>
      </trkpt>
      <trkpt lat="44.28272" lon="2.67223">
        <ele>779.7663574</ele>
        <time>2014-03-29T07:59:12Z</time>
      </trkpt>
      <trkpt lat="44.28271" lon="2.67205">
        <ele>779.2856445</ele>
        <time>2014-03-29T07:59:17Z</time>
      </trkpt>
      <trkpt lat="44.28267" lon="2.67181">
        <ele>780.2473145</ele>
        <time>2014-03-29T07:59:23Z</time>
      </trkpt>
      <trkpt lat="44.28265" lon="2.67166">
        <ele>780.2473145</ele>
        <time>2014-03-29T07:59:27Z</time>
      </trkpt>
      <trkpt lat="44.28263" lon="2.67152">
        <ele>778.8051758</ele>
        <time>2014-03-29T07:59:31Z</time>
      </trkpt>
      <trkpt lat="44.28259" lon="2.6713">
        <ele>779.2856445</ele>
        <time>2014-03-29T07:59:37Z</time>
      </trkpt>
      <trkpt lat="44.28258" lon="2.67127">
        <ele>779.2856445</ele>
        <time>2014-03-29T07:59:38Z</time>
      </trkpt>
      <trkpt lat="44.2826" lon="2.6712">
        <ele>779.2856445</ele>
        <time>2014-03-29T07:59:40Z</time>
      </trkpt>
      <trkpt lat="44.28269" lon="2.67112">
        <ele>779.2856445</ele>
        <time>2014-03-29T07:59:44Z</time>
      </trkpt>
      <trkpt lat="44.28285" lon="2.67104">
        <ele>779.2856445</ele>
        <time>2014-03-29T07:59:50Z</time>
      </trkpt>
      <trkpt lat="44.28297" lon="2.67097">
        <ele>780.7280273</ele>
        <time>2014-03-29T07:59:55Z</time>
      </trkpt>
      <trkpt lat="44.28311" lon="2.67092">
        <ele>781.2087402</ele>
        <time>2014-03-29T08:00:00Z</time>
      </trkpt>
      <trkpt lat="44.28324" lon="2.67085">
        <ele>780.2473145</ele>
        <time>2014-03-29T08:00:05Z</time>
      </trkpt>
      <trkpt lat="44.2834" lon="2.67071">
        <ele>777.84375</ele>
        <time>2014-03-29T08:00:11Z</time>
      </trkpt>
      <trkpt lat="44.28349" lon="2.67055">
        <ele>776.4018555</ele>
        <time>2014-03-29T08:00:16Z</time>
      </trkpt>
      <trkpt lat="44.28359" lon="2.67037">
        <ele>775.4404297</ele>
        <time>2014-03-29T08:00:21Z</time>
      </trkpt>
      <trkpt lat="44.28373" lon="2.6701">
        <ele>773.5180664</ele>
        <time>2014-03-29T08:00:29Z</time>
      </trkpt>
      <trkpt lat="44.28384" lon="2.66988">
        <ele>772.0759277</ele>
        <time>2014-03-29T08:00:35Z</time>
      </trkpt>
      <trkpt lat="44.28395" lon="2.66969">
        <ele>770.6340332</ele>
        <time>2014-03-29T08:00:41Z</time>
      </trkpt>
      <trkpt lat="44.28406" lon="2.66944">
        <ele>770.1533203</ele>
        <time>2014-03-29T08:00:48Z</time>
      </trkpt>
      <trkpt lat="44.28414" lon="2.66931">
        <ele>768.7114258</ele>
        <time>2014-03-29T08:00:52Z</time>
      </trkpt>
      <trkpt lat="44.28425" lon="2.66918">
        <ele>766.7888184</ele>
        <time>2014-03-29T08:00:57Z</time>
      </trkpt>
      <trkpt lat="44.28436" lon="2.669">
        <ele>764.385498</ele>
        <time>2014-03-29T08:01:03Z</time>
      </trkpt>
      <trkpt lat="44.28448" lon="2.66883">
        <ele>761.5014648</ele>
        <time>2014-03-29T08:01:09Z</time>
      </trkpt>
      <trkpt lat="44.28458" lon="2.66867">
        <ele>759.0981445</ele>
        <time>2014-03-29T08:01:14Z</time>
      </trkpt>
      <trkpt lat="44.28466" lon="2.66853">
        <ele>758.1369629</ele>
        <time>2014-03-29T08:01:18Z</time>
      </trkpt>
      <trkpt lat="44.28477" lon="2.66839">
        <ele>756.6948242</ele>
        <time>2014-03-29T08:01:23Z</time>
      </trkpt>
      <trkpt lat="44.28486" lon="2.66823">
        <ele>756.6948242</ele>
        <time>2014-03-29T08:01:28Z</time>
      </trkpt>
      <trkpt lat="44.28495" lon="2.6681">
        <ele>754.7722168</ele>
        <time>2014-03-29T08:01:33Z</time>
      </trkpt>
      <trkpt lat="44.28505" lon="2.66805">
        <ele>752.3688965</ele>
        <time>2014-03-29T08:01:37Z</time>
      </trkpt>
      <trkpt lat="44.28517" lon="2.66795">
        <ele>749.4851074</ele>
        <time>2014-03-29T08:01:42Z</time>
      </trkpt>
      <trkpt lat="44.2852" lon="2.66792">
        <ele>748.5236816</ele>
        <time>2014-03-29T08:01:44Z</time>
      </trkpt>
      <trkpt lat="44.28535" lon="2.66778">
        <ele>744.1977539</ele>
        <time>2014-03-29T08:01:51Z</time>
      </trkpt>
      <trkpt lat="44.28547" lon="2.66763">
        <ele>744.1977539</ele>
        <time>2014-03-29T08:01:56Z</time>
      </trkpt>
      <trkpt lat="44.28559" lon="2.66747">
        <ele>741.7944336</ele>
        <time>2014-03-29T08:02:01Z</time>
      </trkpt>
      <trkpt lat="44.28573" lon="2.66731">
        <ele>738.4299316</ele>
        <time>2014-03-29T08:02:07Z</time>
      </trkpt>
      <trkpt lat="44.28581" lon="2.66707">
        <ele>738.9106445</ele>
        <time>2014-03-29T08:02:13Z</time>
      </trkpt>
      <trkpt lat="44.28588" lon="2.66688">
        <ele>737.9492188</ele>
        <time>2014-03-29T08:02:18Z</time>
      </trkpt>
      <trkpt lat="44.28595" lon="2.6667">
        <ele>736.0266113</ele>
        <time>2014-03-29T08:02:23Z</time>
      </trkpt>
      <trkpt lat="44.28605" lon="2.66653">
        <ele>735.0654297</ele>
        <time>2014-03-29T08:02:28Z</time>
      </trkpt>
      <trkpt lat="44.28614" lon="2.66637">
        <ele>732.6621094</ele>
        <time>2014-03-29T08:02:33Z</time>
      </trkpt>
      <trkpt lat="44.28621" lon="2.66616">
        <ele>733.623291</ele>
        <time>2014-03-29T08:02:38Z</time>
      </trkpt>
      <trkpt lat="44.28624" lon="2.66606">
        <ele>731.7004395</ele>
        <time>2014-03-29T08:02:41Z</time>
      </trkpt>
      <trkpt lat="44.28634" lon="2.66595">
        <ele>730.7392578</ele>
        <time>2014-03-29T08:02:45Z</time>
      </trkpt>
      <trkpt lat="44.28644" lon="2.66575">
        <ele>729.777832</ele>
        <time>2014-03-29T08:02:51Z</time>
      </trkpt>
      <trkpt lat="44.28654" lon="2.66558">
        <ele>726.894043</ele>
        <time>2014-03-29T08:02:56Z</time>
      </trkpt>
      <trkpt lat="44.28664" lon="2.66546">
        <ele>725.4519043</ele>
        <time>2014-03-29T08:03:00Z</time>
      </trkpt>
      <trkpt lat="44.28676" lon="2.66537">
        <ele>724.4907227</ele>
        <time>2014-03-29T08:03:05Z</time>
      </trkpt>
      <trkpt lat="44.28685" lon="2.66529">
        <ele>724.0100098</ele>
        <time>2014-03-29T08:03:09Z</time>
      </trkpt>
      <trkpt lat="44.28696" lon="2.66519">
        <ele>725.9326172</ele>
        <time>2014-03-29T08:03:14Z</time>
      </trkpt>
      <trkpt lat="44.28706" lon="2.66509">
        <ele>726.894043</ele>
        <time>2014-03-29T08:03:19Z</time>
      </trkpt>
      <trkpt lat="44.28713" lon="2.6649">
        <ele>729.2971191</ele>
        <time>2014-03-29T08:03:25Z</time>
      </trkpt>
      <trkpt lat="44.28716" lon="2.66477">
        <ele>730.7392578</ele>
        <time>2014-03-29T08:03:29Z</time>
      </trkpt>
      <trkpt lat="44.28722" lon="2.66461">
        <ele>731.7004395</ele>
        <time>2014-03-29T08:03:35Z</time>
      </trkpt>
      <trkpt lat="44.28725" lon="2.66452">
        <ele>733.1425781</ele>
        <time>2014-03-29T08:03:38Z</time>
      </trkpt>
      <trkpt lat="44.28728" lon="2.66438">
        <ele>734.1040039</ele>
        <time>2014-03-29T08:03:43Z</time>
      </trkpt>
      <trkpt lat="44.2873" lon="2.66425">
        <ele>734.5847168</ele>
        <time>2014-03-29T08:03:49Z</time>
      </trkpt>
      <trkpt lat="44.28731" lon="2.66422">
        <ele>734.5847168</ele>
        <time>2014-03-29T08:03:51Z</time>
      </trkpt>
      <trkpt lat="44.28735" lon="2.66409">
        <ele>735.5458984</ele>
        <time>2014-03-29T08:03:58Z</time>
      </trkpt>
      <trkpt lat="44.28736" lon="2.66404">
        <ele>736.0266113</ele>
        <time>2014-03-29T08:04:01Z</time>
      </trkpt>
      <trkpt lat="44.2874" lon="2.66393">
        <ele>737.9492188</ele>
        <time>2014-03-29T08:04:07Z</time>
      </trkpt>
      <trkpt lat="44.28744" lon="2.66378">
        <ele>739.8718262</ele>
        <time>2014-03-29T08:04:15Z</time>
      </trkpt>
      <trkpt lat="44.28748" lon="2.66371">
        <ele>740.3525391</ele>
        <time>2014-03-29T08:04:20Z</time>
      </trkpt>
      <trkpt lat="44.28753" lon="2.66356">
        <ele>740.8330078</ele>
        <time>2014-03-29T08:04:29Z</time>
      </trkpt>
      <trkpt lat="44.28757" lon="2.66344">
        <ele>742.2751465</ele>
        <time>2014-03-29T08:04:35Z</time>
      </trkpt>
      <trkpt lat="44.28762" lon="2.66331">
        <ele>741.7944336</ele>
        <time>2014-03-29T08:04:41Z</time>
      </trkpt>
      <trkpt lat="44.28768" lon="2.66312">
        <ele>742.7558594</ele>
        <time>2014-03-29T08:04:47Z</time>
      </trkpt>
      <trkpt lat="44.28773" lon="2.66297">
        <ele>743.717041</ele>
        <time>2014-03-29T08:04:52Z</time>
      </trkpt>
      <trkpt lat="44.28776" lon="2.66281">
        <ele>743.717041</ele>
        <time>2014-03-29T08:04:57Z</time>
      </trkpt>
      <trkpt lat="44.2878" lon="2.66267">
        <ele>743.717041</ele>
        <time>2014-03-29T08:05:01Z</time>
      </trkpt>
      <trkpt lat="44.28786" lon="2.66256">
        <ele>743.2363281</ele>
        <time>2014-03-29T08:05:05Z</time>
      </trkpt>
      <trkpt lat="44.28791" lon="2.66238">
        <ele>742.7558594</ele>
        <time>2014-03-29T08:05:10Z</time>
      </trkpt>
      <trkpt lat="44.28795" lon="2.66221">
        <ele>743.2363281</ele>
        <time>2014-03-29T08:05:14Z</time>
      </trkpt>
      <trkpt lat="44.28797" lon="2.66214">
        <ele>743.2363281</ele>
        <time>2014-03-29T08:05:16Z</time>
      </trkpt>
      <trkpt lat="44.28806" lon="2.66199">
        <ele>745.1589355</ele>
        <time>2014-03-29T08:05:22Z</time>
      </trkpt>
      <trkpt lat="44.28814" lon="2.66188">
        <ele>747.081543</ele>
        <time>2014-03-29T08:05:26Z</time>
      </trkpt>
      <trkpt lat="44.28823" lon="2.66179">
        <ele>747.5622559</ele>
        <time>2014-03-29T08:05:31Z</time>
      </trkpt>
      <trkpt lat="44.2883" lon="2.66166">
        <ele>749.0043945</ele>
        <time>2014-03-29T08:05:37Z</time>
      </trkpt>
      <trkpt lat="44.28841" lon="2.66153">
        <ele>750.927002</ele>
        <time>2014-03-29T08:05:42Z</time>
      </trkpt>
      <trkpt lat="44.28854" lon="2.66144">
        <ele>749.4851074</ele>
        <time>2014-03-29T08:05:48Z</time>
      </trkpt>
      <trkpt lat="44.28866" lon="2.66137">
        <ele>747.5622559</ele>
        <time>2014-03-29T08:05:52Z</time>
      </trkpt>
      <trkpt lat="44.28884" lon="2.66135">
        <ele>745.1589355</ele>
        <time>2014-03-29T08:05:58Z</time>
      </trkpt>
      <trkpt lat="44.28899" lon="2.6614">
        <ele>745.1589355</ele>
        <time>2014-03-29T08:06:03Z</time>
      </trkpt>
      <trkpt lat="44.28909" lon="2.66155">
        <ele>744.6782227</ele>
        <time>2014-03-29T08:06:08Z</time>
      </trkpt>
      <trkpt lat="44.2891" lon="2.66158">
        <ele>744.6782227</ele>
        <time>2014-03-29T08:06:09Z</time>
      </trkpt>
      <trkpt lat="44.28915" lon="2.6618">
        <ele>744.6782227</ele>
        <time>2014-03-29T08:06:15Z</time>
      </trkpt>
      <trkpt lat="44.28915" lon="2.66187">
        <ele>744.1977539</ele>
        <time>2014-03-29T08:06:17Z</time>
      </trkpt>
      <trkpt lat="44.28909" lon="2.66213">
        <ele>742.2751465</ele>
        <time>2014-03-29T08:06:24Z</time>
      </trkpt>
      <trkpt lat="44.28902" lon="2.66234">
        <ele>739.3911133</ele>
        <time>2014-03-29T08:06:30Z</time>
      </trkpt>
      <trkpt lat="44.289" lon="2.66241">
        <ele>738.4299316</ele>
        <time>2014-03-29T08:06:32Z</time>
      </trkpt>
      <trkpt lat="44.28888" lon="2.66257">
        <ele>735.0654297</ele>
        <time>2014-03-29T08:06:39Z</time>
      </trkpt>
      <trkpt lat="44.28876" lon="2.66268">
        <ele>732.6621094</ele>
        <time>2014-03-29T08:06:44Z</time>
      </trkpt>
      <trkpt lat="44.28872" lon="2.66283">
        <ele>729.2971191</ele>
        <time>2014-03-29T08:06:49Z</time>
      </trkpt>
      <trkpt lat="44.28875" lon="2.66292">
        <ele>729.2971191</ele>
        <time>2014-03-29T08:06:52Z</time>
      </trkpt>
      <trkpt lat="44.28884" lon="2.66315">
        <ele>727.8552246</ele>
        <time>2014-03-29T08:06:58Z</time>
      </trkpt>
      <trkpt lat="44.28892" lon="2.6633">
        <ele>725.9326172</ele>
        <time>2014-03-29T08:07:03Z</time>
      </trkpt>
      <trkpt lat="44.28904" lon="2.66346">
        <ele>723.529541</ele>
        <time>2014-03-29T08:07:09Z</time>
      </trkpt>
      <trkpt lat="44.28919" lon="2.66357">
        <ele>721.6066895</ele>
        <time>2014-03-29T08:07:14Z</time>
      </trkpt>
      <trkpt lat="44.28932" lon="2.66368">
        <ele>717.7614746</ele>
        <time>2014-03-29T08:07:19Z</time>
      </trkpt>
      <trkpt lat="44.28946" lon="2.66378">
        <ele>715.3581543</ele>
        <time>2014-03-29T08:07:24Z</time>
      </trkpt>
      <trkpt lat="44.28959" lon="2.66391">
        <ele>712.954834</ele>
        <time>2014-03-29T08:07:29Z</time>
      </trkpt>
      <trkpt lat="44.28974" lon="2.66402">
        <ele>710.5515137</ele>
        <time>2014-03-29T08:07:34Z</time>
      </trkpt>
      <trkpt lat="44.28994" lon="2.6641">
        <ele>706.7062988</ele>
        <time>2014-03-29T08:07:40Z</time>
      </trkpt>
      <trkpt lat="44.29012" lon="2.66413">
        <ele>704.3032227</ele>
        <time>2014-03-29T08:07:46Z</time>
      </trkpt>
      <trkpt lat="44.29027" lon="2.66409">
        <ele>702.861084</ele>
        <time>2014-03-29T08:07:51Z</time>
      </trkpt>
      <trkpt lat="44.29043" lon="2.66398">
        <ele>699.4963379</ele>
        <time>2014-03-29T08:07:56Z</time>
      </trkpt>
      <trkpt lat="44.2906" lon="2.66386">
        <ele>695.651123</ele>
        <time>2014-03-29T08:08:02Z</time>
      </trkpt>
      <trkpt lat="44.29074" lon="2.66379">
        <ele>697.5737305</ele>
        <time>2014-03-29T08:08:06Z</time>
      </trkpt>
      <trkpt lat="44.29089" lon="2.66374">
        <ele>697.5737305</ele>
        <time>2014-03-29T08:08:11Z</time>
      </trkpt>
      <trkpt lat="44.29096" lon="2.66365">
        <ele>695.651123</ele>
        <time>2014-03-29T08:08:15Z</time>
      </trkpt>
      <trkpt lat="44.29103" lon="2.66352">
        <ele>695.1704102</ele>
        <time>2014-03-29T08:08:20Z</time>
      </trkpt>
      <trkpt lat="44.29106" lon="2.66344">
        <ele>694.6896973</ele>
        <time>2014-03-29T08:08:23Z</time>
      </trkpt>
      <trkpt lat="44.29114" lon="2.66324">
        <ele>697.5737305</ele>
        <time>2014-03-29T08:08:29Z</time>
      </trkpt>
      <trkpt lat="44.29116" lon="2.66317">
        <ele>698.5349121</ele>
        <time>2014-03-29T08:08:31Z</time>
      </trkpt>
      <trkpt lat="44.29121" lon="2.66302">
        <ele>699.015625</ele>
        <time>2014-03-29T08:08:37Z</time>
      </trkpt>
      <trkpt lat="44.29125" lon="2.66291">
        <ele>699.015625</ele>
        <time>2014-03-29T08:08:41Z</time>
      </trkpt>
      <trkpt lat="44.2913" lon="2.66283">
        <ele>698.5349121</ele>
        <time>2014-03-29T08:08:46Z</time>
      </trkpt>
      <trkpt lat="44.29134" lon="2.66273">
        <ele>700.4580078</ele>
        <time>2014-03-29T08:08:50Z</time>
      </trkpt>
      <trkpt lat="44.29138" lon="2.66264">
        <ele>700.9384766</ele>
        <time>2014-03-29T08:08:54Z</time>
      </trkpt>
      <trkpt lat="44.29146" lon="2.66249">
        <ele>700.4580078</ele>
        <time>2014-03-29T08:09:01Z</time>
      </trkpt>
      <trkpt lat="44.29156" lon="2.66237">
        <ele>700.9384766</ele>
        <time>2014-03-29T08:09:07Z</time>
      </trkpt>
      <trkpt lat="44.29163" lon="2.66229">
        <ele>702.3803711</ele>
        <time>2014-03-29T08:09:12Z</time>
      </trkpt>
      <trkpt lat="44.29175" lon="2.66219">
        <ele>703.8225098</ele>
        <time>2014-03-29T08:09:19Z</time>
      </trkpt>
      <trkpt lat="44.29185" lon="2.66211">
        <ele>705.2644043</ele>
        <time>2014-03-29T08:09:24Z</time>
      </trkpt>
      <trkpt lat="44.29196" lon="2.66199">
        <ele>704.7836914</ele>
        <time>2014-03-29T08:09:30Z</time>
      </trkpt>
      <trkpt lat="44.29201" lon="2.66189">
        <ele>706.7062988</ele>
        <time>2014-03-29T08:09:35Z</time>
      </trkpt>
      <trkpt lat="44.29207" lon="2.66175">
        <ele>707.6677246</ele>
        <time>2014-03-29T08:09:40Z</time>
      </trkpt>
      <trkpt lat="44.2921" lon="2.6616">
        <ele>708.6289063</ele>
        <time>2014-03-29T08:09:45Z</time>
      </trkpt>
      <trkpt lat="44.29217" lon="2.66138">
        <ele>710.5515137</ele>
        <time>2014-03-29T08:09:52Z</time>
      </trkpt>
      <trkpt lat="44.29221" lon="2.66124">
        <ele>712.4741211</ele>
        <time>2014-03-29T08:09:57Z</time>
      </trkpt>
      <trkpt lat="44.29224" lon="2.66109">
        <ele>713.9160156</ele>
        <time>2014-03-29T08:10:03Z</time>
      </trkpt>
      <trkpt lat="44.29223" lon="2.661">
        <ele>717.7614746</ele>
        <time>2014-03-29T08:10:07Z</time>
      </trkpt>
      <trkpt lat="44.29223" lon="2.6609">
        <ele>720.1647949</ele>
        <time>2014-03-29T08:10:13Z</time>
      </trkpt>
      <trkpt lat="44.29223" lon="2.66088">
        <ele>720.1647949</ele>
        <time>2014-03-29T08:10:14Z</time>
      </trkpt>
      <trkpt lat="44.29223" lon="2.6607">
        <ele>720.1647949</ele>
        <time>2014-03-29T08:10:22Z</time>
      </trkpt>
      <trkpt lat="44.29228" lon="2.66061">
        <ele>718.2421875</ele>
        <time>2014-03-29T08:10:27Z</time>
      </trkpt>
      <trkpt lat="44.29232" lon="2.66047">
        <ele>716.3195801</ele>
        <time>2014-03-29T08:10:34Z</time>
      </trkpt>
      <trkpt lat="44.29237" lon="2.66032">
        <ele>716.800293</ele>
        <time>2014-03-29T08:10:40Z</time>
      </trkpt>
      <trkpt lat="44.29241" lon="2.66018">
        <ele>715.8388672</ele>
        <time>2014-03-29T08:10:45Z</time>
      </trkpt>
      <trkpt lat="44.29246" lon="2.65999">
        <ele>717.7614746</ele>
        <time>2014-03-29T08:10:50Z</time>
      </trkpt>
      <trkpt lat="44.29254" lon="2.65983">
        <ele>719.2036133</ele>
        <time>2014-03-29T08:10:55Z</time>
      </trkpt>
      <trkpt lat="44.29265" lon="2.65965">
        <ele>719.2036133</ele>
        <time>2014-03-29T08:11:02Z</time>
      </trkpt>
      <trkpt lat="44.29267" lon="2.65955">
        <ele>720.6455078</ele>
        <time>2014-03-29T08:11:05Z</time>
      </trkpt>
      <trkpt lat="44.29277" lon="2.65935">
        <ele>721.1262207</ele>
        <time>2014-03-29T08:11:12Z</time>
      </trkpt>
      <trkpt lat="44.29288" lon="2.65921">
        <ele>719.6843262</ele>
        <time>2014-03-29T08:11:18Z</time>
      </trkpt>
      <trkpt lat="44.293" lon="2.65912">
        <ele>720.1647949</ele>
        <time>2014-03-29T08:11:24Z</time>
      </trkpt>
      <trkpt lat="44.29303" lon="2.6591">
        <ele>719.6843262</ele>
        <time>2014-03-29T08:11:25Z</time>
      </trkpt>
      <trkpt lat="44.29313" lon="2.65906">
        <ele>722.0874023</ele>
        <time>2014-03-29T08:11:29Z</time>
      </trkpt>
      <trkpt lat="44.29329" lon="2.65907">
        <ele>719.6843262</ele>
        <time>2014-03-29T08:11:34Z</time>
      </trkpt>
      <trkpt lat="44.29342" lon="2.65908">
        <ele>717.2810059</ele>
        <time>2014-03-29T08:11:38Z</time>
      </trkpt>
      <trkpt lat="44.29358" lon="2.65905">
        <ele>714.8774414</ele>
        <time>2014-03-29T08:11:44Z</time>
      </trkpt>
      <trkpt lat="44.2937" lon="2.65901">
        <ele>712.954834</ele>
        <time>2014-03-29T08:11:49Z</time>
      </trkpt>
      <trkpt lat="44.29384" lon="2.65898">
        <ele>712.954834</ele>
        <time>2014-03-29T08:11:54Z</time>
      </trkpt>
      <trkpt lat="44.29396" lon="2.65892">
        <ele>712.954834</ele>
        <time>2014-03-29T08:11:59Z</time>
      </trkpt>
      <trkpt lat="44.29398" lon="2.65891">
        <ele>712.954834</ele>
        <time>2014-03-29T08:12:00Z</time>
      </trkpt>
      <trkpt lat="44.29412" lon="2.65878">
        <ele>714.8774414</ele>
        <time>2014-03-29T08:12:06Z</time>
      </trkpt>
      <trkpt lat="44.29427" lon="2.65861">
        <ele>716.3195801</ele>
        <time>2014-03-29T08:12:12Z</time>
      </trkpt>
      <trkpt lat="44.29441" lon="2.65846">
        <ele>715.3581543</ele>
        <time>2014-03-29T08:12:18Z</time>
      </trkpt>
      <trkpt lat="44.29452" lon="2.65834">
        <ele>715.8388672</ele>
        <time>2014-03-29T08:12:23Z</time>
      </trkpt>
      <trkpt lat="44.29466" lon="2.65821">
        <ele>715.3581543</ele>
        <time>2014-03-29T08:12:30Z</time>
      </trkpt>
      <trkpt lat="44.29476" lon="2.65814">
        <ele>715.8388672</ele>
        <time>2014-03-29T08:12:35Z</time>
      </trkpt>
      <trkpt lat="44.29489" lon="2.65807">
        <ele>716.800293</ele>
        <time>2014-03-29T08:12:41Z</time>
      </trkpt>
      <trkpt lat="44.29505" lon="2.65802">
        <ele>716.800293</ele>
        <time>2014-03-29T08:12:49Z</time>
      </trkpt>
      <trkpt lat="44.29514" lon="2.65797">
        <ele>716.800293</ele>
        <time>2014-03-29T08:12:53Z</time>
      </trkpt>
      <trkpt lat="44.29527" lon="2.6579">
        <ele>718.2421875</ele>
        <time>2014-03-29T08:12:59Z</time>
      </trkpt>
      <trkpt lat="44.29541" lon="2.65785">
        <ele>720.6455078</ele>
        <time>2014-03-29T08:13:04Z</time>
      </trkpt>
      <trkpt lat="44.29555" lon="2.65779">
        <ele>720.1647949</ele>
        <time>2014-03-29T08:13:10Z</time>
      </trkpt>
      <trkpt lat="44.29565" lon="2.65773">
        <ele>720.6455078</ele>
        <time>2014-03-29T08:13:15Z</time>
      </trkpt>
      <trkpt lat="44.29579" lon="2.65765">
        <ele>720.1647949</ele>
        <time>2014-03-29T08:13:21Z</time>
      </trkpt>
      <trkpt lat="44.29593" lon="2.65753">
        <ele>720.6455078</ele>
        <time>2014-03-29T08:13:27Z</time>
      </trkpt>
      <trkpt lat="44.29604" lon="2.65744">
        <ele>721.6066895</ele>
        <time>2014-03-29T08:13:31Z</time>
      </trkpt>
      <trkpt lat="44.2962" lon="2.65734">
        <ele>722.0874023</ele>
        <time>2014-03-29T08:13:37Z</time>
      </trkpt>
      <trkpt lat="44.29635" lon="2.65722">
        <ele>721.6066895</ele>
        <time>2014-03-29T08:13:43Z</time>
      </trkpt>
      <trkpt lat="44.29646" lon="2.65722">
        <ele>722.0874023</ele>
        <time>2014-03-29T08:13:47Z</time>
      </trkpt>
      <trkpt lat="44.29658" lon="2.65729">
        <ele>722.0874023</ele>
        <time>2014-03-29T08:13:52Z</time>
      </trkpt>
      <trkpt lat="44.29668" lon="2.65727">
        <ele>722.0874023</ele>
        <time>2014-03-29T08:13:56Z</time>
      </trkpt>
      <trkpt lat="44.29673" lon="2.65728">
        <ele>721.6066895</ele>
        <time>2014-03-29T08:13:58Z</time>
      </trkpt>
      <trkpt lat="44.29685" lon="2.65719">
        <ele>720.1647949</ele>
        <time>2014-03-29T08:14:03Z</time>
      </trkpt>
      <trkpt lat="44.29696" lon="2.65703">
        <ele>717.2810059</ele>
        <time>2014-03-29T08:14:09Z</time>
      </trkpt>
      <trkpt lat="44.29703" lon="2.65691">
        <ele>715.3581543</ele>
        <time>2014-03-29T08:14:13Z</time>
      </trkpt>
      <trkpt lat="44.29713" lon="2.65676">
        <ele>712.4741211</ele>
        <time>2014-03-29T08:14:18Z</time>
      </trkpt>
      <trkpt lat="44.29726" lon="2.65663">
        <ele>710.5515137</ele>
        <time>2014-03-29T08:14:23Z</time>
      </trkpt>
      <trkpt lat="44.29738" lon="2.65657">
        <ele>708.6289063</ele>
        <time>2014-03-29T08:14:27Z</time>
      </trkpt>
      <trkpt lat="44.29755" lon="2.65655">
        <ele>706.2255859</ele>
        <time>2014-03-29T08:14:33Z</time>
      </trkpt>
      <trkpt lat="44.2976" lon="2.65652">
        <ele>704.7836914</ele>
        <time>2014-03-29T08:14:35Z</time>
      </trkpt>
      <trkpt lat="44.29774" lon="2.65648">
        <ele>701.4191895</ele>
        <time>2014-03-29T08:14:40Z</time>
      </trkpt>
      <trkpt lat="44.29789" lon="2.65638">
        <ele>696.1318359</ele>
        <time>2014-03-29T08:14:46Z</time>
      </trkpt>
      <trkpt lat="44.29801" lon="2.65636">
        <ele>693.7285156</ele>
        <time>2014-03-29T08:14:50Z</time>
      </trkpt>
      <trkpt lat="44.29805" lon="2.65632">
        <ele>691.8059082</ele>
        <time>2014-03-29T08:14:52Z</time>
      </trkpt>
      <trkpt lat="44.29815" lon="2.65621">
        <ele>688.9221191</ele>
        <time>2014-03-29T08:14:57Z</time>
      </trkpt>
      <trkpt lat="44.29827" lon="2.65609">
        <ele>687.9606934</ele>
        <time>2014-03-29T08:15:02Z</time>
      </trkpt>
      <trkpt lat="44.29842" lon="2.65595">
        <ele>687.4799805</ele>
        <time>2014-03-29T08:15:08Z</time>
      </trkpt>
      <trkpt lat="44.29854" lon="2.65585">
        <ele>687.4799805</ele>
        <time>2014-03-29T08:15:13Z</time>
      </trkpt>
      <trkpt lat="44.29867" lon="2.65576">
        <ele>687.4799805</ele>
        <time>2014-03-29T08:15:18Z</time>
      </trkpt>
      <trkpt lat="44.29879" lon="2.65566">
        <ele>686.0380859</ele>
        <time>2014-03-29T08:15:23Z</time>
      </trkpt>
      <trkpt lat="44.29891" lon="2.65557">
        <ele>685.557373</ele>
        <time>2014-03-29T08:15:28Z</time>
      </trkpt>
      <trkpt lat="44.29904" lon="2.65547">
        <ele>684.1154785</ele>
        <time>2014-03-29T08:15:33Z</time>
      </trkpt>
      <trkpt lat="44.29917" lon="2.65536">
        <ele>683.6345215</ele>
        <time>2014-03-29T08:15:38Z</time>
      </trkpt>
      <trkpt lat="44.29925" lon="2.65527">
        <ele>683.6345215</ele>
        <time>2014-03-29T08:15:42Z</time>
      </trkpt>
      <trkpt lat="44.29937" lon="2.65505">
        <ele>684.5961914</ele>
        <time>2014-03-29T08:15:49Z</time>
      </trkpt>
      <trkpt lat="44.29946" lon="2.65489">
        <ele>684.5961914</ele>
        <time>2014-03-29T08:15:54Z</time>
      </trkpt>
      <trkpt lat="44.29954" lon="2.65473">
        <ele>683.1538086</ele>
        <time>2014-03-29T08:15:59Z</time>
      </trkpt>
      <trkpt lat="44.29961" lon="2.65459">
        <ele>682.6733398</ele>
        <time>2014-03-29T08:16:03Z</time>
      </trkpt>
      <trkpt lat="44.29969" lon="2.65435">
        <ele>682.6733398</ele>
        <time>2014-03-29T08:16:09Z</time>
      </trkpt>
      <trkpt lat="44.29978" lon="2.65403">
        <ele>679.7893066</ele>
        <time>2014-03-29T08:16:17Z</time>
      </trkpt>
      <trkpt lat="44.29983" lon="2.65385">
        <ele>678.3474121</ele>
        <time>2014-03-29T08:16:22Z</time>
      </trkpt>
      <trkpt lat="44.29988" lon="2.65365">
        <ele>677.3862305</ele>
        <time>2014-03-29T08:16:27Z</time>
      </trkpt>
      <trkpt lat="44.29993" lon="2.65341">
        <ele>675.9440918</ele>
        <time>2014-03-29T08:16:33Z</time>
      </trkpt>
      <trkpt lat="44.29997" lon="2.65318">
        <ele>675.4633789</ele>
        <time>2014-03-29T08:16:39Z</time>
      </trkpt>
      <trkpt lat="44.30002" lon="2.65306">
        <ele>674.5021973</ele>
        <time>2014-03-29T08:16:42Z</time>
      </trkpt>
      <trkpt lat="44.30013" lon="2.65309">
        <ele>674.0214844</ele>
        <time>2014-03-29T08:16:46Z</time>
      </trkpt>
      <trkpt lat="44.30028" lon="2.65329">
        <ele>674.5021973</ele>
        <time>2014-03-29T08:16:53Z</time>
      </trkpt>
      <trkpt lat="44.30039" lon="2.65344">
        <ele>675.4633789</ele>
        <time>2014-03-29T08:16:58Z</time>
      </trkpt>
      <trkpt lat="44.3005" lon="2.6536">
        <ele>674.9829102</ele>
        <time>2014-03-29T08:17:03Z</time>
      </trkpt>
      <trkpt lat="44.30059" lon="2.65371">
        <ele>674.9829102</ele>
        <time>2014-03-29T08:17:07Z</time>
      </trkpt>
      <trkpt lat="44.30075" lon="2.6539">
        <ele>674.5021973</ele>
        <time>2014-03-29T08:17:14Z</time>
      </trkpt>
      <trkpt lat="44.30084" lon="2.65398">
        <ele>674.5021973</ele>
        <time>2014-03-29T08:17:18Z</time>
      </trkpt>
      <trkpt lat="44.30101" lon="2.65404">
        <ele>672.5795898</ele>
        <time>2014-03-29T08:17:24Z</time>
      </trkpt>
      <trkpt lat="44.30115" lon="2.65406">
        <ele>672.5795898</ele>
        <time>2014-03-29T08:17:29Z</time>
      </trkpt>
      <trkpt lat="44.30132" lon="2.65406">
        <ele>671.6181641</ele>
        <time>2014-03-29T08:17:35Z</time>
      </trkpt>
      <trkpt lat="44.30149" lon="2.65408">
        <ele>671.6181641</ele>
        <time>2014-03-29T08:17:41Z</time>
      </trkpt>
      <trkpt lat="44.30162" lon="2.65414">
        <ele>671.1376953</ele>
        <time>2014-03-29T08:17:46Z</time>
      </trkpt>
      <trkpt lat="44.30179" lon="2.65425">
        <ele>671.1376953</ele>
        <time>2014-03-29T08:17:52Z</time>
      </trkpt>
      <trkpt lat="44.30191" lon="2.65435">
        <ele>671.6181641</ele>
        <time>2014-03-29T08:17:57Z</time>
      </trkpt>
      <trkpt lat="44.30208" lon="2.6545">
        <ele>671.6181641</ele>
        <time>2014-03-29T08:18:04Z</time>
      </trkpt>
      <trkpt lat="44.3022" lon="2.65463">
        <ele>670.6569824</ele>
        <time>2014-03-29T08:18:09Z</time>
      </trkpt>
      <trkpt lat="44.30233" lon="2.65474">
        <ele>669.6958008</ele>
        <time>2014-03-29T08:18:14Z</time>
      </trkpt>
      <trkpt lat="44.30249" lon="2.65486">
        <ele>667.7727051</ele>
        <time>2014-03-29T08:18:20Z</time>
      </trkpt>
      <trkpt lat="44.30264" lon="2.65498">
        <ele>665.3696289</ele>
        <time>2014-03-29T08:18:26Z</time>
      </trkpt>
      <trkpt lat="44.30278" lon="2.65506">
        <ele>663.9274902</ele>
        <time>2014-03-29T08:18:31Z</time>
      </trkpt>
      <trkpt lat="44.30295" lon="2.65514">
        <ele>662.005127</ele>
        <time>2014-03-29T08:18:37Z</time>
      </trkpt>
      <trkpt lat="44.3031" lon="2.65523">
        <ele>659.1210938</ele>
        <time>2014-03-29T08:18:43Z</time>
      </trkpt>
      <trkpt lat="44.30324" lon="2.6553">
        <ele>657.1984863</ele>
        <time>2014-03-29T08:18:48Z</time>
      </trkpt>
      <trkpt lat="44.3034" lon="2.65539">
        <ele>655.2758789</ele>
        <time>2014-03-29T08:18:54Z</time>
      </trkpt>
      <trkpt lat="44.30356" lon="2.65552">
        <ele>654.795166</ele>
        <time>2014-03-29T08:19:00Z</time>
      </trkpt>
      <trkpt lat="44.30366" lon="2.6556">
        <ele>654.795166</ele>
        <time>2014-03-29T08:19:04Z</time>
      </trkpt>
      <trkpt lat="44.30377" lon="2.65571">
        <ele>653.8339844</ele>
        <time>2014-03-29T08:19:09Z</time>
      </trkpt>
      <trkpt lat="44.30391" lon="2.65581">
        <ele>654.3146973</ele>
        <time>2014-03-29T08:19:14Z</time>
      </trkpt>
      <trkpt lat="44.30404" lon="2.6559">
        <ele>654.3146973</ele>
        <time>2014-03-29T08:19:19Z</time>
      </trkpt>
      <trkpt lat="44.30417" lon="2.65595">
        <ele>651.4304199</ele>
        <time>2014-03-29T08:19:24Z</time>
      </trkpt>
      <trkpt lat="44.30434" lon="2.65597">
        <ele>648.065918</ele>
        <time>2014-03-29T08:19:30Z</time>
      </trkpt>
      <trkpt lat="44.30448" lon="2.65593">
        <ele>647.1044922</ele>
        <time>2014-03-29T08:19:35Z</time>
      </trkpt>
      <trkpt lat="44.30468" lon="2.65587">
        <ele>645.1818848</ele>
        <time>2014-03-29T08:19:42Z</time>
      </trkpt>
      <trkpt lat="44.30485" lon="2.65584">
        <ele>643.7399902</ele>
        <time>2014-03-29T08:19:48Z</time>
      </trkpt>
      <trkpt lat="44.30499" lon="2.65585">
        <ele>643.2592773</ele>
        <time>2014-03-29T08:19:53Z</time>
      </trkpt>
      <trkpt lat="44.3052" lon="2.65592">
        <ele>641.3366699</ele>
        <time>2014-03-29T08:20:01Z</time>
      </trkpt>
      <trkpt lat="44.30536" lon="2.656">
        <ele>639.8947754</ele>
        <time>2014-03-29T08:20:07Z</time>
      </trkpt>
      <trkpt lat="44.30548" lon="2.65604">
        <ele>638.9335938</ele>
        <time>2014-03-29T08:20:12Z</time>
      </trkpt>
      <trkpt lat="44.30562" lon="2.65606">
        <ele>639.4140625</ele>
        <time>2014-03-29T08:20:17Z</time>
      </trkpt>
      <trkpt lat="44.30576" lon="2.65608">
        <ele>639.4140625</ele>
        <time>2014-03-29T08:20:22Z</time>
      </trkpt>
      <trkpt lat="44.30594" lon="2.65606">
        <ele>637.972168</ele>
        <time>2014-03-29T08:20:28Z</time>
      </trkpt>
      <trkpt lat="44.30614" lon="2.656">
        <ele>637.0107422</ele>
        <time>2014-03-29T08:20:35Z</time>
      </trkpt>
      <trkpt lat="44.30627" lon="2.65593">
        <ele>635.5686035</ele>
        <time>2014-03-29T08:20:40Z</time>
      </trkpt>
      <trkpt lat="44.3064" lon="2.65585">
        <ele>633.6459961</ele>
        <time>2014-03-29T08:20:45Z</time>
      </trkpt>
      <trkpt lat="44.30653" lon="2.65577">
        <ele>633.1652832</ele>
        <time>2014-03-29T08:20:50Z</time>
      </trkpt>
      <trkpt lat="44.30664" lon="2.65572">
        <ele>632.2041016</ele>
        <time>2014-03-29T08:20:54Z</time>
      </trkpt>
      <trkpt lat="44.30673" lon="2.65577">
        <ele>631.7233887</ele>
        <time>2014-03-29T08:20:58Z</time>
      </trkpt>
      <trkpt lat="44.30683" lon="2.6559">
        <ele>629.3200684</ele>
        <time>2014-03-29T08:21:04Z</time>
      </trkpt>
      <trkpt lat="44.30692" lon="2.65599">
        <ele>630.2814941</ele>
        <time>2014-03-29T08:21:08Z</time>
      </trkpt>
      <trkpt lat="44.30703" lon="2.65601">
        <ele>630.762207</ele>
        <time>2014-03-29T08:21:12Z</time>
      </trkpt>
      <trkpt lat="44.30718" lon="2.65593">
        <ele>631.2429199</ele>
        <time>2014-03-29T08:21:18Z</time>
      </trkpt>
      <trkpt lat="44.30721" lon="2.65586">
        <ele>631.2429199</ele>
        <time>2014-03-29T08:21:20Z</time>
      </trkpt>
      <trkpt lat="44.30728" lon="2.65577">
        <ele>630.762207</ele>
        <time>2014-03-29T08:21:24Z</time>
      </trkpt>
      <trkpt lat="44.30729" lon="2.65574">
        <ele>630.2814941</ele>
        <time>2014-03-29T08:21:25Z</time>
      </trkpt>
      <trkpt lat="44.30741" lon="2.65559">
        <ele>629.8007813</ele>
        <time>2014-03-29T08:21:31Z</time>
      </trkpt>
      <trkpt lat="44.30755" lon="2.65557">
        <ele>629.3200684</ele>
        <time>2014-03-29T08:21:37Z</time>
      </trkpt>
      <trkpt lat="44.30766" lon="2.65552">
        <ele>629.8007813</ele>
        <time>2014-03-29T08:21:41Z</time>
      </trkpt>
      <trkpt lat="44.30778" lon="2.65543">
        <ele>629.8007813</ele>
        <time>2014-03-29T08:21:46Z</time>
      </trkpt>
      <trkpt lat="44.3079" lon="2.65534">
        <ele>629.3200684</ele>
        <time>2014-03-29T08:21:51Z</time>
      </trkpt>
      <trkpt lat="44.30803" lon="2.65529">
        <ele>628.3588867</ele>
        <time>2014-03-29T08:21:56Z</time>
      </trkpt>
      <trkpt lat="44.30814" lon="2.65526">
        <ele>627.8781738</ele>
        <time>2014-03-29T08:22:00Z</time>
      </trkpt>
      <trkpt lat="44.30826" lon="2.65523">
        <ele>627.3977051</ele>
        <time>2014-03-29T08:22:05Z</time>
      </trkpt>
      <trkpt lat="44.30833" lon="2.65517">
        <ele>627.3977051</ele>
        <time>2014-03-29T08:22:09Z</time>
      </trkpt>
      <trkpt lat="44.30845" lon="2.65512">
        <ele>627.3977051</ele>
        <time>2014-03-29T08:22:14Z</time>
      </trkpt>
      <trkpt lat="44.30857" lon="2.65511">
        <ele>626.4362793</ele>
        <time>2014-03-29T08:22:19Z</time>
      </trkpt>
      <trkpt lat="44.30865" lon="2.65514">
        <ele>626.4362793</ele>
        <time>2014-03-29T08:22:23Z</time>
      </trkpt>
      <trkpt lat="44.30875" lon="2.65523">
        <ele>630.2814941</ele>
        <time>2014-03-29T08:22:29Z</time>
      </trkpt>
      <trkpt lat="44.30876" lon="2.65521">
        <ele>633.1652832</ele>
        <time>2014-03-29T08:22:34Z</time>
      </trkpt>
      <trkpt lat="44.30878" lon="2.65509">
        <ele>632.2041016</ele>
        <time>2014-03-29T08:22:39Z</time>
      </trkpt>
      <trkpt lat="44.30882" lon="2.65503">
        <ele>631.7233887</ele>
        <time>2014-03-29T08:22:42Z</time>
      </trkpt>
      <trkpt lat="44.30895" lon="2.65494">
        <ele>634.126709</ele>
        <time>2014-03-29T08:22:48Z</time>
      </trkpt>
      <trkpt lat="44.30908" lon="2.65475">
        <ele>634.6074219</ele>
        <time>2014-03-29T08:22:55Z</time>
      </trkpt>
      <trkpt lat="44.30914" lon="2.65461">
        <ele>635.5686035</ele>
        <time>2014-03-29T08:23:00Z</time>
      </trkpt>
      <trkpt lat="44.30916" lon="2.65452">
        <ele>636.0495605</ele>
        <time>2014-03-29T08:23:03Z</time>
      </trkpt>
      <trkpt lat="44.30921" lon="2.65448">
        <ele>638.4528809</ele>
        <time>2014-03-29T08:23:06Z</time>
      </trkpt>
      <trkpt lat="44.30932" lon="2.65447">
        <ele>642.2980957</ele>
        <time>2014-03-29T08:23:12Z</time>
      </trkpt>
      <trkpt lat="44.30938" lon="2.65444">
        <ele>642.2980957</ele>
        <time>2014-03-29T08:23:17Z</time>
      </trkpt>
      <trkpt lat="44.30944" lon="2.6544">
        <ele>643.2592773</ele>
        <time>2014-03-29T08:23:21Z</time>
      </trkpt>
      <trkpt lat="44.3095" lon="2.65436">
        <ele>643.7399902</ele>
        <time>2014-03-29T08:23:26Z</time>
      </trkpt>
      <trkpt lat="44.30954" lon="2.65433">
        <ele>642.7788086</ele>
        <time>2014-03-29T08:23:30Z</time>
      </trkpt>
      <trkpt lat="44.30958" lon="2.6543">
        <ele>643.7399902</ele>
        <time>2014-03-29T08:23:34Z</time>
      </trkpt>
      <trkpt lat="44.30964" lon="2.65426">
        <ele>644.2207031</ele>
        <time>2014-03-29T08:23:39Z</time>
      </trkpt>
      <trkpt lat="44.30971" lon="2.65422">
        <ele>643.2592773</ele>
        <time>2014-03-29T08:23:45Z</time>
      </trkpt>
      <trkpt lat="44.30981" lon="2.65418">
        <ele>644.2207031</ele>
        <time>2014-03-29T08:23:52Z</time>
      </trkpt>
      <trkpt lat="44.30987" lon="2.65414">
        <ele>645.1818848</ele>
        <time>2014-03-29T08:23:57Z</time>
      </trkpt>
      <trkpt lat="44.30993" lon="2.6541">
        <ele>647.5852051</ele>
        <time>2014-03-29T08:24:02Z</time>
      </trkpt>
      <trkpt lat="44.30999" lon="2.65404">
        <ele>649.9885254</ele>
        <time>2014-03-29T08:24:07Z</time>
      </trkpt>
      <trkpt lat="44.31005" lon="2.65399">
        <ele>650.4692383</ele>
        <time>2014-03-29T08:24:13Z</time>
      </trkpt>
      <trkpt lat="44.31006" lon="2.65399">
        <ele>650.4692383</ele>
        <time>2014-03-29T08:24:14Z</time>
      </trkpt>
      <trkpt lat="44.31015" lon="2.65396">
        <ele>651.9111328</ele>
        <time>2014-03-29T08:24:21Z</time>
      </trkpt>
      <trkpt lat="44.31023" lon="2.65392">
        <ele>653.8339844</ele>
        <time>2014-03-29T08:24:27Z</time>
      </trkpt>
      <trkpt lat="44.31033" lon="2.65386">
        <ele>652.8725586</ele>
        <time>2014-03-29T08:24:34Z</time>
      </trkpt>
      <trkpt lat="44.31039" lon="2.65382">
        <ele>654.3146973</ele>
        <time>2014-03-29T08:24:39Z</time>
      </trkpt>
      <trkpt lat="44.31046" lon="2.65378">
        <ele>656.2370605</ele>
        <time>2014-03-29T08:24:44Z</time>
      </trkpt>
      <trkpt lat="44.31055" lon="2.65373">
        <ele>656.7177734</ele>
        <time>2014-03-29T08:24:50Z</time>
      </trkpt>
      <trkpt lat="44.31063" lon="2.65369">
        <ele>658.6403809</ele>
        <time>2014-03-29T08:24:57Z</time>
      </trkpt>
      <trkpt lat="44.31069" lon="2.65367">
        <ele>660.0822754</ele>
        <time>2014-03-29T08:25:01Z</time>
      </trkpt>
      <trkpt lat="44.31074" lon="2.65365">
        <ele>662.4855957</ele>
        <time>2014-03-29T08:25:06Z</time>
      </trkpt>
      <trkpt lat="44.31079" lon="2.65364">
        <ele>662.9663086</ele>
        <time>2014-03-29T08:25:10Z</time>
      </trkpt>
      <trkpt lat="44.31088" lon="2.6536">
        <ele>661.0437012</ele>
        <time>2014-03-29T08:25:16Z</time>
      </trkpt>
      <trkpt lat="44.311" lon="2.6536">
        <ele>662.005127</ele>
        <time>2014-03-29T08:25:22Z</time>
      </trkpt>
      <trkpt lat="44.31108" lon="2.65364">
        <ele>662.4855957</ele>
        <time>2014-03-29T08:25:27Z</time>
      </trkpt>
      <trkpt lat="44.31117" lon="2.65368">
        <ele>661.0437012</ele>
        <time>2014-03-29T08:25:32Z</time>
      </trkpt>
      <trkpt lat="44.31125" lon="2.65372">
        <ele>662.9663086</ele>
        <time>2014-03-29T08:25:36Z</time>
      </trkpt>
      <trkpt lat="44.31135" lon="2.65375">
        <ele>662.9663086</ele>
        <time>2014-03-29T08:25:43Z</time>
      </trkpt>
      <trkpt lat="44.31144" lon="2.65376">
        <ele>665.8503418</ele>
        <time>2014-03-29T08:25:49Z</time>
      </trkpt>
      <trkpt lat="44.31152" lon="2.65376">
        <ele>667.7727051</ele>
        <time>2014-03-29T08:25:55Z</time>
      </trkpt>
      <trkpt lat="44.31159" lon="2.65375">
        <ele>670.1762695</ele>
        <time>2014-03-29T08:25:59Z</time>
      </trkpt>
      <trkpt lat="44.31165" lon="2.65372">
        <ele>672.5795898</ele>
        <time>2014-03-29T08:26:03Z</time>
      </trkpt>
      <trkpt lat="44.3117" lon="2.6537">
        <ele>674.9829102</ele>
        <time>2014-03-29T08:26:07Z</time>
      </trkpt>
      <trkpt lat="44.31182" lon="2.65367">
        <ele>676.9055176</ele>
        <time>2014-03-29T08:26:15Z</time>
      </trkpt>
      <trkpt lat="44.31191" lon="2.65361">
        <ele>677.8666992</ele>
        <time>2014-03-29T08:26:23Z</time>
      </trkpt>
      <trkpt lat="44.31199" lon="2.65353">
        <ele>678.828125</ele>
        <time>2014-03-29T08:26:30Z</time>
      </trkpt>
      <trkpt lat="44.31203" lon="2.65347">
        <ele>680.7507324</ele>
        <time>2014-03-29T08:26:34Z</time>
      </trkpt>
      <trkpt lat="44.3121" lon="2.65337">
        <ele>681.7119141</ele>
        <time>2014-03-29T08:26:41Z</time>
      </trkpt>
      <trkpt lat="44.31217" lon="2.65328">
        <ele>681.7119141</ele>
        <time>2014-03-29T08:26:47Z</time>
      </trkpt>
      <trkpt lat="44.31225" lon="2.6532">
        <ele>682.6733398</ele>
        <time>2014-03-29T08:26:54Z</time>
      </trkpt>
      <trkpt lat="44.31238" lon="2.65308">
        <ele>685.557373</ele>
        <time>2014-03-29T08:27:01Z</time>
      </trkpt>
      <trkpt lat="44.31248" lon="2.65298">
        <ele>688.4414063</ele>
        <time>2014-03-29T08:27:07Z</time>
      </trkpt>
      <trkpt lat="44.31251" lon="2.65294">
        <ele>688.9221191</ele>
        <time>2014-03-29T08:27:09Z</time>
      </trkpt>
      <trkpt lat="44.31258" lon="2.65287">
        <ele>689.4025879</ele>
        <time>2014-03-29T08:27:13Z</time>
      </trkpt>
      <trkpt lat="44.3127" lon="2.65272">
        <ele>691.8059082</ele>
        <time>2014-03-29T08:27:20Z</time>
      </trkpt>
      <trkpt lat="44.31281" lon="2.65258">
        <ele>693.2478027</ele>
        <time>2014-03-29T08:27:27Z</time>
      </trkpt>
      <trkpt lat="44.31294" lon="2.65245">
        <ele>694.6896973</ele>
        <time>2014-03-29T08:27:34Z</time>
      </trkpt>
      <trkpt lat="44.31303" lon="2.65235">
        <ele>693.7285156</ele>
        <time>2014-03-29T08:27:39Z</time>
      </trkpt>
      <trkpt lat="44.31314" lon="2.65225">
        <ele>692.2866211</ele>
        <time>2014-03-29T08:27:45Z</time>
      </trkpt>
      <trkpt lat="44.31318" lon="2.6522">
        <ele>691.8059082</ele>
        <time>2014-03-29T08:27:49Z</time>
      </trkpt>
      <trkpt lat="44.31329" lon="2.65209">
        <ele>689.8833008</ele>
        <time>2014-03-29T08:27:59Z</time>
      </trkpt>
      <trkpt lat="44.31339" lon="2.65197">
        <ele>690.8444824</ele>
        <time>2014-03-29T08:28:08Z</time>
      </trkpt>
      <trkpt lat="44.31341" lon="2.65194">
        <ele>690.8444824</ele>
        <time>2014-03-29T08:28:10Z</time>
      </trkpt>
      <trkpt lat="44.31347" lon="2.65186">
        <ele>690.8444824</ele>
        <time>2014-03-29T08:28:17Z</time>
      </trkpt>
      <trkpt lat="44.31354" lon="2.65176">
        <ele>690.3640137</ele>
        <time>2014-03-29T08:28:24Z</time>
      </trkpt>
      <trkpt lat="44.31362" lon="2.65166">
        <ele>690.3640137</ele>
        <time>2014-03-29T08:28:30Z</time>
      </trkpt>
      <trkpt lat="44.31371" lon="2.65149">
        <ele>691.3251953</ele>
        <time>2014-03-29T08:28:36Z</time>
      </trkpt>
      <trkpt lat="44.31379" lon="2.65137">
        <ele>692.767334</ele>
        <time>2014-03-29T08:28:41Z</time>
      </trkpt>
      <trkpt lat="44.31388" lon="2.65126">
        <ele>692.2866211</ele>
        <time>2014-03-29T08:28:46Z</time>
      </trkpt>
      <trkpt lat="44.31399" lon="2.65112">
        <ele>694.6896973</ele>
        <time>2014-03-29T08:28:52Z</time>
      </trkpt>
      <trkpt lat="44.31411" lon="2.65102">
        <ele>694.6896973</ele>
        <time>2014-03-29T08:28:57Z</time>
      </trkpt>
      <trkpt lat="44.31425" lon="2.65092">
        <ele>692.767334</ele>
        <time>2014-03-29T08:29:02Z</time>
      </trkpt>
      <trkpt lat="44.31439" lon="2.65084">
        <ele>690.8444824</ele>
        <time>2014-03-29T08:29:08Z</time>
      </trkpt>
      <trkpt lat="44.31452" lon="2.65079">
        <ele>689.8833008</ele>
        <time>2014-03-29T08:29:13Z</time>
      </trkpt>
      <trkpt lat="44.31463" lon="2.65074">
        <ele>687.4799805</ele>
        <time>2014-03-29T08:29:17Z</time>
      </trkpt>
      <trkpt lat="44.3148" lon="2.65064">
        <ele>684.1154785</ele>
        <time>2014-03-29T08:29:23Z</time>
      </trkpt>
      <trkpt lat="44.31498" lon="2.65058">
        <ele>681.7119141</ele>
        <time>2014-03-29T08:29:29Z</time>
      </trkpt>
      <trkpt lat="44.31508" lon="2.65052">
        <ele>680.2700195</ele>
        <time>2014-03-29T08:29:33Z</time>
      </trkpt>
      <trkpt lat="44.31522" lon="2.65045">
        <ele>679.7893066</ele>
        <time>2014-03-29T08:29:38Z</time>
      </trkpt>
      <trkpt lat="44.31532" lon="2.65039">
        <ele>678.828125</ele>
        <time>2014-03-29T08:29:42Z</time>
      </trkpt>
      <trkpt lat="44.31544" lon="2.6503">
        <ele>678.828125</ele>
        <time>2014-03-29T08:29:47Z</time>
      </trkpt>
      <trkpt lat="44.31557" lon="2.65019">
        <ele>678.3474121</ele>
        <time>2014-03-29T08:29:52Z</time>
      </trkpt>
      <trkpt lat="44.31564" lon="2.65008">
        <ele>678.3474121</ele>
        <time>2014-03-29T08:29:56Z</time>
      </trkpt>
      <trkpt lat="44.31571" lon="2.64992">
        <ele>677.8666992</ele>
        <time>2014-03-29T08:30:01Z</time>
      </trkpt>
      <trkpt lat="44.31579" lon="2.6498">
        <ele>677.8666992</ele>
        <time>2014-03-29T08:30:05Z</time>
      </trkpt>
      <trkpt lat="44.31584" lon="2.64976">
        <ele>677.8666992</ele>
        <time>2014-03-29T08:30:07Z</time>
      </trkpt>
      <trkpt lat="44.31589" lon="2.64975">
        <ele>678.828125</ele>
        <time>2014-03-29T08:30:10Z</time>
      </trkpt>
      <trkpt lat="44.31605" lon="2.64981">
        <ele>682.192627</ele>
        <time>2014-03-29T08:30:17Z</time>
      </trkpt>
      <trkpt lat="44.31616" lon="2.64987">
        <ele>684.5961914</ele>
        <time>2014-03-29T08:30:22Z</time>
      </trkpt>
      <trkpt lat="44.31627" lon="2.64995">
        <ele>686.0380859</ele>
        <time>2014-03-29T08:30:28Z</time>
      </trkpt>
      <trkpt lat="44.31638" lon="2.65004">
        <ele>687.4799805</ele>
        <time>2014-03-29T08:30:33Z</time>
      </trkpt>
      <trkpt lat="44.31646" lon="2.6501">
        <ele>688.9221191</ele>
        <time>2014-03-29T08:30:38Z</time>
      </trkpt>
      <trkpt lat="44.31656" lon="2.65018">
        <ele>689.8833008</ele>
        <time>2014-03-29T08:30:43Z</time>
      </trkpt>
      <trkpt lat="44.31663" lon="2.65025">
        <ele>689.8833008</ele>
        <time>2014-03-29T08:30:47Z</time>
      </trkpt>
      <trkpt lat="44.31671" lon="2.65035">
        <ele>690.8444824</ele>
        <time>2014-03-29T08:30:52Z</time>
      </trkpt>
      <trkpt lat="44.3168" lon="2.65044">
        <ele>692.767334</ele>
        <time>2014-03-29T08:30:57Z</time>
      </trkpt>
      <trkpt lat="44.31686" lon="2.65053">
        <ele>693.2478027</ele>
        <time>2014-03-29T08:31:01Z</time>
      </trkpt>
      <trkpt lat="44.31691" lon="2.65063">
        <ele>693.7285156</ele>
        <time>2014-03-29T08:31:05Z</time>
      </trkpt>
      <trkpt lat="44.31698" lon="2.65074">
        <ele>695.1704102</ele>
        <time>2014-03-29T08:31:10Z</time>
      </trkpt>
      <trkpt lat="44.31701" lon="2.6509">
        <ele>695.651123</ele>
        <time>2014-03-29T08:31:16Z</time>
      </trkpt>
      <trkpt lat="44.31702" lon="2.65092">
        <ele>696.1318359</ele>
        <time>2014-03-29T08:31:17Z</time>
      </trkpt>
      <trkpt lat="44.31702" lon="2.65104">
        <ele>696.1318359</ele>
        <time>2014-03-29T08:31:23Z</time>
      </trkpt>
      <trkpt lat="44.31701" lon="2.65115">
        <ele>697.0930176</ele>
        <time>2014-03-29T08:31:29Z</time>
      </trkpt>
      <trkpt lat="44.31701" lon="2.6512">
        <ele>697.5737305</ele>
        <time>2014-03-29T08:31:31Z</time>
      </trkpt>
      <trkpt lat="44.31701" lon="2.65138">
        <ele>698.5349121</ele>
        <time>2014-03-29T08:31:39Z</time>
      </trkpt>
      <trkpt lat="44.31701" lon="2.65149">
        <ele>699.015625</ele>
        <time>2014-03-29T08:31:44Z</time>
      </trkpt>
      <trkpt lat="44.31698" lon="2.65168">
        <ele>701.8999023</ele>
        <time>2014-03-29T08:31:51Z</time>
      </trkpt>
      <trkpt lat="44.31697" lon="2.65183">
        <ele>703.8225098</ele>
        <time>2014-03-29T08:31:56Z</time>
      </trkpt>
      <trkpt lat="44.31697" lon="2.65189">
        <ele>703.8225098</ele>
        <time>2014-03-29T08:31:58Z</time>
      </trkpt>
      <trkpt lat="44.31693" lon="2.65203">
        <ele>704.3032227</ele>
        <time>2014-03-29T08:32:03Z</time>
      </trkpt>
      <trkpt lat="44.31691" lon="2.65214">
        <ele>705.7451172</ele>
        <time>2014-03-29T08:32:07Z</time>
      </trkpt>
      <trkpt lat="44.31686" lon="2.6523">
        <ele>706.7062988</ele>
        <time>2014-03-29T08:32:13Z</time>
      </trkpt>
      <trkpt lat="44.31681" lon="2.65251">
        <ele>707.6677246</ele>
        <time>2014-03-29T08:32:20Z</time>
      </trkpt>
      <trkpt lat="44.31677" lon="2.65265">
        <ele>707.6677246</ele>
        <time>2014-03-29T08:32:25Z</time>
      </trkpt>
      <trkpt lat="44.31676" lon="2.65274">
        <ele>708.6289063</ele>
        <time>2014-03-29T08:32:28Z</time>
      </trkpt>
      <trkpt lat="44.31674" lon="2.65288">
        <ele>710.0708008</ele>
        <time>2014-03-29T08:32:33Z</time>
      </trkpt>
      <trkpt lat="44.31674" lon="2.65291">
        <ele>710.5515137</ele>
        <time>2014-03-29T08:32:34Z</time>
      </trkpt>
      <trkpt lat="44.31672" lon="2.65296">
        <ele>710.5515137</ele>
        <time>2014-03-29T08:32:36Z</time>
      </trkpt>
      <trkpt lat="44.3167" lon="2.6531">
        <ele>711.0322266</ele>
        <time>2014-03-29T08:32:41Z</time>
      </trkpt>
      <trkpt lat="44.31669" lon="2.65328">
        <ele>711.5129395</ele>
        <time>2014-03-29T08:32:47Z</time>
      </trkpt>
      <trkpt lat="44.3167" lon="2.65343">
        <ele>712.954834</ele>
        <time>2014-03-29T08:32:52Z</time>
      </trkpt>
      <trkpt lat="44.3167" lon="2.65347">
        <ele>712.954834</ele>
        <time>2014-03-29T08:32:53Z</time>
      </trkpt>
      <trkpt lat="44.31673" lon="2.65364">
        <ele>714.8774414</ele>
        <time>2014-03-29T08:32:59Z</time>
      </trkpt>
      <trkpt lat="44.31682" lon="2.65381">
        <ele>716.3195801</ele>
        <time>2014-03-29T08:33:06Z</time>
      </trkpt>
      <trkpt lat="44.31691" lon="2.65395">
        <ele>717.2810059</ele>
        <time>2014-03-29T08:33:12Z</time>
      </trkpt>
      <trkpt lat="44.31702" lon="2.6541">
        <ele>718.2421875</ele>
        <time>2014-03-29T08:33:18Z</time>
      </trkpt>
      <trkpt lat="44.31709" lon="2.6542">
        <ele>717.7614746</ele>
        <time>2014-03-29T08:33:22Z</time>
      </trkpt>
      <trkpt lat="44.31715" lon="2.65434">
        <ele>715.8388672</ele>
        <time>2014-03-29T08:33:27Z</time>
      </trkpt>
      <trkpt lat="44.31721" lon="2.65449">
        <ele>713.4355469</ele>
        <time>2014-03-29T08:33:32Z</time>
      </trkpt>
      <trkpt lat="44.31727" lon="2.65465">
        <ele>711.9936523</ele>
        <time>2014-03-29T08:33:37Z</time>
      </trkpt>
      <trkpt lat="44.31731" lon="2.65487">
        <ele>710.5515137</ele>
        <time>2014-03-29T08:33:43Z</time>
      </trkpt>
      <trkpt lat="44.31728" lon="2.65505">
        <ele>708.1484375</ele>
        <time>2014-03-29T08:33:48Z</time>
      </trkpt>
      <trkpt lat="44.31728" lon="2.65523">
        <ele>707.1870117</ele>
        <time>2014-03-29T08:33:53Z</time>
      </trkpt>
      <trkpt lat="44.31729" lon="2.6554">
        <ele>705.2644043</ele>
        <time>2014-03-29T08:33:58Z</time>
      </trkpt>
      <trkpt lat="44.31728" lon="2.65557">
        <ele>704.7836914</ele>
        <time>2014-03-29T08:34:03Z</time>
      </trkpt>
      <trkpt lat="44.31728" lon="2.65575">
        <ele>704.7836914</ele>
        <time>2014-03-29T08:34:09Z</time>
      </trkpt>
      <trkpt lat="44.31728" lon="2.65578">
        <ele>705.2644043</ele>
        <time>2014-03-29T08:34:10Z</time>
      </trkpt>
      <trkpt lat="44.31727" lon="2.65603">
        <ele>705.7451172</ele>
        <time>2014-03-29T08:34:17Z</time>
      </trkpt>
      <trkpt lat="44.31726" lon="2.6562">
        <ele>706.2255859</ele>
        <time>2014-03-29T08:34:22Z</time>
      </trkpt>
      <trkpt lat="44.31724" lon="2.65636">
        <ele>706.2255859</ele>
        <time>2014-03-29T08:34:27Z</time>
      </trkpt>
      <trkpt lat="44.31728" lon="2.65654">
        <ele>705.7451172</ele>
        <time>2014-03-29T08:34:33Z</time>
      </trkpt>
      <trkpt lat="44.31733" lon="2.6567">
        <ele>706.7062988</ele>
        <time>2014-03-29T08:34:38Z</time>
      </trkpt>
      <trkpt lat="44.31741" lon="2.65685">
        <ele>707.1870117</ele>
        <time>2014-03-29T08:34:44Z</time>
      </trkpt>
      <trkpt lat="44.31752" lon="2.65698">
        <ele>709.1096191</ele>
        <time>2014-03-29T08:34:50Z</time>
      </trkpt>
      <trkpt lat="44.31759" lon="2.65708">
        <ele>711.0322266</ele>
        <time>2014-03-29T08:34:55Z</time>
      </trkpt>
      <trkpt lat="44.31768" lon="2.65721">
        <ele>712.954834</ele>
        <time>2014-03-29T08:35:01Z</time>
      </trkpt>
      <trkpt lat="44.31779" lon="2.65738">
        <ele>713.9160156</ele>
        <time>2014-03-29T08:35:08Z</time>
      </trkpt>
      <trkpt lat="44.31787" lon="2.65751">
        <ele>713.4355469</ele>
        <time>2014-03-29T08:35:14Z</time>
      </trkpt>
      <trkpt lat="44.31795" lon="2.65762">
        <ele>713.9160156</ele>
        <time>2014-03-29T08:35:19Z</time>
      </trkpt>
      <trkpt lat="44.31804" lon="2.65775">
        <ele>714.8774414</ele>
        <time>2014-03-29T08:35:25Z</time>
      </trkpt>
      <trkpt lat="44.31812" lon="2.65786">
        <ele>715.8388672</ele>
        <time>2014-03-29T08:35:30Z</time>
      </trkpt>
      <trkpt lat="44.31822" lon="2.65799">
        <ele>717.2810059</ele>
        <time>2014-03-29T08:35:36Z</time>
      </trkpt>
      <trkpt lat="44.3183" lon="2.65812">
        <ele>718.7229004</ele>
        <time>2014-03-29T08:35:42Z</time>
      </trkpt>
      <trkpt lat="44.31838" lon="2.65824">
        <ele>720.1647949</ele>
        <time>2014-03-29T08:35:47Z</time>
      </trkpt>
      <trkpt lat="44.31842" lon="2.65833">
        <ele>722.0874023</ele>
        <time>2014-03-29T08:35:51Z</time>
      </trkpt>
      <trkpt lat="44.3185" lon="2.65846">
        <ele>724.4907227</ele>
        <time>2014-03-29T08:35:58Z</time>
      </trkpt>
      <trkpt lat="44.31858" lon="2.65854">
        <ele>726.4133301</ele>
        <time>2014-03-29T08:36:03Z</time>
      </trkpt>
      <trkpt lat="44.31865" lon="2.65861">
        <ele>726.4133301</ele>
        <time>2014-03-29T08:36:08Z</time>
      </trkpt>
      <trkpt lat="44.31867" lon="2.65863">
        <ele>726.894043</ele>
        <time>2014-03-29T08:36:10Z</time>
      </trkpt>
      <trkpt lat="44.31873" lon="2.65871">
        <ele>726.4133301</ele>
        <time>2014-03-29T08:36:17Z</time>
      </trkpt>
      <trkpt lat="44.31875" lon="2.6588">
        <ele>725.9326172</ele>
        <time>2014-03-29T08:36:23Z</time>
      </trkpt>
      <trkpt lat="44.31874" lon="2.65885">
        <ele>726.4133301</ele>
        <time>2014-03-29T08:36:26Z</time>
      </trkpt>
      <trkpt lat="44.31872" lon="2.65888">
        <ele>726.894043</ele>
        <time>2014-03-29T08:36:33Z</time>
      </trkpt>
      <trkpt lat="44.31867" lon="2.65896">
        <ele>727.8552246</ele>
        <time>2014-03-29T08:36:39Z</time>
      </trkpt>
      <trkpt lat="44.31863" lon="2.65905">
        <ele>728.3359375</ele>
        <time>2014-03-29T08:36:46Z</time>
      </trkpt>
      <trkpt lat="44.3186" lon="2.65911">
        <ele>729.2971191</ele>
        <time>2014-03-29T08:36:50Z</time>
      </trkpt>
      <trkpt lat="44.31858" lon="2.65918">
        <ele>729.777832</ele>
        <time>2014-03-29T08:36:55Z</time>
      </trkpt>
      <trkpt lat="44.31854" lon="2.65925">
        <ele>731.2199707</ele>
        <time>2014-03-29T08:37:01Z</time>
      </trkpt>
      <trkpt lat="44.31851" lon="2.65936">
        <ele>732.6621094</ele>
        <time>2014-03-29T08:37:08Z</time>
      </trkpt>
      <trkpt lat="44.31848" lon="2.65945">
        <ele>733.1425781</ele>
        <time>2014-03-29T08:37:13Z</time>
      </trkpt>
      <trkpt lat="44.31847" lon="2.65954">
        <ele>734.1040039</ele>
        <time>2014-03-29T08:37:18Z</time>
      </trkpt>
      <trkpt lat="44.31849" lon="2.65963">
        <ele>735.0654297</ele>
        <time>2014-03-29T08:37:23Z</time>
      </trkpt>
      <trkpt lat="44.31851" lon="2.65971">
        <ele>736.0266113</ele>
        <time>2014-03-29T08:37:28Z</time>
      </trkpt>
      <trkpt lat="44.31853" lon="2.65982">
        <ele>737.9492188</ele>
        <time>2014-03-29T08:37:35Z</time>
      </trkpt>
      <trkpt lat="44.31854" lon="2.65984">
        <ele>737.9492188</ele>
        <time>2014-03-29T08:37:37Z</time>
      </trkpt>
      <trkpt lat="44.31856" lon="2.65993">
        <ele>739.3911133</ele>
        <time>2014-03-29T08:37:43Z</time>
      </trkpt>
      <trkpt lat="44.31857" lon="2.65999">
        <ele>740.3525391</ele>
        <time>2014-03-29T08:37:47Z</time>
      </trkpt>
      <trkpt lat="44.31861" lon="2.66008">
        <ele>742.2751465</ele>
        <time>2014-03-29T08:37:54Z</time>
      </trkpt>
      <trkpt lat="44.31862" lon="2.6601">
        <ele>742.2751465</ele>
        <time>2014-03-29T08:37:56Z</time>
      </trkpt>
      <trkpt lat="44.31865" lon="2.6601">
        <ele>743.2363281</ele>
        <time>2014-03-29T08:38:02Z</time>
      </trkpt>
      <trkpt lat="44.31866" lon="2.6601">
        <ele>743.717041</ele>
        <time>2014-03-29T08:38:03Z</time>
      </trkpt>
      <trkpt lat="44.31874" lon="2.65993">
        <ele>742.7558594</ele>
        <time>2014-03-29T08:38:10Z</time>
      </trkpt>
      <trkpt lat="44.31879" lon="2.65975">
        <ele>742.2751465</ele>
        <time>2014-03-29T08:38:15Z</time>
      </trkpt>
      <trkpt lat="44.31886" lon="2.65959">
        <ele>741.7944336</ele>
        <time>2014-03-29T08:38:20Z</time>
      </trkpt>
      <trkpt lat="44.31892" lon="2.65946">
        <ele>739.8718262</ele>
        <time>2014-03-29T08:38:24Z</time>
      </trkpt>
      <trkpt lat="44.31905" lon="2.6592">
        <ele>738.4299316</ele>
        <time>2014-03-29T08:38:32Z</time>
      </trkpt>
      <trkpt lat="44.31912" lon="2.65908">
        <ele>737.4685059</ele>
        <time>2014-03-29T08:38:36Z</time>
      </trkpt>
      <trkpt lat="44.31914" lon="2.65906">
        <ele>736.5073242</ele>
        <time>2014-03-29T08:38:42Z</time>
      </trkpt>
      <trkpt lat="44.31914" lon="2.65906">
        <ele>736.5073242</ele>
        <time>2014-03-29T08:38:53Z</time>
      </trkpt>
      <trkpt lat="44.31914" lon="2.65906">
        <ele>736.987793</ele>
        <time>2014-03-29T08:39:06Z</time>
      </trkpt>
      <trkpt lat="44.31915" lon="2.65907">
        <ele>736.987793</ele>
        <time>2014-03-29T08:39:14Z</time>
      </trkpt>
      <trkpt lat="44.31916" lon="2.65907">
        <ele>736.987793</ele>
        <time>2014-03-29T08:39:21Z</time>
      </trkpt>
      <trkpt lat="44.31917" lon="2.65907">
        <ele>736.987793</ele>
        <time>2014-03-29T08:39:32Z</time>
      </trkpt>
      <trkpt lat="44.31918" lon="2.65908">
        <ele>736.5073242</ele>
        <time>2014-03-29T08:39:56Z</time>
      </trkpt>
      <trkpt lat="44.31918" lon="2.65908">
        <ele>736.987793</ele>
        <time>2014-03-29T08:40:14Z</time>
      </trkpt>
      <trkpt lat="44.31918" lon="2.65908">
        <ele>736.0266113</ele>
        <time>2014-03-29T08:40:22Z</time>
      </trkpt>
      <trkpt lat="44.31919" lon="2.65908">
        <ele>735.5458984</ele>
        <time>2014-03-29T08:40:36Z</time>
      </trkpt>
      <trkpt lat="44.31918" lon="2.65908">
        <ele>736.5073242</ele>
        <time>2014-03-29T08:40:49Z</time>
      </trkpt>
      <trkpt lat="44.3192" lon="2.65902">
        <ele>736.5073242</ele>
        <time>2014-03-29T08:40:55Z</time>
      </trkpt>
      <trkpt lat="44.31924" lon="2.65894">
        <ele>735.5458984</ele>
        <time>2014-03-29T08:41:02Z</time>
      </trkpt>
      <trkpt lat="44.31927" lon="2.65886">
        <ele>735.0654297</ele>
        <time>2014-03-29T08:41:09Z</time>
      </trkpt>
      <trkpt lat="44.3193" lon="2.65881">
        <ele>734.5847168</ele>
        <time>2014-03-29T08:41:14Z</time>
      </trkpt>
      <trkpt lat="44.31935" lon="2.65873">
        <ele>734.1040039</ele>
        <time>2014-03-29T08:41:20Z</time>
      </trkpt>
      <trkpt lat="44.31937" lon="2.65869">
        <ele>734.1040039</ele>
        <time>2014-03-29T08:41:22Z</time>
      </trkpt>
      <trkpt lat="44.31942" lon="2.65858">
        <ele>734.1040039</ele>
        <time>2014-03-29T08:41:28Z</time>
      </trkpt>
      <trkpt lat="44.31951" lon="2.65841">
        <ele>733.623291</ele>
        <time>2014-03-29T08:41:36Z</time>
      </trkpt>
      <trkpt lat="44.3196" lon="2.65823">
        <ele>733.1425781</ele>
        <time>2014-03-29T08:41:43Z</time>
      </trkpt>
      <trkpt lat="44.31968" lon="2.65809">
        <ele>730.7392578</ele>
        <time>2014-03-29T08:41:49Z</time>
      </trkpt>
      <trkpt lat="44.31974" lon="2.65798">
        <ele>729.777832</ele>
        <time>2014-03-29T08:41:54Z</time>
      </trkpt>
      <trkpt lat="44.31982" lon="2.65779">
        <ele>728.8166504</ele>
        <time>2014-03-29T08:42:01Z</time>
      </trkpt>
      <trkpt lat="44.3199" lon="2.65762">
        <ele>727.3747559</ele>
        <time>2014-03-29T08:42:08Z</time>
      </trkpt>
      <trkpt lat="44.31997" lon="2.65743">
        <ele>727.3747559</ele>
        <time>2014-03-29T08:42:14Z</time>
      </trkpt>
      <trkpt lat="44.32005" lon="2.65719">
        <ele>727.3747559</ele>
        <time>2014-03-29T08:42:21Z</time>
      </trkpt>
      <trkpt lat="44.32008" lon="2.65706">
        <ele>727.8552246</ele>
        <time>2014-03-29T08:42:25Z</time>
      </trkpt>
      <trkpt lat="44.32011" lon="2.65689">
        <ele>727.3747559</ele>
        <time>2014-03-29T08:42:30Z</time>
      </trkpt>
      <trkpt lat="44.32014" lon="2.65675">
        <ele>726.894043</ele>
        <time>2014-03-29T08:42:34Z</time>
      </trkpt>
      <trkpt lat="44.32018" lon="2.65653">
        <ele>726.4133301</ele>
        <time>2014-03-29T08:42:40Z</time>
      </trkpt>
      <trkpt lat="44.32022" lon="2.65635">
        <ele>725.4519043</ele>
        <time>2014-03-29T08:42:45Z</time>
      </trkpt>
      <trkpt lat="44.32026" lon="2.65619">
        <ele>724.9714355</ele>
        <time>2014-03-29T08:42:50Z</time>
      </trkpt>
      <trkpt lat="44.32029" lon="2.65599">
        <ele>724.4907227</ele>
        <time>2014-03-29T08:42:56Z</time>
      </trkpt>
      <trkpt lat="44.3203" lon="2.6559">
        <ele>724.4907227</ele>
        <time>2014-03-29T08:43:01Z</time>
      </trkpt>
      <trkpt lat="44.32033" lon="2.65571">
        <ele>724.4907227</ele>
        <time>2014-03-29T08:43:07Z</time>
      </trkpt>
      <trkpt lat="44.32037" lon="2.65555">
        <ele>723.529541</ele>
        <time>2014-03-29T08:43:11Z</time>
      </trkpt>
      <trkpt lat="44.32039" lon="2.65539">
        <ele>723.529541</ele>
        <time>2014-03-29T08:43:15Z</time>
      </trkpt>
      <trkpt lat="44.32043" lon="2.65515">
        <ele>723.0488281</ele>
        <time>2014-03-29T08:43:21Z</time>
      </trkpt>
      <trkpt lat="44.32046" lon="2.65495">
        <ele>723.0488281</ele>
        <time>2014-03-29T08:43:26Z</time>
      </trkpt>
      <trkpt lat="44.32049" lon="2.65479">
        <ele>722.5681152</ele>
        <time>2014-03-29T08:43:31Z</time>
      </trkpt>
      <trkpt lat="44.3205" lon="2.65478">
        <ele>722.5681152</ele>
        <time>2014-03-29T08:43:35Z</time>
      </trkpt>
      <trkpt lat="44.32054" lon="2.65463">
        <ele>720.6455078</ele>
        <time>2014-03-29T08:43:40Z</time>
      </trkpt>
      <trkpt lat="44.32058" lon="2.65457">
        <ele>720.1647949</ele>
        <time>2014-03-29T08:43:42Z</time>
      </trkpt>
      <trkpt lat="44.32069" lon="2.65442">
        <ele>719.2036133</ele>
        <time>2014-03-29T08:43:47Z</time>
      </trkpt>
      <trkpt lat="44.3208" lon="2.65427">
        <ele>716.800293</ele>
        <time>2014-03-29T08:43:53Z</time>
      </trkpt>
      <trkpt lat="44.32085" lon="2.65412">
        <ele>715.8388672</ele>
        <time>2014-03-29T08:43:57Z</time>
      </trkpt>
      <trkpt lat="44.32093" lon="2.654">
        <ele>714.8774414</ele>
        <time>2014-03-29T08:44:02Z</time>
      </trkpt>
      <trkpt lat="44.321" lon="2.65395">
        <ele>714.8774414</ele>
        <time>2014-03-29T08:44:06Z</time>
      </trkpt>
      <trkpt lat="44.32112" lon="2.65387">
        <ele>715.3581543</ele>
        <time>2014-03-29T08:44:11Z</time>
      </trkpt>
      <trkpt lat="44.32114" lon="2.65386">
        <ele>715.3581543</ele>
        <time>2014-03-29T08:44:12Z</time>
      </trkpt>
      <trkpt lat="44.32128" lon="2.65374">
        <ele>714.3967285</ele>
        <time>2014-03-29T08:44:18Z</time>
      </trkpt>
      <trkpt lat="44.32142" lon="2.65364">
        <ele>714.3967285</ele>
        <time>2014-03-29T08:44:23Z</time>
      </trkpt>
      <trkpt lat="44.32154" lon="2.65354">
        <ele>713.4355469</ele>
        <time>2014-03-29T08:44:28Z</time>
      </trkpt>
      <trkpt lat="44.32165" lon="2.65338">
        <ele>711.9936523</ele>
        <time>2014-03-29T08:44:34Z</time>
      </trkpt>
      <trkpt lat="44.32176" lon="2.65325">
        <ele>710.0708008</ele>
        <time>2014-03-29T08:44:39Z</time>
      </trkpt>
      <trkpt lat="44.32186" lon="2.6531">
        <ele>709.1096191</ele>
        <time>2014-03-29T08:44:44Z</time>
      </trkpt>
      <trkpt lat="44.32194" lon="2.65301">
        <ele>706.7062988</ele>
        <time>2014-03-29T08:44:48Z</time>
      </trkpt>
      <trkpt lat="44.32195" lon="2.65296">
        <ele>705.2644043</ele>
        <time>2014-03-29T08:44:50Z</time>
      </trkpt>
      <trkpt lat="44.32207" lon="2.65281">
        <ele>702.861084</ele>
        <time>2014-03-29T08:44:56Z</time>
      </trkpt>
      <trkpt lat="44.32217" lon="2.65268">
        <ele>700.9384766</ele>
        <time>2014-03-29T08:45:02Z</time>
      </trkpt>
      <trkpt lat="44.32227" lon="2.65254">
        <ele>699.015625</ele>
        <time>2014-03-29T08:45:07Z</time>
      </trkpt>
      <trkpt lat="44.32232" lon="2.65241">
        <ele>696.1318359</ele>
        <time>2014-03-29T08:45:11Z</time>
      </trkpt>
      <trkpt lat="44.32243" lon="2.65221">
        <ele>693.7285156</ele>
        <time>2014-03-29T08:45:18Z</time>
      </trkpt>
      <trkpt lat="44.32247" lon="2.65212">
        <ele>693.7285156</ele>
        <time>2014-03-29T08:45:21Z</time>
      </trkpt>
      <trkpt lat="44.3225" lon="2.65208">
        <ele>693.7285156</ele>
        <time>2014-03-29T08:45:23Z</time>
      </trkpt>
      <trkpt lat="44.32262" lon="2.65198">
        <ele>691.8059082</ele>
        <time>2014-03-29T08:45:28Z</time>
      </trkpt>
      <trkpt lat="44.32278" lon="2.65191">
        <ele>689.4025879</ele>
        <time>2014-03-29T08:45:34Z</time>
      </trkpt>
      <trkpt lat="44.32285" lon="2.6519">
        <ele>687.4799805</ele>
        <time>2014-03-29T08:45:37Z</time>
      </trkpt>
      <trkpt lat="44.32298" lon="2.65182">
        <ele>686.0380859</ele>
        <time>2014-03-29T08:45:43Z</time>
      </trkpt>
      <trkpt lat="44.32308" lon="2.65176">
        <ele>684.5961914</ele>
        <time>2014-03-29T08:45:47Z</time>
      </trkpt>
      <trkpt lat="44.3231" lon="2.65175">
        <ele>683.6345215</ele>
        <time>2014-03-29T08:45:48Z</time>
      </trkpt>
      <trkpt lat="44.32315" lon="2.65173">
        <ele>683.1538086</ele>
        <time>2014-03-29T08:45:52Z</time>
      </trkpt>
      <trkpt lat="44.32325" lon="2.65179">
        <ele>683.1538086</ele>
        <time>2014-03-29T08:45:57Z</time>
      </trkpt>
      <trkpt lat="44.32336" lon="2.65186">
        <ele>682.192627</ele>
        <time>2014-03-29T08:46:01Z</time>
      </trkpt>
      <trkpt lat="44.32347" lon="2.6518">
        <ele>680.2700195</ele>
        <time>2014-03-29T08:46:05Z</time>
      </trkpt>
      <trkpt lat="44.32357" lon="2.65165">
        <ele>677.8666992</ele>
        <time>2014-03-29T08:46:10Z</time>
      </trkpt>
      <trkpt lat="44.32367" lon="2.6517">
        <ele>676.9055176</ele>
        <time>2014-03-29T08:46:14Z</time>
      </trkpt>
      <trkpt lat="44.32378" lon="2.65177">
        <ele>677.8666992</ele>
        <time>2014-03-29T08:46:18Z</time>
      </trkpt>
      <trkpt lat="44.32378" lon="2.65176">
        <ele>676.9055176</ele>
        <time>2014-03-29T08:46:19Z</time>
      </trkpt>
      <trkpt lat="44.32383" lon="2.65165">
        <ele>672.098877</ele>
        <time>2014-03-29T08:46:24Z</time>
      </trkpt>
      <trkpt lat="44.32384" lon="2.65148">
        <ele>668.734375</ele>
        <time>2014-03-29T08:46:29Z</time>
      </trkpt>
      <trkpt lat="44.32387" lon="2.65137">
        <ele>666.8115234</ele>
        <time>2014-03-29T08:46:33Z</time>
      </trkpt>
      <trkpt lat="44.32395" lon="2.65129">
        <ele>662.9663086</ele>
        <time>2014-03-29T08:46:37Z</time>
      </trkpt>
      <trkpt lat="44.32402" lon="2.65113">
        <ele>660.0822754</ele>
        <time>2014-03-29T08:46:42Z</time>
      </trkpt>
      <trkpt lat="44.3241" lon="2.65097">
        <ele>658.1599121</ele>
        <time>2014-03-29T08:46:47Z</time>
      </trkpt>
      <trkpt lat="44.32415" lon="2.65079">
        <ele>656.7177734</ele>
        <time>2014-03-29T08:46:52Z</time>
      </trkpt>
      <trkpt lat="44.32422" lon="2.65062">
        <ele>654.795166</ele>
        <time>2014-03-29T08:46:57Z</time>
      </trkpt>
      <trkpt lat="44.3243" lon="2.65041">
        <ele>652.8725586</ele>
        <time>2014-03-29T08:47:03Z</time>
      </trkpt>
      <trkpt lat="44.32436" lon="2.65023">
        <ele>652.3918457</ele>
        <time>2014-03-29T08:47:08Z</time>
      </trkpt>
      <trkpt lat="44.32442" lon="2.65006">
        <ele>650.949707</ele>
        <time>2014-03-29T08:47:12Z</time>
      </trkpt>
      <trkpt lat="44.32448" lon="2.64988">
        <ele>648.5463867</ele>
        <time>2014-03-29T08:47:17Z</time>
      </trkpt>
      <trkpt lat="44.32454" lon="2.64973">
        <ele>646.1433105</ele>
        <time>2014-03-29T08:47:22Z</time>
      </trkpt>
      <trkpt lat="44.32462" lon="2.64961">
        <ele>645.1818848</ele>
        <time>2014-03-29T08:47:26Z</time>
      </trkpt>
      <trkpt lat="44.3247" lon="2.64947">
        <ele>644.2207031</ele>
        <time>2014-03-29T08:47:31Z</time>
      </trkpt>
      <trkpt lat="44.32475" lon="2.6493">
        <ele>643.7399902</ele>
        <time>2014-03-29T08:47:35Z</time>
      </trkpt>
      <trkpt lat="44.32484" lon="2.64915">
        <ele>644.2207031</ele>
        <time>2014-03-29T08:47:40Z</time>
      </trkpt>
      <trkpt lat="44.32491" lon="2.64899">
        <ele>643.7399902</ele>
        <time>2014-03-29T08:47:45Z</time>
      </trkpt>
      <trkpt lat="44.32502" lon="2.64882">
        <ele>643.2592773</ele>
        <time>2014-03-29T08:47:51Z</time>
      </trkpt>
      <trkpt lat="44.32509" lon="2.64875">
        <ele>645.1818848</ele>
        <time>2014-03-29T08:47:55Z</time>
      </trkpt>
      <trkpt lat="44.32518" lon="2.64868">
        <ele>646.1433105</ele>
        <time>2014-03-29T08:47:59Z</time>
      </trkpt>
      <trkpt lat="44.32525" lon="2.64865">
        <ele>646.1433105</ele>
        <time>2014-03-29T08:48:04Z</time>
      </trkpt>
      <trkpt lat="44.32528" lon="2.64865">
        <ele>648.5463867</ele>
        <time>2014-03-29T08:48:16Z</time>
      </trkpt>
      <trkpt lat="44.32532" lon="2.64864">
        <ele>649.0270996</ele>
        <time>2014-03-29T08:48:21Z</time>
      </trkpt>
      <trkpt lat="44.32537" lon="2.6486">
        <ele>648.5463867</ele>
        <time>2014-03-29T08:48:28Z</time>
      </trkpt>
      <trkpt lat="44.32539" lon="2.64858">
        <ele>647.1044922</ele>
        <time>2014-03-29T08:48:33Z</time>
      </trkpt>
      <trkpt lat="44.32546" lon="2.64853">
        <ele>648.065918</ele>
        <time>2014-03-29T08:48:38Z</time>
      </trkpt>
      <trkpt lat="44.32556" lon="2.64843">
        <ele>648.065918</ele>
        <time>2014-03-29T08:48:43Z</time>
      </trkpt>
      <trkpt lat="44.32567" lon="2.64833">
        <ele>647.5852051</ele>
        <time>2014-03-29T08:48:48Z</time>
      </trkpt>
      <trkpt lat="44.32569" lon="2.64831">
        <ele>648.065918</ele>
        <time>2014-03-29T08:48:49Z</time>
      </trkpt>
      <trkpt lat="44.32578" lon="2.64824">
        <ele>648.5463867</ele>
        <time>2014-03-29T08:48:54Z</time>
      </trkpt>
      <trkpt lat="44.32589" lon="2.64817">
        <ele>648.5463867</ele>
        <time>2014-03-29T08:48:59Z</time>
      </trkpt>
      <trkpt lat="44.32592" lon="2.64815">
        <ele>649.0270996</ele>
        <time>2014-03-29T08:49:00Z</time>
      </trkpt>
      <trkpt lat="44.32601" lon="2.64804">
        <ele>647.1044922</ele>
        <time>2014-03-29T08:49:05Z</time>
      </trkpt>
      <trkpt lat="44.32614" lon="2.64796">
        <ele>646.6240234</ele>
        <time>2014-03-29T08:49:10Z</time>
      </trkpt>
      <trkpt lat="44.32629" lon="2.64788">
        <ele>645.1818848</ele>
        <time>2014-03-29T08:49:16Z</time>
      </trkpt>
      <trkpt lat="44.32644" lon="2.64781">
        <ele>644.7011719</ele>
        <time>2014-03-29T08:49:22Z</time>
      </trkpt>
      <trkpt lat="44.3266" lon="2.64779">
        <ele>643.2592773</ele>
        <time>2014-03-29T08:49:28Z</time>
      </trkpt>
      <trkpt lat="44.32675" lon="2.6478">
        <ele>642.7788086</ele>
        <time>2014-03-29T08:49:34Z</time>
      </trkpt>
      <trkpt lat="44.32687" lon="2.64777">
        <ele>642.2980957</ele>
        <time>2014-03-29T08:49:39Z</time>
      </trkpt>
      <trkpt lat="44.3269" lon="2.64776">
        <ele>641.8173828</ele>
        <time>2014-03-29T08:49:41Z</time>
      </trkpt>
      <trkpt lat="44.327" lon="2.64778">
        <ele>641.3366699</ele>
        <time>2014-03-29T08:49:46Z</time>
      </trkpt>
      <trkpt lat="44.32704" lon="2.64781">
        <ele>641.3366699</ele>
        <time>2014-03-29T08:49:48Z</time>
      </trkpt>
      <trkpt lat="44.32711" lon="2.64787">
        <ele>641.3366699</ele>
        <time>2014-03-29T08:49:51Z</time>
      </trkpt>
      <trkpt lat="44.32723" lon="2.64785">
        <ele>640.3754883</ele>
        <time>2014-03-29T08:49:56Z</time>
      </trkpt>
      <trkpt lat="44.32738" lon="2.64784">
        <ele>642.7788086</ele>
        <time>2014-03-29T08:50:02Z</time>
      </trkpt>
      <trkpt lat="44.32752" lon="2.64788">
        <ele>645.1818848</ele>
        <time>2014-03-29T08:50:08Z</time>
      </trkpt>
      <trkpt lat="44.32765" lon="2.64789">
        <ele>646.1433105</ele>
        <time>2014-03-29T08:50:14Z</time>
      </trkpt>
      <trkpt lat="44.3278" lon="2.64789">
        <ele>649.0270996</ele>
        <time>2014-03-29T08:50:20Z</time>
      </trkpt>
      <trkpt lat="44.32789" lon="2.6479">
        <ele>650.949707</ele>
        <time>2014-03-29T08:50:24Z</time>
      </trkpt>
      <trkpt lat="44.328" lon="2.64792">
        <ele>653.8339844</ele>
        <time>2014-03-29T08:50:29Z</time>
      </trkpt>
      <trkpt lat="44.32814" lon="2.64796">
        <ele>656.2370605</ele>
        <time>2014-03-29T08:50:35Z</time>
      </trkpt>
      <trkpt lat="44.32826" lon="2.648">
        <ele>656.2370605</ele>
        <time>2014-03-29T08:50:41Z</time>
      </trkpt>
      <trkpt lat="44.32843" lon="2.64801">
        <ele>657.1984863</ele>
        <time>2014-03-29T08:50:48Z</time>
      </trkpt>
      <trkpt lat="44.32861" lon="2.64802">
        <ele>658.1599121</ele>
        <time>2014-03-29T08:50:56Z</time>
      </trkpt>
      <trkpt lat="44.32872" lon="2.64804">
        <ele>659.6018066</ele>
        <time>2014-03-29T08:51:01Z</time>
      </trkpt>
      <trkpt lat="44.32888" lon="2.64807">
        <ele>661.0437012</ele>
        <time>2014-03-29T08:51:08Z</time>
      </trkpt>
      <trkpt lat="44.32901" lon="2.64811">
        <ele>661.0437012</ele>
        <time>2014-03-29T08:51:14Z</time>
      </trkpt>
      <trkpt lat="44.32918" lon="2.64813">
        <ele>662.4855957</ele>
        <time>2014-03-29T08:51:21Z</time>
      </trkpt>
      <trkpt lat="44.32932" lon="2.64816">
        <ele>662.9663086</ele>
        <time>2014-03-29T08:51:27Z</time>
      </trkpt>
      <trkpt lat="44.32945" lon="2.64818">
        <ele>662.4855957</ele>
        <time>2014-03-29T08:51:32Z</time>
      </trkpt>
      <trkpt lat="44.32957" lon="2.64821">
        <ele>662.9663086</ele>
        <time>2014-03-29T08:51:37Z</time>
      </trkpt>
      <trkpt lat="44.32972" lon="2.64825">
        <ele>663.4470215</ele>
        <time>2014-03-29T08:51:43Z</time>
      </trkpt>
      <trkpt lat="44.32988" lon="2.6483">
        <ele>663.4470215</ele>
        <time>2014-03-29T08:51:50Z</time>
      </trkpt>
      <trkpt lat="44.33001" lon="2.64834">
        <ele>663.4470215</ele>
        <time>2014-03-29T08:51:55Z</time>
      </trkpt>
      <trkpt lat="44.33018" lon="2.64839">
        <ele>663.4470215</ele>
        <time>2014-03-29T08:52:02Z</time>
      </trkpt>
      <trkpt lat="44.33032" lon="2.64842">
        <ele>663.4470215</ele>
        <time>2014-03-29T08:52:07Z</time>
      </trkpt>
      <trkpt lat="44.33048" lon="2.64845">
        <ele>665.3696289</ele>
        <time>2014-03-29T08:52:13Z</time>
      </trkpt>
      <trkpt lat="44.3306" lon="2.64843">
        <ele>663.9274902</ele>
        <time>2014-03-29T08:52:19Z</time>
      </trkpt>
      <trkpt lat="44.33062" lon="2.64841">
        <ele>664.4082031</ele>
        <time>2014-03-29T08:52:20Z</time>
      </trkpt>
      <trkpt lat="44.33067" lon="2.64826">
        <ele>666.8115234</ele>
        <time>2014-03-29T08:52:26Z</time>
      </trkpt>
      <trkpt lat="44.33069" lon="2.64809">
        <ele>668.734375</ele>
        <time>2014-03-29T08:52:32Z</time>
      </trkpt>
      <trkpt lat="44.33071" lon="2.6479">
        <ele>669.6958008</ele>
        <time>2014-03-29T08:52:38Z</time>
      </trkpt>
      <trkpt lat="44.33073" lon="2.64771">
        <ele>669.6958008</ele>
        <time>2014-03-29T08:52:44Z</time>
      </trkpt>
      <trkpt lat="44.33075" lon="2.6475">
        <ele>669.2150879</ele>
        <time>2014-03-29T08:52:50Z</time>
      </trkpt>
      <trkpt lat="44.33079" lon="2.64733">
        <ele>670.1762695</ele>
        <time>2014-03-29T08:52:55Z</time>
      </trkpt>
      <trkpt lat="44.33083" lon="2.64714">
        <ele>672.098877</ele>
        <time>2014-03-29T08:53:01Z</time>
      </trkpt>
      <trkpt lat="44.33088" lon="2.64698">
        <ele>673.5410156</ele>
        <time>2014-03-29T08:53:06Z</time>
      </trkpt>
      <trkpt lat="44.33092" lon="2.64679">
        <ele>674.0214844</ele>
        <time>2014-03-29T08:53:12Z</time>
      </trkpt>
      <trkpt lat="44.33095" lon="2.64654">
        <ele>674.9829102</ele>
        <time>2014-03-29T08:53:18Z</time>
      </trkpt>
      <trkpt lat="44.33099" lon="2.64631">
        <ele>675.9440918</ele>
        <time>2014-03-29T08:53:24Z</time>
      </trkpt>
      <trkpt lat="44.33101" lon="2.64616">
        <ele>676.9055176</ele>
        <time>2014-03-29T08:53:28Z</time>
      </trkpt>
      <trkpt lat="44.33103" lon="2.64594">
        <ele>677.3862305</ele>
        <time>2014-03-29T08:53:34Z</time>
      </trkpt>
      <trkpt lat="44.33108" lon="2.64576">
        <ele>677.8666992</ele>
        <time>2014-03-29T08:53:39Z</time>
      </trkpt>
      <trkpt lat="44.33116" lon="2.64562">
        <ele>677.3862305</ele>
        <time>2014-03-29T08:53:44Z</time>
      </trkpt>
      <trkpt lat="44.33125" lon="2.64541">
        <ele>675.9440918</ele>
        <time>2014-03-29T08:53:50Z</time>
      </trkpt>
      <trkpt lat="44.33132" lon="2.64521">
        <ele>675.4633789</ele>
        <time>2014-03-29T08:53:56Z</time>
      </trkpt>
      <trkpt lat="44.33139" lon="2.645">
        <ele>674.0214844</ele>
        <time>2014-03-29T08:54:02Z</time>
      </trkpt>
      <trkpt lat="44.33144" lon="2.64482">
        <ele>671.6181641</ele>
        <time>2014-03-29T08:54:07Z</time>
      </trkpt>
      <trkpt lat="44.33152" lon="2.64465">
        <ele>672.5795898</ele>
        <time>2014-03-29T08:54:12Z</time>
      </trkpt>
      <trkpt lat="44.33158" lon="2.64448">
        <ele>672.5795898</ele>
        <time>2014-03-29T08:54:17Z</time>
      </trkpt>
      <trkpt lat="44.33162" lon="2.64427">
        <ele>671.1376953</ele>
        <time>2014-03-29T08:54:23Z</time>
      </trkpt>
      <trkpt lat="44.33168" lon="2.64401">
        <ele>670.6569824</ele>
        <time>2014-03-29T08:54:30Z</time>
      </trkpt>
      <trkpt lat="44.33173" lon="2.64388">
        <ele>670.1762695</ele>
        <time>2014-03-29T08:54:34Z</time>
      </trkpt>
      <trkpt lat="44.33178" lon="2.64367">
        <ele>670.6569824</ele>
        <time>2014-03-29T08:54:40Z</time>
      </trkpt>
      <trkpt lat="44.33186" lon="2.64343">
        <ele>671.1376953</ele>
        <time>2014-03-29T08:54:47Z</time>
      </trkpt>
      <trkpt lat="44.33191" lon="2.64329">
        <ele>671.1376953</ele>
        <time>2014-03-29T08:54:51Z</time>
      </trkpt>
      <trkpt lat="44.33199" lon="2.64312">
        <ele>669.6958008</ele>
        <time>2014-03-29T08:54:56Z</time>
      </trkpt>
      <trkpt lat="44.33206" lon="2.64296">
        <ele>669.2150879</ele>
        <time>2014-03-29T08:55:01Z</time>
      </trkpt>
      <trkpt lat="44.33212" lon="2.64281">
        <ele>669.6958008</ele>
        <time>2014-03-29T08:55:05Z</time>
      </trkpt>
      <trkpt lat="44.33218" lon="2.64268">
        <ele>669.2150879</ele>
        <time>2014-03-29T08:55:09Z</time>
      </trkpt>
      <trkpt lat="44.33226" lon="2.64251">
        <ele>668.2536621</ele>
        <time>2014-03-29T08:55:14Z</time>
      </trkpt>
      <trkpt lat="44.33233" lon="2.64233">
        <ele>666.8115234</ele>
        <time>2014-03-29T08:55:19Z</time>
      </trkpt>
      <trkpt lat="44.33241" lon="2.64212">
        <ele>664.888916</ele>
        <time>2014-03-29T08:55:25Z</time>
      </trkpt>
      <trkpt lat="44.33248" lon="2.64196">
        <ele>664.4082031</ele>
        <time>2014-03-29T08:55:30Z</time>
      </trkpt>
      <trkpt lat="44.33253" lon="2.64178">
        <ele>662.9663086</ele>
        <time>2014-03-29T08:55:35Z</time>
      </trkpt>
      <trkpt lat="44.33255" lon="2.64161">
        <ele>661.5244141</ele>
        <time>2014-03-29T08:55:39Z</time>
      </trkpt>
      <trkpt lat="44.3326" lon="2.64142">
        <ele>660.0822754</ele>
        <time>2014-03-29T08:55:44Z</time>
      </trkpt>
      <trkpt lat="44.33265" lon="2.64121">
        <ele>658.6403809</ele>
        <time>2014-03-29T08:55:50Z</time>
      </trkpt>
      <trkpt lat="44.33269" lon="2.64101">
        <ele>657.6791992</ele>
        <time>2014-03-29T08:55:55Z</time>
      </trkpt>
      <trkpt lat="44.33273" lon="2.64082">
        <ele>658.1599121</ele>
        <time>2014-03-29T08:56:00Z</time>
      </trkpt>
      <trkpt lat="44.33275" lon="2.64054">
        <ele>658.6403809</ele>
        <time>2014-03-29T08:56:07Z</time>
      </trkpt>
      <trkpt lat="44.33277" lon="2.64037">
        <ele>659.1210938</ele>
        <time>2014-03-29T08:56:12Z</time>
      </trkpt>
      <trkpt lat="44.33281" lon="2.64019">
        <ele>660.0822754</ele>
        <time>2014-03-29T08:56:17Z</time>
      </trkpt>
      <trkpt lat="44.33285" lon="2.64001">
        <ele>659.1210938</ele>
        <time>2014-03-29T08:56:22Z</time>
      </trkpt>
      <trkpt lat="44.33291" lon="2.63975">
        <ele>659.1210938</ele>
        <time>2014-03-29T08:56:29Z</time>
      </trkpt>
      <trkpt lat="44.33293" lon="2.6396">
        <ele>659.1210938</ele>
        <time>2014-03-29T08:56:33Z</time>
      </trkpt>
      <trkpt lat="44.33295" lon="2.63941">
        <ele>658.1599121</ele>
        <time>2014-03-29T08:56:38Z</time>
      </trkpt>
      <trkpt lat="44.33299" lon="2.63918">
        <ele>658.6403809</ele>
        <time>2014-03-29T08:56:44Z</time>
      </trkpt>
      <trkpt lat="44.33303" lon="2.63896">
        <ele>657.1984863</ele>
        <time>2014-03-29T08:56:50Z</time>
      </trkpt>
      <trkpt lat="44.33308" lon="2.63882">
        <ele>656.2370605</ele>
        <time>2014-03-29T08:56:54Z</time>
      </trkpt>
      <trkpt lat="44.33313" lon="2.63866">
        <ele>655.2758789</ele>
        <time>2014-03-29T08:56:59Z</time>
      </trkpt>
      <trkpt lat="44.33317" lon="2.63848">
        <ele>654.795166</ele>
        <time>2014-03-29T08:57:04Z</time>
      </trkpt>
      <trkpt lat="44.3332" lon="2.6383">
        <ele>653.8339844</ele>
        <time>2014-03-29T08:57:09Z</time>
      </trkpt>
      <trkpt lat="44.33325" lon="2.63808">
        <ele>652.8725586</ele>
        <time>2014-03-29T08:57:15Z</time>
      </trkpt>
      <trkpt lat="44.33331" lon="2.63791">
        <ele>653.8339844</ele>
        <time>2014-03-29T08:57:20Z</time>
      </trkpt>
      <trkpt lat="44.33338" lon="2.63772">
        <ele>652.3918457</ele>
        <time>2014-03-29T08:57:26Z</time>
      </trkpt>
      <trkpt lat="44.33343" lon="2.63754">
        <ele>649.5078125</ele>
        <time>2014-03-29T08:57:31Z</time>
      </trkpt>
      <trkpt lat="44.33348" lon="2.63739">
        <ele>647.1044922</ele>
        <time>2014-03-29T08:57:35Z</time>
      </trkpt>
      <trkpt lat="44.33352" lon="2.63721">
        <ele>644.7011719</ele>
        <time>2014-03-29T08:57:40Z</time>
      </trkpt>
      <trkpt lat="44.33358" lon="2.637">
        <ele>642.2980957</ele>
        <time>2014-03-29T08:57:46Z</time>
      </trkpt>
      <trkpt lat="44.33365" lon="2.63687">
        <ele>641.3366699</ele>
        <time>2014-03-29T08:57:50Z</time>
      </trkpt>
      <trkpt lat="44.33369" lon="2.63674">
        <ele>638.9335938</ele>
        <time>2014-03-29T08:57:54Z</time>
      </trkpt>
      <trkpt lat="44.33379" lon="2.6366">
        <ele>637.972168</ele>
        <time>2014-03-29T08:57:59Z</time>
      </trkpt>
      <trkpt lat="44.33385" lon="2.63649">
        <ele>637.0107422</ele>
        <time>2014-03-29T08:58:03Z</time>
      </trkpt>
      <trkpt lat="44.33392" lon="2.63632">
        <ele>632.2041016</ele>
        <time>2014-03-29T08:58:08Z</time>
      </trkpt>
      <trkpt lat="44.33401" lon="2.63623">
        <ele>628.8395996</ele>
        <time>2014-03-29T08:58:12Z</time>
      </trkpt>
      <trkpt lat="44.33413" lon="2.63611">
        <ele>626.9169922</ele>
        <time>2014-03-29T08:58:17Z</time>
      </trkpt>
      <trkpt lat="44.33421" lon="2.636">
        <ele>624.9943848</ele>
        <time>2014-03-29T08:58:21Z</time>
      </trkpt>
      <trkpt lat="44.33434" lon="2.63585">
        <ele>624.9943848</ele>
        <time>2014-03-29T08:58:27Z</time>
      </trkpt>
      <trkpt lat="44.3344" lon="2.63572">
        <ele>624.032959</ele>
        <time>2014-03-29T08:58:31Z</time>
      </trkpt>
      <trkpt lat="44.33446" lon="2.63554">
        <ele>622.5910645</ele>
        <time>2014-03-29T08:58:36Z</time>
      </trkpt>
      <trkpt lat="44.33447" lon="2.6354">
        <ele>622.1103516</ele>
        <time>2014-03-29T08:58:40Z</time>
      </trkpt>
      <trkpt lat="44.33449" lon="2.63522">
        <ele>623.5524902</ele>
        <time>2014-03-29T08:58:45Z</time>
      </trkpt>
      <trkpt lat="44.33453" lon="2.63505">
        <ele>623.5524902</ele>
        <time>2014-03-29T08:58:50Z</time>
      </trkpt>
      <trkpt lat="44.33459" lon="2.63485">
        <ele>624.5136719</ele>
        <time>2014-03-29T08:58:56Z</time>
      </trkpt>
      <trkpt lat="44.33464" lon="2.63468">
        <ele>625.4748535</ele>
        <time>2014-03-29T08:59:01Z</time>
      </trkpt>
      <trkpt lat="44.3347" lon="2.63454">
        <ele>624.9943848</ele>
        <time>2014-03-29T08:59:06Z</time>
      </trkpt>
      <trkpt lat="44.33475" lon="2.63437">
        <ele>625.4748535</ele>
        <time>2014-03-29T08:59:11Z</time>
      </trkpt>
      <trkpt lat="44.33478" lon="2.6342">
        <ele>627.3977051</ele>
        <time>2014-03-29T08:59:16Z</time>
      </trkpt>
      <trkpt lat="44.33479" lon="2.63403">
        <ele>629.8007813</ele>
        <time>2014-03-29T08:59:21Z</time>
      </trkpt>
      <trkpt lat="44.3348" lon="2.63388">
        <ele>631.2429199</ele>
        <time>2014-03-29T08:59:26Z</time>
      </trkpt>
      <trkpt lat="44.3348" lon="2.63378">
        <ele>632.2041016</ele>
        <time>2014-03-29T08:59:29Z</time>
      </trkpt>
      <trkpt lat="44.33482" lon="2.63361">
        <ele>632.2041016</ele>
        <time>2014-03-29T08:59:34Z</time>
      </trkpt>
      <trkpt lat="44.33485" lon="2.63342">
        <ele>633.6459961</ele>
        <time>2014-03-29T08:59:40Z</time>
      </trkpt>
      <trkpt lat="44.33488" lon="2.63322">
        <ele>634.126709</ele>
        <time>2014-03-29T08:59:46Z</time>
      </trkpt>
      <trkpt lat="44.33493" lon="2.63307">
        <ele>635.5686035</ele>
        <time>2014-03-29T08:59:51Z</time>
      </trkpt>
      <trkpt lat="44.33498" lon="2.63288">
        <ele>637.0107422</ele>
        <time>2014-03-29T08:59:57Z</time>
      </trkpt>
      <trkpt lat="44.33502" lon="2.63272">
        <ele>639.4140625</ele>
        <time>2014-03-29T09:00:02Z</time>
      </trkpt>
      <trkpt lat="44.33506" lon="2.63255">
        <ele>640.3754883</ele>
        <time>2014-03-29T09:00:07Z</time>
      </trkpt>
      <trkpt lat="44.33513" lon="2.63233">
        <ele>641.3366699</ele>
        <time>2014-03-29T09:00:14Z</time>
      </trkpt>
      <trkpt lat="44.33518" lon="2.63212">
        <ele>642.2980957</ele>
        <time>2014-03-29T09:00:20Z</time>
      </trkpt>
      <trkpt lat="44.33521" lon="2.63196">
        <ele>642.2980957</ele>
        <time>2014-03-29T09:00:25Z</time>
      </trkpt>
      <trkpt lat="44.33523" lon="2.63183">
        <ele>641.8173828</ele>
        <time>2014-03-29T09:00:29Z</time>
      </trkpt>
      <trkpt lat="44.33527" lon="2.63168">
        <ele>641.8173828</ele>
        <time>2014-03-29T09:00:34Z</time>
      </trkpt>
      <trkpt lat="44.33531" lon="2.63155">
        <ele>641.8173828</ele>
        <time>2014-03-29T09:00:38Z</time>
      </trkpt>
      <trkpt lat="44.33536" lon="2.63143">
        <ele>642.2980957</ele>
        <time>2014-03-29T09:00:42Z</time>
      </trkpt>
      <trkpt lat="44.33545" lon="2.63121">
        <ele>642.2980957</ele>
        <time>2014-03-29T09:00:49Z</time>
      </trkpt>
      <trkpt lat="44.33551" lon="2.63107">
        <ele>642.2980957</ele>
        <time>2014-03-29T09:00:54Z</time>
      </trkpt>
      <trkpt lat="44.33555" lon="2.6309">
        <ele>644.2207031</ele>
        <time>2014-03-29T09:00:59Z</time>
      </trkpt>
      <trkpt lat="44.33558" lon="2.63076">
        <ele>644.2207031</ele>
        <time>2014-03-29T09:01:04Z</time>
      </trkpt>
      <trkpt lat="44.33559" lon="2.63061">
        <ele>644.7011719</ele>
        <time>2014-03-29T09:01:09Z</time>
      </trkpt>
      <trkpt lat="44.33562" lon="2.63038">
        <ele>646.1433105</ele>
        <time>2014-03-29T09:01:16Z</time>
      </trkpt>
      <trkpt lat="44.33567" lon="2.63031">
        <ele>646.6240234</ele>
        <time>2014-03-29T09:01:22Z</time>
      </trkpt>
      <trkpt lat="44.33569" lon="2.63029">
        <ele>647.1044922</ele>
        <time>2014-03-29T09:01:24Z</time>
      </trkpt>
      <trkpt lat="44.33568" lon="2.63015">
        <ele>648.065918</ele>
        <time>2014-03-29T09:01:30Z</time>
      </trkpt>
      <trkpt lat="44.33567" lon="2.62998">
        <ele>647.5852051</ele>
        <time>2014-03-29T09:01:35Z</time>
      </trkpt>
      <trkpt lat="44.33566" lon="2.62991">
        <ele>647.1044922</ele>
        <time>2014-03-29T09:01:37Z</time>
      </trkpt>
      <trkpt lat="44.33566" lon="2.62972">
        <ele>648.065918</ele>
        <time>2014-03-29T09:01:43Z</time>
      </trkpt>
      <trkpt lat="44.33563" lon="2.62953">
        <ele>648.5463867</ele>
        <time>2014-03-29T09:01:48Z</time>
      </trkpt>
      <trkpt lat="44.33562" lon="2.62943">
        <ele>648.5463867</ele>
        <time>2014-03-29T09:01:51Z</time>
      </trkpt>
      <trkpt lat="44.33566" lon="2.62935">
        <ele>647.1044922</ele>
        <time>2014-03-29T09:01:55Z</time>
      </trkpt>
      <trkpt lat="44.33567" lon="2.6293">
        <ele>647.1044922</ele>
        <time>2014-03-29T09:01:57Z</time>
      </trkpt>
      <trkpt lat="44.33568" lon="2.62927">
        <ele>646.6240234</ele>
        <time>2014-03-29T09:01:59Z</time>
      </trkpt>
      <trkpt lat="44.3357" lon="2.62925">
        <ele>645.6625977</ele>
        <time>2014-03-29T09:02:05Z</time>
      </trkpt>
      <trkpt lat="44.3357" lon="2.62928">
        <ele>645.1818848</ele>
        <time>2014-03-29T09:02:15Z</time>
      </trkpt>
      <trkpt lat="44.33569" lon="2.62927">
        <ele>643.7399902</ele>
        <time>2014-03-29T09:02:29Z</time>
      </trkpt>
      <trkpt lat="44.33569" lon="2.62929">
        <ele>648.065918</ele>
        <time>2014-03-29T09:02:41Z</time>
      </trkpt>
      <trkpt lat="44.33571" lon="2.62927">
        <ele>649.0270996</ele>
        <time>2014-03-29T09:02:50Z</time>
      </trkpt>
      <trkpt lat="44.33573" lon="2.62926">
        <ele>651.9111328</ele>
        <time>2014-03-29T09:03:03Z</time>
      </trkpt>
    </trkseg>
  </trk>
</gpx>